[[{"header":{"parameterUnit":"m.s-1","parameterCategory":1,"la1":30.6,"la2":28.766,"lo1":-90.7593,"lo2":-88.6598,"dy":0.0162,"dx":0.0183,"nx":116,"ny":114,"refTime":"2023-07-28T12:00:00:Z","depth":0,"parameterNumber":2,"parameterNumberName":"U-component_of_WINDS"},"data":[0.0,0.0,0.0,0.0,0.0,0.0,0.0,0.0,0.0,0.0,0.0,0.0,0.0,0.0,0.0,0.0,0.0,0.0,0.0,0.0,0.0,0.0,0.0,0.0,0.0,0.0,0.0,0.0,0.0,0.0,0.0,0.0,0.0,0.0,0.0,0.0,0.0,0.0,0.0,0.0,0.0,0.0,0.0,0.0,0.0,0.0,0.0,0.0,0.0,0.0,0.0,0.0,0.0,0.0,0.0,0.0,0.0,0.0,0.0,0.0,0.0,0.0,0.0,0.0,0.0,0.0,0.0,0.0,0.0,0.0,0.0,0.0,0.0,0.0,0.0,0.0,0.0,0.0,0.0,0.0,0.0,0.0,0.0,0.0,0.0,0.0,0.0,0.0,0.0,0.0,0.0,0.0,0.0,0.0,0.0,0.0,0.0,0.0,0.0,0.0,0.0,0.0,0.0,0.0,0.0,0.0,0.0,0.0,0.0,0.0,0.0,0.0,0.0,0.0,0.0,0.0,0.0,0.0,0.0,0.0,0.0,0.0,0.0,0.0,0.0,0.0,0.0,0.0,0.0,0.0,0.0,0.0,0.0,0.0,0.0,0.0,0.0,0.0,0.0,0.0,0.0,0.0,0.0,0.0,0.0,0.0,0.0,0.0,0.0,0.0,0.0,0.0,0.0,0.0,0.0,0.0,0.0,0.0,0.0,0.0,0.0,0.0,0.0,0.0,0.0,0.0,0.0,0.0,0.0,0.0,0.0,0.0,0.0,0.0,0.0,0.0,0.0,0.0,0.0,0.0,0.0,0.0,0.0,0.0,0.0,0.0,0.0,0.0,0.0,0.0,0.0,0.0,0.0,0.0,0.0,0.0,0.0,0.0,0.0,0.0,0.0,0.0,0.0,0.0,0.0,0.0,0.0,0.0,0.0,0.0,0.0,0.0,0.0,0.0,0.0,0.0,0.0,0.0,0.0,0.0,0.0,0.0,0.0,0.0,0.0,0.0,0.0,0.0,0.0,0.0,0.0,0.0,0.0,0.0,0.0,0.0,0.0,0.0,0.0,0.0,0.0,0.0,0.0,0.0,0.0,0.0,0.0,0.0,0.0,0.0,0.0,0.0,0.0,0.0,0.0,0.0,0.0,0.0,0.0,0.0,0.0,0.0,0.0,0.0,0.0,0.0,0.0,0.0,0.0,0.0,0.0,0.0,0.0,0.0,0.0,0.0,0.0,0.0,0.0,0.0,0.0,0.0,0.0,0.0,0.0,0.0,0.0,0.0,0.0,0.0,0.0,0.0,0.0,0.0,0.0,0.0,0.0,0.0,0.0,0.0,0.0,0.0,0.0,0.0,0.0,0.0,0.0,0.0,0.0,0.0,0.0,0.0,0.0,0.0,0.0,0.0,0.0,0.0,0.0,0.0,0.0,0.0,0.0,0.0,0.0,0.0,0.0,0.0,0.0,0.0,0.0,0.0,0.0,0.0,0.0,0.0,0.0,0.0,0.0,0.0,0.0,0.0,0.0,0.0,0.0,0.0,0.0,0.0,0.0,0.0,0.0,0.0,0.0,0.0,0.0,0.0,0.0,0.0,0.0,0.0,0.0,0.0,0.0,0.0,0.0,0.0,0.0,0.0,0.0,0.0,0.0,0.0,0.0,0.0,0.0,0.0,0.0,0.0,0.0,0.0,0.0,0.0,0.0,0.0,0.0,0.0,0.0,0.0,0.0,0.0,0.0,0.0,0.0,0.0,0.0,0.0,0.0,0.0,0.0,0.0,0.0,0.0,0.0,0.0,0.0,0.0,0.0,0.0,0.0,0.0,0.0,0.0,0.0,0.0,0.0,0.0,0.0,0.0,0.0,0.0,0.0,0.0,0.0,0.0,0.0,0.0,0.0,0.0,0.0,0.0,0.0,0.0,0.0,0.0,0.0,0.0,0.0,0.0,0.0,0.0,0.0,0.0,0.0,0.0,0.0,0.0,0.0,0.0,0.0,0.0,0.0,0.0,0.0,0.0,0.0,0.0,0.0,0.0,0.0,0.0,0.0,0.0,0.0,0.0,0.0,0.0,0.0,0.0,0.0,0.0,0.0,0.0,0.0,0.0,0.0,0.0,0.0,0.0,0.0,0.0,0.0,0.0,0.0,0.0,0.0,0.0,0.0,0.0,0.0,0.0,0.0,0.0,0.0,0.0,0.0,0.0,0.0,0.0,0.0,0.0,0.0,0.0,0.0,0.0,0.0,0.0,0.0,0.0,0.0,0.0,0.0,0.0,0.0,0.0,0.0,0.0,0.0,0.0,0.0,0.0,0.0,0.0,0.0,0.0,0.0,0.0,0.0,0.0,0.0,0.0,0.0,0.0,0.0,0.0,0.0,0.0,0.0,0.0,0.0,0.0,0.0,0.0,0.0,0.0,0.0,0.0,0.0,0.0,0.0,0.0,0.0,0.0,0.0,0.0,0.0,0.0,0.0,0.0,0.0,0.0,0.0,0.0,0.0,0.0,0.0,0.0,0.0,0.0,0.0,0.0,0.0,0.0,0.0,0.0,0.0,0.0,0.0,0.0,0.0,0.0,0.0,0.0,0.0,0.0,0.0,0.0,0.0,0.0,0.0,0.0,0.0,0.0,0.0,0.0,0.0,0.0,0.0,0.0,0.0,0.0,0.0,0.0,0.0,0.0,0.0,0.0,0.0,0.0,0.0,0.0,0.0,0.0,0.0,0.0,0.0,0.0,0.0,0.0,0.0,0.0,0.0,0.0,0.0,0.0,0.0,0.0,0.0,0.0,0.0,0.0,0.0,0.0,0.0,0.0,0.0,0.0,0.0,0.0,0.0,0.0,0.0,0.0,0.0,0.0,0.0,0.0,0.0,0.0,0.0,0.0,0.0,0.0,0.0,0.0,0.0,0.0,0.0,0.0,0.0,0.0,0.0,0.0,0.0,0.0,0.0,0.0,0.0,0.0,0.0,0.0,0.0,0.0,0.0,0.0,0.0,0.0,0.0,0.0,0.0,0.0,0.0,0.0,0.0,0.0,0.0,0.0,0.0,0.0,0.0,0.0,0.0,0.0,0.0,0.0,0.0,0.0,0.0,0.0,0.0,0.0,0.0,0.0,0.0,0.0,0.0,0.0,0.0,0.0,0.0,0.0,0.0,0.0,0.0,0.0,0.0,0.0,0.0,0.0,0.0,0.0,0.0,0.0,0.0,0.0,0.0,0.0,0.0,0.0,0.0,0.0,0.0,0.0,0.0,0.0,0.0,0.0,0.0,0.0,0.0,0.0,0.0,0.0,0.0,0.0,0.0,0.0,0.0,0.0,0.0,0.0,0.0,0.0,0.0,0.0,0.0,0.0,0.0,0.0,0.0,0.0,0.0,0.0,0.0,0.0,0.0,0.0,0.0,0.0,0.0,0.0,0.0,0.0,0.0,0.0,0.0,0.0,0.0,0.0,0.0,0.0,0.0,0.0,0.0,0.0,0.0,0.0,0.0,0.0,0.0,0.0,0.0,0.0,0.0,0.0,0.0,0.0,0.0,0.0,0.0,0.0,0.0,0.0,0.0,0.0,0.0,0.0,0.0,0.0,0.0,0.0,0.0,0.0,0.0,0.0,0.0,0.0,0.0,0.0,0.0,0.0,0.0,0.0,0.0,0.0,0.0,0.0,0.0,0.0,0.0,0.0,0.0,0.0,0.0,0.0,0.0,0.0,0.0,0.0,0.0,0.0,0.0,0.0,0.0,0.0,0.0,0.0,0.0,0.0,0.0,0.0,0.0,0.0,0.0,0.0,0.0,0.0,0.0,0.0,0.0,0.0,0.0,0.0,0.0,0.0,0.0,0.0,0.0,0.0,0.0,0.0,0.0,0.0,0.0,0.0,0.0,0.0,0.0,0.0,0.0,0.0,0.0,0.0,0.0,0.0,0.0,0.0,0.0,0.0,0.0,0.0,0.0,0.0,0.0,0.0,0.0,0.0,0.0,0.0,0.0,0.0,0.0,0.0,0.0,0.0,0.0,0.0,0.0,0.0,0.0,0.0,0.0,0.0,0.0,0.0,0.0,0.0,0.0,0.0,0.0,0.0,0.0,0.0,0.0,0.0,0.0,0.0,0.0,0.0,0.0,0.0,0.0,0.0,0.0,0.0,0.0,0.0,0.0,0.0,0.0,0.0,0.0,0.0,0.0,0.0,0.0,0.0,0.0,0.0,0.0,0.0,0.0,0.0,0.0,0.0,0.0,0.0,0.0,0.0,0.0,0.0,0.0,0.0,0.0,0.0,0.0,0.0,0.0,0.0,0.0,0.0,0.0,0.0,0.0,0.0,0.0,0.0,0.0,0.0,0.0,0.0,0.0,0.0,0.0,0.0,0.0,0.0,0.0,0.0,0.0,0.0,0.0,0.0,0.0,0.0,0.0,0.0,0.0,0.0,0.0,0.0,0.0,0.0,0.0,0.0,0.0,0.0,0.0,0.0,0.0,0.0,0.0,0.0,0.0,0.0,0.0,0.0,0.0,0.0,0.0,0.0,0.0,0.0,0.0,0.0,0.0,0.0,0.0,0.0,0.0,0.0,0.0,0.0,0.0,0.0,0.0,0.0,0.0,0.0,0.0,0.0,0.0,0.0,0.0,0.0,0.0,0.0,0.0,0.0,0.0,0.0,0.0,0.0,0.0,0.0,0.0,0.0,0.0,0.0,0.0,0.0,0.0,0.0,0.0,0.0,0.0,0.0,0.0,0.0,0.0,0.0,0.0,0.0,0.0,0.0,0.0,0.0,0.0,0.0,0.0,0.0,0.0,0.0,0.0,0.0,0.0,0.0,0.0,0.0,0.0,0.0,0.0,0.0,0.0,0.0,0.0,0.0,0.0,0.0,0.0,0.0,0.0,0.0,0.0,0.0,0.0,0.0,0.0,0.0,0.0,0.0,0.0,0.0,0.0,0.0,0.0,0.0,0.0,0.0,0.0,0.0,0.0,0.0,0.0,0.0,0.0,0.0,0.0,0.0,0.0,0.0,0.0,0.0,0.0,0.0,0.0,0.0,0.0,0.0,0.0,0.0,0.0,0.0,0.0,0.0,0.0,0.0,0.0,0.0,0.0,0.0,0.0,0.0,0.0,0.0,0.0,0.0,0.0,0.0,0.0,0.0,0.0,0.0,0.0,0.0,0.0,0.0,0.0,0.0,0.0,0.0,0.0,0.0,0.0,0.0,0.0,0.0,0.0,0.0,0.0,0.0,0.0,0.0,0.0,0.0,0.0,0.0,0.0,0.0,0.0,0.0,0.0,0.0,0.0,0.0,0.0,0.0,0.0,0.0,0.0,0.0,0.0,0.0,0.0,0.0,0.0,0.0,0.0,0.0,0.0,0.0,0.0,0.0,0.0,0.0,0.0,0.0,0.0,0.0,0.0,0.0,0.0,0.0,0.0,0.0,0.0,0.0,0.0,0.0,0.0,0.0,0.0,0.0,0.0,0.0,0.0,0.0,0.0,0.0,0.0,0.0,0.0,0.0,0.0,0.0,0.0,0.0,0.0,0.0,0.0,0.0,0.0,0.0,0.0,0.0,0.0,0.0,0.0,0.0,0.0,0.0,0.0,0.0,0.0,0.0,0.0,0.0,0.0,0.0,0.0,0.0,0.0,0.0,0.0,0.0,0.0,0.0,0.0,0.0,0.0,0.0,0.0,0.0,0.0,0.0,0.0,0.0,0.0,0.0,0.0,0.0,0.0,0.0,0.0,0.0,0.0,0.0,0.0,0.0,0.0,0.0,0.0,0.0,0.0,0.0,0.0,0.0,0.0,0.0,0.0,0.0,0.0,0.0,0.0,0.0,0.0,0.0,0.0,0.0,0.0,0.0,0.0,0.0,0.0,0.0,0.0,0.0,0.0,0.0,0.0,0.0,0.0,0.0,0.0,0.0,0.0,0.0,0.0,0.0,0.0,0.0,0.0,0.0,0.0,0.0,0.0,0.0,0.0,0.0,0.0,0.0,0.0,0.0,0.0,0.0,0.0,0.0,0.0,0.0,0.0,0.0,0.0,0.0,0.0,0.0,0.0,0.0,0.0,0.0,0.0,0.0,0.0,0.0,0.0,0.0,0.0,0.0,0.0,0.0,0.0,0.0,-1.2859,0.0,0.0,0.0,0.0,0.0,0.0,0.0,0.0,0.0,0.0,0.0,0.0,0.0,0.0,0.0,0.0,0.0,0.0,0.0,0.0,0.0,0.0,0.0,0.0,0.0,0.0,0.0,0.0,0.0,0.0,0.0,0.0,0.0,0.0,0.0,0.0,0.0,0.0,0.0,0.0,0.0,0.0,0.0,0.0,0.0,0.0,0.0,0.0,0.0,0.0,0.0,0.0,0.0,0.0,0.0,0.0,0.0,0.0,0.0,0.0,0.0,0.0,0.0,0.0,0.0,0.0,0.0,0.0,0.0,0.0,0.0,0.0,0.0,0.0,0.0,0.0,0.0,0.0,0.0,0.0,0.0,0.0,0.0,0.0,0.0,0.0,0.0,0.0,0.0,0.0,0.0,0.0,0.0,0.0,0.0,0.0,0.0,0.0,0.0,0.0,0.0,0.0,0.0,0.0,0.0,0.0,0.0,0.0,0.0,0.0,0.0,0.0,0.0,0.0,0.0,0.0,-1.3734,0.0,0.0,0.0,0.0,0.0,0.0,0.0,0.0,0.0,0.0,0.0,0.0,0.0,0.0,0.0,0.0,0.0,0.0,0.0,0.0,0.0,0.0,0.0,0.0,0.0,0.0,0.0,0.0,0.0,0.0,0.0,0.0,0.0,0.0,0.0,0.0,0.0,0.0,0.0,0.0,0.0,0.0,0.0,0.0,0.0,0.0,0.0,0.0,0.0,0.0,0.0,0.0,0.0,0.0,0.0,0.0,0.0,0.0,0.0,0.0,0.0,0.0,0.0,0.0,0.0,0.0,0.0,0.0,0.0,0.0,0.0,0.0,0.0,0.0,0.0,0.0,0.0,0.0,0.0,0.0,0.0,0.0,0.0,0.0,0.0,0.0,0.0,0.0,0.0,0.0,0.0,0.0,0.0,0.0,0.0,0.0,0.0,0.0,0.0,0.0,0.0,0.0,0.0,0.0,0.0,0.0,0.0,0.0,0.0,0.0,-1.773,-1.833,-1.8387,-1.7942,-1.6493,-1.6176,-1.6386,0.0,0.0,0.0,0.0,0.0,0.0,0.0,0.0,0.0,0.0,0.0,0.0,0.0,0.0,0.0,0.0,0.0,0.0,0.0,0.0,0.0,0.0,0.0,0.0,0.0,0.0,0.0,0.0,0.0,0.0,0.0,0.0,0.0,0.0,0.0,0.0,0.0,0.0,-1.5229,-1.5254,-1.5157,-1.4558,-1.3393,-1.1396,0.0,0.0,0.0,0.0,0.0,0.0,0.0,0.0,0.0,0.0,0.0,0.0,0.0,0.0,0.0,0.0,0.0,0.0,0.0,0.0,0.0,0.0,0.0,0.0,0.0,0.0,0.0,0.0,0.0,0.0,0.0,0.0,0.0,0.0,0.0,0.0,0.0,0.0,0.0,0.0,0.0,0.0,0.0,-1.6652,-1.6502,0.0,0.0,0.0,0.0,0.0,0.0,0.0,0.0,0.0,0.0,0.0,0.0,0.0,0.0,-1.8924,-1.9013,-1.9264,-1.9716,-2.0156,-2.0246,-2.0134,-2.0033,-1.9851,-1.9601,-1.9163,0.0,-1.6766,-1.5752,0.0,0.0,0.0,0.0,0.0,0.0,0.0,0.0,0.0,0.0,0.0,0.0,0.0,0.0,0.0,0.0,0.0,0.0,0.0,0.0,0.0,0.0,0.0,0.0,0.0,0.0,0.0,0.0,0.0,0.0,0.0,0.0,0.0,0.0,0.0,0.0,-1.6367,-1.7226,-1.76,-1.6703,-1.6053,-1.5418,-1.3566,-1.2026,-1.0685,-0.964,0.0,0.0,0.0,0.0,0.0,0.0,0.0,0.0,0.0,0.0,0.0,0.0,0.0,0.0,0.0,0.0,0.0,0.0,0.0,0.0,0.0,0.0,0.0,0.0,0.0,0.0,0.0,0.0,0.0,0.0,0.0,0.0,0.0,0.0,0.0,0.0,0.0,0.0,0.0,-1.6017,-1.7664,-1.8389,-1.7787,-1.7011,0.0,0.0,0.0,0.0,0.0,0.0,0.0,0.0,0.0,-1.9503,-1.9672,-2.0114,-2.1011,-2.0927,-2.0913,-2.106,-2.1308,-2.1392,-2.1309,-2.1228,-2.0976,-2.0642,-2.0561,-1.9916,-1.8852,-1.756,-1.6524,-1.5655,0.0,0.0,0.0,0.0,0.0,-1.3071,0.0,0.0,0.0,0.0,0.0,0.0,0.0,0.0,0.0,0.0,0.0,0.0,0.0,0.0,0.0,-1.5494,0.0,0.0,0.0,0.0,0.0,0.0,0.0,0.0,0.0,0.0,0.0,-1.798,-1.8061,-1.8415,-1.893,-1.7427,-1.6581,-1.6163,-1.4887,-1.3461,-1.1969,-1.0968,-0.9976,0.0,0.0,0.0,0.0,0.0,0.0,0.0,0.0,0.0,0.0,0.0,0.0,0.0,0.0,0.0,0.0,0.0,0.0,0.0,0.0,0.0,0.0,0.0,0.0,0.0,0.0,0.0,0.0,0.0,0.0,0.0,0.0,0.0,0.0,0.0,0.0,0.0,0.0,-1.7532,-1.9071,-2.0261,-1.9939,-1.9298,0.0,0.0,0.0,0.0,0.0,0.0,-1.9957,-2.094,-2.1574,-2.1699,-2.1836,-2.2125,-2.2754,-2.2391,-2.2091,-2.194,-2.194,-2.1969,-2.1885,-2.1792,-2.1617,-2.1182,-2.1182,-2.0848,-2.0429,-1.907,-1.8168,-1.7383,-1.6594,-1.5774,-1.5103,-1.4824,-1.4775,-1.4844,0.0,0.0,0.0,0.0,0.0,0.0,0.0,0.0,0.0,0.0,0.0,0.0,0.0,0.0,-1.8141,-1.8634,-1.8734,-1.8043,0.0,0.0,0.0,0.0,0.0,0.0,0.0,0.0,0.0,-1.8871,-1.8496,-1.8248,-1.8101,-1.6523,-1.5549,-1.5173,-1.5096,-1.4547,-1.3603,-1.2284,-1.1482,-1.1024,0.0,0.0,0.0,0.0,0.0,0.0,0.0,0.0,0.0,0.0,0.0,0.0,0.0,0.0,0.0,0.0,0.0,0.0,0.0,0.0,0.0,0.0,0.0,0.0,0.0,0.0,0.0,0.0,0.0,0.0,0.0,0.0,0.0,0.0,0.0,0.0,0.0,0.0,0.0,-2.2065,-2.2462,0.0,0.0,0.0,0.0,-2.1163,-2.2209,-2.2704,-2.2432,-2.3879,-2.4344,-2.358,-2.367,-2.37,-2.3753,-2.3353,-2.2879,-2.2483,-2.2483,-2.2257,-2.1885,-2.1607,-2.1422,-2.1182,-2.1024,-2.0773,-2.0428,-2.0009,-1.9711,-1.9534,-1.8727,-1.8267,-1.8071,-1.7494,-1.7156,-1.6904,0.0,0.0,0.0,0.0,0.0,0.0,0.0,0.0,0.0,0.0,0.0,0.0,0.0,-1.8372,-1.9922,-2.042,-2.0809,-2.0222,-1.8378,0.0,0.0,0.0,0.0,0.0,0.0,0.0,-1.8934,-2.0217,-1.9819,-1.9611,-1.9548,-1.7832,-1.685,-1.6539,-1.5211,-1.4403,-1.3932,-1.3362,-1.2449,-1.1384,-1.0408,-0.918,0.0,0.0,0.0,0.0,0.0,0.0,0.0,0.0,0.0,0.0,0.0,0.0,0.0,0.0,0.0,0.0,0.0,0.0,0.0,0.0,0.0,0.0,0.0,0.0,0.0,0.0,0.0,0.0,0.0,0.0,0.0,0.0,0.0,0.0,0.0,0.0,0.0,-2.3182,-2.3417,0.0,0.0,-2.2847,-2.3207,-2.34,-2.4723,-2.5241,-2.4613,-2.5142,-2.5045,-2.4213,-2.3982,-2.3828,-2.3828,-2.3426,-2.3084,-2.2955,-2.2955,-2.2854,-2.2695,-2.2428,-2.216,-2.1987,-2.1736,-2.1484,-2.1213,-2.1125,-2.0392,-1.9341,-1.9084,-1.8559,-1.8032,-1.7779,-1.7517,-1.735,0.0,0.0,0.0,0.0,0.0,0.0,0.0,0.0,0.0,0.0,0.0,-1.6282,-1.849,-2.0451,-2.1662,-2.1823,-2.2115,-2.1428,-1.9441,0.0,0.0,0.0,-1.3413,0.0,0.0,-1.8833,-2.0009,-2.1111,-2.0658,-2.0437,-2.0437,-1.8835,-1.784,-1.7295,-1.5929,-1.4924,-1.4292,-1.4125,-1.3345,-1.205,-1.1326,-1.0334,-0.9162,0.0,0.0,0.0,0.0,0.0,0.0,0.0,0.0,0.0,0.0,0.0,0.0,0.0,0.0,0.0,0.0,0.0,0.0,0.0,0.0,0.0,0.0,0.0,0.0,0.0,0.0,0.0,0.0,0.0,0.0,0.0,0.0,0.0,0.0,0.0,-2.3567,-2.4484,-2.4779,-2.4699,-2.435,-2.4927,-2.5336,-2.5336,-2.649,-2.6806,-2.5957,-2.6117,-2.5893,-2.5115,-2.4695,-2.4522,-2.4587,-2.4179,-2.391,-2.3861,-2.3774,-2.3652,-2.3574,-2.3306,-2.3038,-2.2858,-2.2597,-2.2335,-2.2053,-2.2053,-2.1383,-2.0164,-1.9737,-1.9021,-1.8128,-1.8128,-1.8047,-1.7796,0.0,0.0,0.0,0.0,0.0,0.0,0.0,0.0,0.0,0.0,-1.6135,-1.8983,-2.1289,-2.276,-2.3412,-2.2909,-2.2567,-2.1524,-1.9533,-1.8205,0.0,0.0,0.0,0.0,-1.9293,-2.0036,-2.0688,-2.1418,-2.0801,-2.0537,-2.0537,-1.9511,-1.839,-1.7342,-1.7033,-1.6131,-1.4734,-1.4734,-1.407,-1.3107,-1.2069,-1.1439,-1.1037,0.0,0.0,0.0,0.0,0.0,0.0,0.0,0.0,0.0,0.0,0.0,0.0,0.0,0.0,0.0,0.0,0.0,0.0,0.0,0.0,0.0,0.0,0.0,0.0,0.0,0.0,0.0,0.0,0.0,0.0,0.0,0.0,0.0,-2.3389,-2.357,-2.4502,-2.5937,-2.661,-2.6959,-2.6959,-2.6995,-2.7007,-2.7007,-2.7488,-2.7387,-2.6496,-2.6967,-2.6963,-2.626,-2.6011,-2.6059,-2.6235,-2.5715,-2.5361,-2.5178,-2.4894,-2.47,-2.4414,-2.4127,-2.3858,-2.3672,-2.342,-2.3148,-2.2857,-2.2857,-2.2564,-2.2097,-2.0784,-1.9671,-1.8843,-1.8835,-1.8651,-1.8388,0.0,0.0,0.0,0.0,0.0,0.0,0.0,0.0,0.0,0.0,-1.6721,-1.952,-2.1983,-2.2808,-2.304,-2.2567,-2.1889,-2.1063,-1.9973,0.0,0.0,0.0,0.0,0.0,-2.0291,-2.1179,-2.1734,-2.1912,-2.1583,-2.1405,-2.1405,-1.9571,-1.885,-1.9097,-1.6706,-1.565,-1.5545,-1.4657,-1.3904,-1.3304,-1.2781,-1.1989,-1.1095,0.0,0.0,0.0,0.0,0.0,0.0,0.0,0.0,0.0,0.0,0.0,0.0,0.0,0.0,0.0,0.0,0.0,0.0,0.0,0.0,0.0,0.0,0.0,0.0,0.0,0.0,0.0,0.0,0.0,0.0,0.0,0.0,-2.6804,-2.6089,-2.6408,-2.6855,-2.7225,-2.7391,-2.7512,-2.7512,-2.8198,-2.8655,-2.8655,-2.9136,-2.9012,-2.8165,-2.8207,-2.7917,-2.702,-2.659,-2.6388,-2.6515,-2.5805,-2.5361,-2.5178,-2.4894,-2.47,-2.4414,-2.3951,-2.3765,-2.3682,-2.3233,-2.296,-2.2857,-2.2857,-2.2375,-2.1553,-2.0967,-2.0323,-1.9739,-1.9015,-1.8651,-1.8481,0.0,0.0,0.0,0.0,0.0,0.0,0.0,0.0,0.0,0.0,-1.7448,-2.024,-2.2946,-2.3469,-2.3327,-2.2689,-2.2279,-2.1506,-2.022,0.0,0.0,0.0,0.0,-2.0704,-2.1371,-2.1988,-2.2101,-2.1949,-2.1883,-2.1731,-2.1655,-2.0294,-1.9831,-1.9912,-1.7733,-1.6539,-1.624,-1.5209,-1.4321,-1.3555,-1.3387,-1.2776,-1.1903,-1.1606,-1.1415,-1.1203,-1.0889,-1.0916,-1.1155,-1.1411,0.0,0.0,0.0,0.0,0.0,0.0,0.0,0.0,0.0,0.0,0.0,0.0,0.0,0.0,0.0,0.0,0.0,0.0,0.0,0.0,0.0,0.0,0.0,0.0,-2.8195,-2.9472,-2.9261,-2.9014,-2.9,-2.9152,-2.9139,-2.909,-2.909,-2.9419,-2.9629,-2.9629,-2.9965,-2.9824,-2.9022,-2.8847,-2.8421,-2.7634,-2.7099,-2.6918,-2.6925,-2.629,-2.5825,-2.5732,-2.5357,-2.5065,-2.4772,-2.4393,-2.4107,0.0,-2.3638,-2.3455,-2.3455,-2.3455,-2.306,0.0,0.0,0.0,0.0,0.0,-1.917,-1.9083,0.0,0.0,0.0,0.0,0.0,0.0,0.0,0.0,0.0,0.0,0.0,-2.0852,-2.3966,-2.4292,-2.3884,-2.2896,-2.2947,-2.2211,0.0,0.0,0.0,-2.1051,-2.1171,-2.155,-2.2371,-2.2402,-2.2176,-2.1807,-2.1807,-2.1731,-2.1502,-2.1245,-2.083,-2.0348,-1.9343,-1.8237,-1.6938,-1.6111,-1.4985,-1.3815,-1.373,-1.3483,-1.3087,-1.2606,-1.2667,-1.2883,-1.2107,-1.2184,-1.2713,-1.3271,0.0,0.0,0.0,0.0,0.0,0.0,0.0,0.0,0.0,0.0,0.0,0.0,0.0,0.0,0.0,0.0,0.0,0.0,0.0,0.0,0.0,0.0,0.0,0.0,-3.0798,-3.232,-3.2269,-3.1496,-3.0996,-3.1279,-3.1271,-3.1215,-3.1215,-3.0626,-3.0266,-3.0181,-3.028,-3.0027,-2.9461,0.0,0.0,0.0,0.0,-2.7315,-2.7347,-2.6784,-2.6496,-2.6496,-2.5927,-2.5538,-2.5333,-2.503,-2.4735,-2.4538,-2.4251,-2.4152,-2.4152,-2.4152,-2.4152,-2.3872,-2.2136,-2.087,-1.9868,-1.9868,-1.9868,0.0,0.0,0.0,0.0,0.0,0.0,0.0,0.0,0.0,0.0,-1.5643,-1.8208,-2.0852,-2.3966,-2.4047,-2.3505,-2.2555,-2.2007,-2.1259,0.0,0.0,-2.1479,-2.1661,-2.2099,-2.2348,-2.2402,-2.2252,-2.2025,-2.1807,-2.1807,-2.1807,-2.1741,-2.0968,-2.0934,-2.1441,-1.9543,-1.8733,-1.8702,-1.6759,-1.5462,-1.4713,-1.3977,-1.3568,-1.33,-1.3193,-1.3239,-1.3297,-1.3296,-1.3722,-1.4282,-1.4728,-1.5593,-1.6669,-1.7327,0.0,0.0,0.0,0.0,0.0,0.0,0.0,0.0,0.0,0.0,0.0,0.0,0.0,0.0,0.0,0.0,0.0,0.0,0.0,0.0,-3.0473,-3.1965,-3.3091,-3.3522,-3.3759,-3.3449,-3.2107,-3.1852,-3.1776,-3.1776,-3.1516,-3.1185,-3.0732,-3.0749,-3.0348,-2.9534,-2.9442,0.0,-2.829,-2.8006,-2.7725,-2.7536,-2.688,-2.6496,-2.6496,0.0,0.0,-2.5333,-2.503,-2.4735,-2.4538,-2.4251,-2.4152,-2.4152,-2.4152,-2.3646,-2.2785,-2.2128,-2.1087,-1.9868,-1.9868,-1.9868,-1.9868,0.0,0.0,0.0,0.0,0.0,0.0,0.0,0.0,0.0,0.0,-1.6851,-1.9611,-2.2938,-2.2884,-2.2557,-2.2452,-2.1542,0.0,0.0,-2.2005,-2.234,-2.2928,-2.2875,-2.2703,-2.2402,-2.2327,-2.2101,-2.1807,-2.1807,-2.1731,-2.1665,-2.1085,-2.1145,-2.161,-2.008,-1.9372,-1.9197,-1.7736,-1.6437,-1.5137,-1.4727,-1.4237,-1.3737,-1.3568,-1.3652,-1.3743,-1.3984,-1.4405,-1.5025,-1.5836,-1.6971,-1.8244,-1.9471,-2.0183,-2.0471,0.0,0.0,0.0,0.0,0.0,0.0,0.0,0.0,0.0,0.0,0.0,0.0,0.0,0.0,-2.628,0.0,0.0,-3.0432,-3.1938,-3.2928,-3.3715,-3.4312,-3.4651,-3.447,-3.3595,-3.3329,-3.3193,-3.2857,-3.2179,-3.156,-3.0949,-3.0487,-3.0034,-2.9485,-2.9301,-2.8839,-2.8196,-2.8092,-2.7809,-2.7452,-2.6784,-2.6496,-2.6496,-2.5927,-2.5538,-2.5137,-2.4932,-2.4735,-2.4341,-2.4251,-2.4152,-2.4152,-2.4152,-2.3546,-2.2509,-2.2321,-2.1537,-2.0392,-2.0392,-2.0392,-2.0392,0.0,0.0,0.0,0.0,0.0,0.0,0.0,0.0,0.0,0.0,-1.5223,-1.7923,-2.1247,-2.1192,-2.1094,0.0,0.0,0.0,0.0,-2.2791,-2.3068,-2.4051,-2.3559,-2.299,-2.2402,-2.2402,-2.2176,-2.1807,-2.1807,-2.1731,-2.1578,-2.1363,-2.136,-2.1521,-2.078,-2.0165,-1.9534,-1.8717,-1.7415,-1.5884,-1.5718,-1.5151,-1.4334,-1.4159,-1.4075,-1.4166,-1.4321,-1.4741,-1.5325,-1.6624,-1.7908,-1.9325,-2.1191,-2.2244,-2.2753,-2.2121,-2.2551,0.0,0.0,0.0,0.0,0.0,0.0,0.0,0.0,0.0,-2.7212,-2.7387,-2.8121,-2.9075,-3.0147,-3.1151,-3.2155,-3.3227,-3.381,-3.4248,-3.4923,-3.5004,-3.5004,-3.5004,-3.4847,-3.4468,-3.3966,-3.2932,-3.1977,-3.1282,-3.0295,-2.9749,-2.9658,-2.9024,-2.8466,-2.7998,-2.7998,-2.7726,-2.7272,-2.6784,-2.6496,-2.64,-2.5927,-2.544,-2.4932,-2.4932,-2.4646,-2.4152,-2.4152,-2.4152,-2.4152,-2.4152,-2.3546,-2.2526,-2.2526,-2.1827,-2.0925,-2.0925,-2.0925,-2.0925,0.0,0.0,0.0,0.0,0.0,0.0,0.0,0.0,0.0,0.0,0.0,0.0,0.0,0.0,0.0,0.0,0.0,0.0,-2.2185,-2.3604,-2.4323,-2.4146,-2.4047,-2.3475,-2.2402,-2.2402,-2.2176,-2.1807,-2.1807,-2.1807,-2.1741,-2.1754,-2.1729,-2.1769,-2.1341,-2.0861,-2.0376,-1.9128,-1.823,-1.7674,-1.6862,-1.6049,-1.5228,-1.5401,-1.4908,-1.4166,-1.4321,-1.4817,-1.556,-1.6854,-1.8141,-1.9571,-2.1431,-2.2881,-2.3684,-2.3084,0.0,-2.287,-2.1707,-2.2956,-2.4755,-2.5572,-2.7131,-2.8739,0.0,0.0,-3.0839,-3.2384,-3.2636,-3.2671,-3.3322,-3.349,-3.3788,-3.4529,-3.4692,-3.4936,-3.5533,-3.5615,-3.5615,-3.5615,-3.5087,-3.4634,-3.4634,-3.3797,-3.3031,-3.2463,-3.1323,-3.0531,-3.017,-2.9013,-2.829,-2.7998,-2.7809,-2.7452,-2.6996,-2.6699,-2.64,-2.61,-2.583,-2.544,-2.4932,-2.4932,-2.4646,-2.4152,-2.4152,-2.4152,-2.4152,-2.4152,-2.3546,-2.2526,-2.2526,-2.1827,-2.0925,-2.0925,-2.0925,-2.0925,0.0,0.0,0.0,0.0,0.0,0.0,0.0,0.0,0.0,0.0,0.0,0.0,0.0,0.0,0.0,0.0,0.0,0.0,-2.224,-2.3801,-2.493,-2.5438,-2.4552,-2.3756,-2.3032,-2.2617,-2.2176,-2.1807,-2.1807,-2.1807,-2.1807,-2.1541,-2.1477,-2.1399,-2.1007,-2.0682,-2.0356,-1.9692,-1.8886,-1.8149,-1.7666,-1.7017,-1.6355,-1.6445,-1.6281,-1.5854,-1.5025,-1.4837,0.0,0.0,-1.8073,-1.9326,-2.2062,-2.3374,-2.3886,-2.4242,-2.5049,-2.6108,-2.7446,-2.7523,0.0,0.0,-3.176,-3.2634,-3.2704,-3.3003,-3.3431,-3.3704,-3.3642,-3.3647,-3.3829,-3.4153,-3.4543,0.0,-3.5113,-3.5425,-3.5683,-3.571,-3.5629,-3.5562,-3.5304,-3.4977,-3.4551,-3.3953,-3.2993,-3.1677,-3.089,-3.0181,-2.9463,-2.8746,-2.829,-2.7998,-2.7726,-2.7357,-2.69,-2.6602,-2.64,-2.61,-2.582,-2.544,-2.4932,-2.4932,-2.4646,-2.4152,-2.4152,-2.4152,-2.4152,-2.4152,-2.3737,-2.2929,-2.2627,-2.2021,-2.1326,-2.1019,-2.0925,-2.0925,0.0,0.0,0.0,0.0,0.0,0.0,0.0,0.0,0.0,0.0,0.0,0.0,0.0,0.0,0.0,0.0,0.0,0.0,0.0,-2.3695,-2.5076,-2.6206,-2.5262,-2.4397,-2.3588,-2.3032,-2.2467,-2.1873,-2.1807,-2.1807,-2.1807,-2.1359,-2.1205,-2.1205,-2.0809,-2.0489,-2.0264,-2.002,-1.945,-1.8638,-1.8487,-1.7989,-1.7407,-1.7488,-1.7371,-1.6932,-1.5587,-1.5131,0.0,0.0,-1.7557,-1.8562,-2.1489,-2.2718,-2.3211,-2.4041,-2.5761,-2.7988,-3.0609,0.0,0.0,-3.368,-3.4824,-3.5121,-3.4724,-3.4801,-3.4794,-3.438,-3.419,-3.4167,-3.4329,-3.4923,0.0,-3.502,-3.5494,-3.5818,-3.5575,-3.5562,-3.548,-3.5318,-3.5318,-3.5072,-3.4577,-3.4217,-3.342,-3.2127,-3.1146,-3.026,-2.9635,-2.8746,-2.8196,-2.7998,-2.7726,-2.7262,-2.6794,-2.6602,-2.6304,-2.6004,-2.583,-2.544,-2.4932,-2.4745,-2.4548,-2.4152,-2.4152,-2.4152,-2.4152,-2.4152,-2.3845,-2.3229,-2.2828,-2.2325,-2.1623,-2.1224,-2.1027,-2.0925,0.0,0.0,0.0,0.0,0.0,0.0,0.0,0.0,0.0,0.0,0.0,0.0,0.0,0.0,0.0,0.0,0.0,0.0,0.0,-2.3201,-2.4775,-2.58,-2.6126,-2.5545,-2.3818,-2.3599,-2.3021,-2.2111,-2.1883,-2.1807,-2.1807,-2.1359,-2.1205,-2.1205,-2.0809,-2.0489,-2.0264,-2.002,-1.9784,-1.9566,-1.9557,-1.9054,-1.8301,-1.8789,-1.7926,-1.637,-1.5996,0.0,0.0,-1.6076,-1.6524,-1.7187,-1.9038,-2.0357,-2.1279,-2.1668,-2.3989,-2.6806,0.0,0.0,-3.2551,-3.4013,-3.4534,-3.4868,-3.5539,-3.5036,-3.472,-3.5223,-3.5036,-3.4977,-3.556,-3.6144,-3.6279,-3.5548,-3.587,-3.5975,-3.5248,-3.5086,-3.5086,-3.5086,-3.5086,-3.499,0.0,-3.4756,-3.4756,-3.4673,-3.2722,-3.1577,-3.1488,-2.9257,-2.7998,-2.7998,-2.7536,-2.7071,-2.6496,-2.6496,-2.6217,-2.5732,-2.5742,-2.544,-2.4833,-2.4449,-2.4251,-2.4152,-2.4152,-2.4152,-2.4152,-2.4152,-2.3845,-2.3329,-2.3329,-2.2627,-2.1725,-2.1725,-2.1326,-2.0925,0.0,0.0,0.0,0.0,0.0,0.0,0.0,0.0,0.0,0.0,0.0,0.0,0.0,0.0,0.0,0.0,0.0,0.0,0.0,-2.1807,-2.3879,-2.526,-2.5766,-2.5524,-2.4601,-2.3879,-2.3021,-2.2101,-2.1883,-2.1807,-2.1807,-2.1359,-2.1205,-2.1205,-2.0809,-2.0566,-2.0489,-2.0264,-2.0108,-2.0029,-1.9872,-1.9696,-1.9552,-1.9164,-1.8704,-1.8128,0.0,0.0,0.0,-1.5337,-1.6034,-1.7091,-1.9361,-2.0511,-2.1376,-2.3428,-2.5183,-2.7107,-3.0001,0.0,-3.2897,-3.4292,-3.5339,-3.5949,-3.5549,-3.562,-3.5747,-3.5623,-3.5178,-3.4774,-3.457,-3.4873,-3.4995,-3.4324,-3.4982,-3.5381,-3.5112,-3.5086,-3.5086,-3.4921,-3.4921,0.0,0.0,0.0,0.0,-3.3687,-3.2895,-3.1928,-3.0519,-2.9429,-2.8516,-2.7726,-2.7262,-2.689,-2.6496,-2.6294,-2.6014,-2.5742,-2.5333,-2.503,-2.4833,-2.4449,-2.4152,-2.4152,-2.4152,-2.4152,-2.4152,-2.4152,-2.4044,-2.3845,-2.3438,-2.2828,-2.2232,-2.1818,-2.1326,-2.0925,0.0,0.0,0.0,0.0,0.0,0.0,0.0,0.0,0.0,0.0,0.0,0.0,0.0,0.0,0.0,0.0,0.0,0.0,0.0,0.0,-2.1915,-2.3566,-2.4266,-2.4356,-2.3833,-2.3237,-2.2688,-2.2258,-2.1933,-2.1959,-2.2176,-2.1502,-2.1205,-2.1205,-2.0809,-2.0566,-2.0566,-2.042,-2.0264,-2.0235,-1.9774,-1.9659,-1.9716,-1.9015,-1.8545,0.0,0.0,0.0,0.0,-1.4956,-1.6029,-1.7508,-1.9806,-2.1486,-2.3033,-2.5001,-2.6626,-2.8411,-3.1338,-3.269,-3.3605,-3.5068,-3.5847,-3.6136,-3.5806,-3.5943,-3.6058,-3.5723,-3.5072,-3.4316,-3.3937,-3.42,-3.4325,-3.3871,-3.4619,-3.5213,-3.5143,-3.4971,-3.4825,-3.466,-3.4673,0.0,0.0,0.0,0.0,-3.3602,-3.3164,-3.219,-3.0429,-2.9681,-2.8877,-2.7631,-2.7177,-2.6794,-2.6496,-2.6197,-2.6014,-2.5732,-2.5137,-2.4932,-2.4833,-2.4449,-2.4152,-2.4152,-2.4152,-2.4152,-2.4152,-2.4152,-2.4152,-2.4152,-2.3737,-2.3229,-2.2728,-2.2426,-2.1827,-2.1121,0.0,0.0,0.0,0.0,0.0,0.0,0.0,0.0,0.0,0.0,0.0,0.0,0.0,0.0,0.0,0.0,0.0,0.0,0.0,0.0,0.0,-2.0731,-2.176,-2.2052,-2.1648,-2.1698,-2.2016,-2.2422,-2.1889,-2.204,-2.2698,-2.16,-2.1004,-2.1004,-2.0602,-2.0458,-2.04,-2.0256,-2.0178,-2.0111,-1.9235,-1.8899,-1.8856,-1.8252,0.0,0.0,0.0,0.0,0.0,-1.5034,0.0,-1.8547,-2.034,-2.3121,-2.5775,-2.6228,-2.8025,-3.0372,-3.2681,-3.3817,-3.4677,-3.6234,-3.6017,-3.5581,-3.6188,-3.6058,-3.571,-3.571,-3.4719,-3.3815,0.0,0.0,-3.4338,-3.4193,-3.4974,-3.5463,-3.5247,-3.4763,-3.4397,0.0,0.0,0.0,0.0,0.0,0.0,-3.4397,0.0,-3.2451,-3.1211,-3.0045,-2.8877,-2.7631,-2.7081,-2.6794,-2.6496,-2.6197,-2.5917,-2.5732,-2.5137,-2.4932,-2.4833,-2.4449,-2.4152,-2.4152,-2.4152,-2.4152,-2.4152,-2.4152,-2.4152,-2.4152,-2.4152,-2.3836,-2.3329,-2.3329,-2.2627,-2.1623,0.0,0.0,0.0,0.0,0.0,0.0,0.0,0.0,0.0,0.0,0.0,0.0,0.0,0.0,0.0,0.0,0.0,0.0,0.0,0.0,0.0,0.0,0.0,0.0,-2.0365,-2.0349,-2.0146,-1.9823,-1.9648,-1.9523,-1.948,-1.8961,-1.8623,-1.8492,-1.8019,-1.8016,-1.8331,-1.8203,-1.8125,-1.8105,0.0,-1.7666,-1.7331,0.0,0.0,0.0,0.0,0.0,0.0,0.0,0.0,0.0,0.0,-2.4655,-2.6219,-2.7815,-2.9334,-3.0999,-3.3352,-3.4538,-3.5294,-3.5995,-3.62,-3.6119,-3.5937,-3.5804,-3.571,-3.571,-3.4068,-3.2962,0.0,0.0,0.0,-3.3728,-3.4383,0.0,-3.4633,-3.4502,0.0,0.0,0.0,-3.4397,-3.4397,-3.4397,0.0,0.0,-3.3335,-3.2178,-3.1009,-2.9772,-2.862,-2.7441,-2.688,-2.6602,-2.6496,-2.6024,-2.5732,-2.5732,-2.5137,-2.4932,-2.4833,-2.4449,-2.4152,-2.4152,-2.4152,-2.4152,-2.4152,-2.4152,-2.4152,-2.4152,-2.4152,-2.3836,-2.3329,-2.3329,-2.2627,-2.1725,0.0,0.0,0.0,0.0,0.0,0.0,0.0,0.0,0.0,0.0,0.0,0.0,0.0,0.0,0.0,0.0,0.0,0.0,0.0,0.0,0.0,0.0,0.0,-1.7952,-1.8056,-1.8121,-1.8248,-1.8354,-1.8123,0.0,0.0,-1.7465,-1.7119,-1.6999,-1.6628,-1.6685,-1.705,-1.6943,0.0,0.0,0.0,0.0,0.0,0.0,0.0,0.0,0.0,0.0,0.0,0.0,0.0,-2.4013,-2.5692,-2.7138,-2.8317,-2.9085,0.0,-3.2031,-3.3767,-3.472,-3.5366,-3.6031,-3.6129,-3.5922,-3.5058,-3.4733,-3.4326,-3.3552,-3.1825,0.0,0.0,0.0,0.0,0.0,0.0,0.0,-3.5077,-3.4711,-3.4397,0.0,-3.4397,0.0,-3.4397,-3.4397,-3.4397,0.0,0.0,-3.2079,-3.0897,-2.9692,-2.8538,-2.7357,-2.6784,-2.64,-2.612,-2.583,-2.5742,-2.5732,-2.5137,-2.4932,-2.4833,-2.4449,-2.4152,-2.4152,0.0,-2.4152,-2.4152,-2.4152,-2.4152,-2.4152,-2.4152,-2.3945,-2.3737,-2.3737,-2.3138,-2.2325,0.0,0.0,0.0,0.0,0.0,0.0,0.0,0.0,0.0,0.0,0.0,0.0,0.0,0.0,0.0,0.0,0.0,0.0,0.0,0.0,0.0,0.0,0.0,-1.5197,-1.5467,-1.5692,-1.6253,-1.7204,0.0,0.0,0.0,0.0,0.0,0.0,0.0,0.0,0.0,0.0,0.0,0.0,0.0,0.0,0.0,0.0,0.0,0.0,0.0,0.0,0.0,0.0,-2.4331,-2.648,-2.7988,-2.9574,-3.079,-3.0,-3.1249,-3.3068,-3.4025,-3.459,-3.5165,-3.6188,-3.6058,-3.5384,-3.4122,-3.3308,-3.2318,-3.054,0.0,0.0,-3.0659,0.0,-3.1435,-3.5134,0.0,-3.4946,-3.5861,-3.5142,-3.4489,-3.441,-3.4397,-3.4397,-3.4397,-3.4397,-3.4314,-3.4076,-3.3091,-3.2003,-3.0819,-2.951,-2.8351,-2.7262,-2.6784,-2.6207,-2.5742,-2.5742,-2.5742,-2.5732,-2.5235,-2.4932,-2.4932,-2.4449,-2.4251,-2.4251,0.0,0.0,-2.4152,-2.4152,-2.4152,-2.4152,-2.4152,-2.4152,-2.4152,-2.4152,-2.3845,-2.3229,0.0,0.0,0.0,0.0,0.0,0.0,0.0,0.0,0.0,0.0,0.0,0.0,0.0,0.0,0.0,0.0,0.0,0.0,0.0,0.0,0.0,0.0,-1.3337,-1.4008,-1.4287,-1.4349,0.0,0.0,0.0,0.0,0.0,0.0,0.0,0.0,0.0,0.0,0.0,0.0,0.0,0.0,0.0,0.0,0.0,0.0,0.0,0.0,0.0,0.0,0.0,0.0,-2.4602,-2.7654,-2.8805,-2.9821,-3.0558,-3.0738,-3.1955,-3.344,-3.4148,-3.4889,-3.5668,-3.6284,-3.6058,-3.5276,-3.3593,-3.2386,0.0,0.0,0.0,-2.6787,-3.1156,-3.0679,0.0,-3.5987,0.0,0.0,0.0,0.0,-3.4959,0.0,0.0,0.0,0.0,0.0,0.0,0.0,0.0,0.0,-3.0574,-2.8702,-2.7347,-2.6688,-2.6592,-2.6207,-2.5742,-2.5742,-2.5742,-2.5742,-2.5333,-2.5235,-2.5235,-2.4735,-2.443,-2.444,0.0,0.0,-2.4152,-2.4152,-2.4152,-2.4152,-2.4152,-2.4152,-2.4152,-2.4152,-2.3845,-2.3229,0.0,0.0,0.0,0.0,0.0,0.0,0.0,0.0,0.0,0.0,-1.2472,-1.211,0.0,0.0,0.0,0.0,0.0,0.0,0.0,0.0,0.0,0.0,0.0,0.0,0.0,0.0,0.0,0.0,0.0,0.0,0.0,0.0,0.0,0.0,0.0,0.0,0.0,0.0,0.0,0.0,0.0,0.0,0.0,0.0,0.0,0.0,0.0,0.0,0.0,0.0,-2.3229,-2.6533,-2.8741,-2.9819,-3.0305,-3.0761,-3.195,-3.3327,-3.3715,-3.4657,-3.571,-3.6508,-3.6191,-3.5165,-3.3228,0.0,0.0,0.0,0.0,-2.4186,-2.7459,0.0,0.0,0.0,0.0,0.0,0.0,0.0,0.0,0.0,0.0,0.0,0.0,0.0,0.0,0.0,0.0,0.0,-3.0574,-2.8434,-2.7071,-2.6496,-2.6496,-2.6207,-2.5742,-2.5742,-2.5742,-2.5742,-2.544,-2.5333,-2.5333,-2.4932,-2.4735,-2.4735,0.0,0.0,-2.4341,-2.4251,-2.4152,-2.4152,-2.4152,-2.4152,-2.4152,-2.4152,-2.4044,-2.3637,0.0,0.0,0.0,0.0,0.0,0.0,0.0,-1.1894,-1.3325,-1.39,-1.4499,-1.4285,-1.2731,-1.2057,0.0,0.0,0.0,0.0,0.0,0.0,0.0,0.0,0.0,0.0,0.0,0.0,0.0,0.0,0.0,0.0,0.0,0.0,0.0,0.0,0.0,0.0,0.0,0.0,0.0,0.0,0.0,0.0,0.0,0.0,0.0,0.0,0.0,0.0,0.0,0.0,-2.1307,-2.4305,-2.7177,-2.885,-2.9897,-3.0277,-3.1537,-3.2843,-3.3209,-3.426,-3.5548,-3.6545,-3.6163,-3.4961,-3.2723,-3.0014,0.0,0.0,-2.1752,-2.1523,-2.3537,0.0,0.0,0.0,0.0,0.0,0.0,0.0,0.0,0.0,0.0,0.0,0.0,0.0,0.0,0.0,0.0,0.0,0.0,-2.8351,-2.7071,-2.6496,-2.6496,-2.6207,-2.5742,-2.5742,-2.5742,-2.5742,-2.5538,-2.544,-2.5333,-2.5137,-2.5039,-2.4932,0.0,0.0,0.0,-2.4341,-2.4251,-2.4251,-2.4251,-2.4152,-2.4152,-2.4152,-2.4152,-2.4152,0.0,0.0,0.0,0.0,0.0,0.0,0.0,-1.2509,-1.4076,-1.511,-1.6074,-1.6085,-1.4526,-1.2775,0.0,0.0,0.0,0.0,0.0,0.0,0.0,0.0,0.0,0.0,0.0,0.0,0.0,0.0,0.0,0.0,0.0,0.0,0.0,0.0,0.0,0.0,0.0,0.0,0.0,0.0,0.0,0.0,0.0,0.0,0.0,0.0,0.0,0.0,0.0,0.0,0.0,-2.0997,-2.3019,-2.6161,-2.9089,-2.9463,0.0,0.0,-3.2856,-3.41,-3.5318,-3.6149,-3.5777,-3.4485,-3.1806,0.0,0.0,-2.1836,-1.9747,-1.9351,-2.2061,-2.3041,0.0,0.0,0.0,0.0,0.0,0.0,0.0,0.0,0.0,0.0,0.0,0.0,0.0,0.0,0.0,0.0,0.0,-2.7904,-2.7071,-2.6496,-2.6496,-2.6207,-2.5742,-2.5742,-2.5742,-2.5742,-2.5635,-2.5635,-2.5635,-2.544,-2.5235,-2.5235,0.0,0.0,0.0,-2.4529,-2.444,-2.443,-2.4251,-2.4152,-2.4152,-2.4152,-2.4152,-2.4152,0.0,0.0,0.0,0.0,0.0,0.0,0.0,-1.2954,-1.4653,-1.5301,-1.5909,-1.6004,-1.5183,-1.3304,-1.1926,0.0,0.0,0.0,0.0,0.0,0.0,0.0,0.0,0.0,0.0,0.0,0.0,0.0,0.0,0.0,0.0,0.0,0.0,0.0,0.0,0.0,0.0,0.0,0.0,0.0,0.0,0.0,0.0,0.0,0.0,0.0,0.0,0.0,0.0,0.0,0.0,0.0,-2.0268,-2.2578,0.0,0.0,-2.9965,-3.2225,-3.3329,-3.4917,-3.661,-3.7539,-3.6844,-3.5027,-3.1966,0.0,0.0,-2.1262,-1.9303,-1.8636,-1.9693,-2.0631,-2.1944,0.0,0.0,0.0,0.0,0.0,0.0,0.0,0.0,0.0,0.0,0.0,0.0,0.0,0.0,0.0,0.0,-2.8175,-2.7071,-2.6496,-2.6496,-2.6207,-2.5742,-2.5742,-2.5742,-2.5742,-2.5742,-2.5742,-2.5742,-2.5635,-2.5538,-2.5538,0.0,0.0,0.0,-2.4637,-2.4529,-2.443,-2.4251,-2.4152,-2.4152,-2.4152,-2.4152,-2.4242,0.0,0.0,0.0,0.0,0.0,0.0,-1.0868,-1.2779,-1.4323,-1.4906,-1.5453,-1.5548,-1.4845,-1.3483,-1.2272,-1.1402,0.0,0.0,0.0,0.0,0.0,0.0,0.0,0.0,0.0,0.0,0.0,0.0,0.0,0.0,0.0,0.0,0.0,0.0,0.0,0.0,0.0,0.0,0.0,0.0,0.0,0.0,0.0,0.0,0.0,0.0,0.0,0.0,0.0,0.0,0.0,0.0,0.0,0.0,0.0,0.0,-2.9125,-3.1707,-3.3612,-3.5571,-3.7295,-3.8323,-3.7049,-3.4738,0.0,0.0,-2.4567,-2.0962,-1.9101,-1.8113,-1.7985,-1.879,-1.9798,-2.0819,0.0,-2.6844,0.0,0.0,0.0,0.0,0.0,0.0,0.0,0.0,0.0,0.0,0.0,0.0,0.0,0.0,-2.7071,-2.6496,-2.6496,-2.6207,-2.5742,-2.5742,-2.5742,-2.5742,-2.5742,-2.5742,-2.5742,-2.5742,-2.5742,0.0,0.0,0.0,0.0,-2.4932,-2.4735,-2.4637,-2.4341,-2.4251,-2.4152,-2.4152,-2.4152,-2.435,0.0,0.0,0.0,0.0,0.0,0.0,0.0,-1.1785,-1.2889,-1.3884,-1.4872,-1.4952,-1.3483,-1.3178,-1.2562,-1.1306,0.0,0.0,0.0,0.0,0.0,0.0,0.0,0.0,0.0,0.0,0.0,-1.2508,-1.282,0.0,0.0,0.0,0.0,0.0,0.0,0.0,0.0,0.0,0.0,0.0,0.0,0.0,0.0,0.0,0.0,0.0,0.0,0.0,0.0,0.0,0.0,0.0,0.0,0.0,0.0,0.0,-2.7976,-3.0254,-3.3574,-3.5525,-3.6858,-3.7962,-3.5844,-3.3082,0.0,0.0,-2.3205,-2.0708,-1.8755,-1.7502,-1.7404,-1.7866,-1.8587,-1.963,-2.3668,0.0,0.0,0.0,0.0,0.0,0.0,0.0,0.0,0.0,0.0,0.0,0.0,0.0,0.0,0.0,-2.7071,-2.6496,-2.6496,-2.6207,-2.5742,-2.5742,-2.5742,-2.5742,-2.5742,-2.5742,-2.5742,-2.5742,0.0,0.0,0.0,0.0,0.0,-2.544,-2.5137,-2.4833,-2.4637,-2.4341,-2.4152,-2.4152,-2.4152,-2.435,0.0,0.0,0.0,0.0,0.0,0.0,0.0,-1.0446,-1.1241,-1.1376,-1.2248,-1.2605,-1.2059,-1.1864,-1.1607,-1.1159,0.0,0.0,0.0,0.0,0.0,0.0,0.0,0.0,0.0,0.0,-1.2019,-1.303,-1.3007,-1.3002,0.0,0.0,0.0,0.0,0.0,0.0,0.0,0.0,0.0,0.0,0.0,0.0,0.0,0.0,0.0,0.0,0.0,0.0,0.0,0.0,0.0,0.0,0.0,0.0,0.0,-2.1141,-2.4365,0.0,-2.9754,-3.1611,-3.2933,-3.335,-3.2099,-3.0057,-2.7527,-2.5134,-2.2596,-1.9768,-1.8449,-1.776,-1.7529,-1.7938,-1.9146,-2.1694,-2.4034,0.0,0.0,0.0,0.0,0.0,0.0,0.0,0.0,0.0,0.0,0.0,0.0,0.0,0.0,0.0,-2.7167,-2.6805,-2.6602,-2.6304,-2.6004,-2.583,-2.5742,-2.5742,-2.5742,-2.5742,-2.5742,-2.5742,0.0,0.0,0.0,0.0,0.0,-2.543,-2.5137,-2.4833,-2.4637,-2.4341,-2.4152,-2.4152,-2.4152,-2.4341,0.0,0.0,0.0,0.0,0.0,0.0,0.0,-0.9275,-0.9728,-0.973,-1.0395,-1.0767,-1.043,-1.065,-1.0717,-1.0483,0.0,0.0,0.0,0.0,0.0,0.0,0.0,0.0,0.0,-1.1179,-1.1835,-1.3241,-1.3314,-1.3438,-1.3662,-1.3471,-1.3041,0.0,0.0,0.0,0.0,0.0,0.0,0.0,0.0,0.0,-1.3072,0.0,0.0,0.0,0.0,0.0,0.0,0.0,0.0,0.0,0.0,0.0,0.0,0.0,-2.0714,-2.3503,0.0,-2.8726,-2.9925,-3.0033,-2.8905,0.0,0.0,-2.3261,-2.1356,-1.9241,-1.8344,-1.7908,-1.7611,-1.8209,-1.9529,-2.1878,-2.4687,0.0,0.0,0.0,0.0,0.0,0.0,0.0,0.0,0.0,0.0,0.0,0.0,0.0,0.0,0.0,-2.7262,-2.7081,-2.6794,-2.6496,-2.6294,-2.6014,-2.582,-2.582,-2.5732,-2.5742,-2.5742,0.0,0.0,0.0,0.0,0.0,0.0,-2.5538,-2.5333,-2.503,-2.4735,-2.4538,-2.4341,-2.4251,-2.4152,-2.4449,0.0,0.0,0.0,0.0,0.0,0.0,0.0,0.0,0.0,0.0,-0.9271,-0.9324,-0.8696,-0.9507,-0.9889,0.0,0.0,0.0,0.0,0.0,0.0,0.0,0.0,0.0,0.0,-1.1001,-1.1769,-1.3179,-1.367,-1.4004,-1.4245,-1.396,-1.3674,-1.3265,-1.2215,0.0,0.0,0.0,0.0,0.0,0.0,0.0,0.0,0.0,0.0,0.0,0.0,0.0,0.0,0.0,0.0,0.0,0.0,0.0,0.0,0.0,0.0,0.0,0.0,-2.6335,0.0,0.0,0.0,0.0,0.0,-2.1732,0.0,-1.8987,-1.8399,-1.7962,-1.776,-1.8558,-1.9648,-2.0738,-2.5615,0.0,0.0,0.0,0.0,0.0,0.0,0.0,0.0,0.0,0.0,0.0,0.0,0.0,0.0,0.0,0.0,-2.7262,-2.7081,-2.6805,-2.6496,-2.6294,-2.61,-2.61,-2.582,-2.5742,-2.5742,0.0,0.0,0.0,0.0,0.0,0.0,-2.5742,-2.5538,-2.5235,-2.503,-2.4735,-2.444,-2.4251,-2.4251,-2.4538,0.0,0.0,0.0,0.0,0.0,0.0,0.0,0.0,0.0,0.0,0.0,-0.8155,-0.7946,-0.8511,0.0,0.0,0.0,0.0,0.0,0.0,0.0,0.0,0.0,0.0,0.0,-1.0657,-1.1623,-1.3179,-1.367,-1.4178,-1.4744,-1.4529,-1.4013,-1.3286,-1.2616,-1.1931,0.0,0.0,0.0,0.0,0.0,0.0,0.0,0.0,0.0,0.0,-1.2318,-1.2934,0.0,0.0,0.0,0.0,0.0,0.0,0.0,0.0,-1.5944,-1.6249,-1.8053,0.0,-2.1643,-2.178,-2.1218,-2.0501,0.0,-1.9592,-1.9142,-1.8493,0.0,-1.8069,-1.776,-1.8558,-2.0178,-2.2887,-2.6674,0.0,0.0,0.0,0.0,0.0,0.0,0.0,0.0,0.0,0.0,0.0,0.0,0.0,0.0,0.0,0.0,-2.7262,-2.7262,-2.7081,-2.6805,-2.6496,-2.6294,-2.61,-2.6004,-2.5917,-2.5742,0.0,0.0,0.0,0.0,0.0,-2.5742,-2.5742,-2.5538,-2.5235,-2.503,-2.4735,-2.444,-2.4251,-2.4529,-2.5197,0.0,0.0,0.0,0.0,0.0,0.0,0.0,0.0,0.0,0.0,0.0,0.0,0.0,0.0,0.0,0.0,0.0,0.0,0.0,0.0,0.0,0.0,0.0,0.0,-1.0312,-1.0634,-1.1707,-1.3611,-1.4034,-1.4693,-1.5499,-1.5266,-1.4729,-1.3996,-1.2999,-1.2095,0.0,0.0,0.0,0.0,0.0,0.0,0.0,0.0,0.0,0.0,-1.1903,-1.2457,0.0,-1.3803,-1.4271,-1.4619,0.0,0.0,0.0,0.0,-1.5121,-1.5362,-1.6009,-1.7388,-1.8691,-1.8758,-1.8741,-1.8605,-1.8432,0.0,0.0,0.0,0.0,-1.8535,-1.8221,-1.9204,0.0,0.0,0.0,0.0,0.0,0.0,0.0,0.0,0.0,0.0,0.0,0.0,0.0,0.0,0.0,0.0,0.0,0.0,0.0,0.0,-2.7262,-2.7262,-2.7081,-2.6794,-2.6592,-2.6496,-2.6304,-2.611,-2.5917,0.0,0.0,0.0,0.0,0.0,-2.5742,-2.5742,-2.5635,-2.544,-2.503,-2.4833,-2.4637,-2.435,-2.4627,-2.5392,0.0,0.0,0.0,0.0,0.0,0.0,0.0,0.0,0.0,0.0,0.0,0.0,0.0,0.0,0.0,0.0,0.0,0.0,0.0,0.0,0.0,0.0,0.0,-0.958,-1.0427,-1.0796,-1.1966,-1.3947,-1.4505,-1.5239,-1.6114,-1.5925,-1.5354,-1.4521,-1.3247,-1.2206,0.0,0.0,0.0,0.0,-1.1357,0.0,0.0,0.0,0.0,0.0,0.0,0.0,0.0,-1.3457,-1.3978,-1.4221,-1.4344,0.0,0.0,0.0,0.0,0.0,-1.5874,-1.6913,-1.7827,-1.7776,-1.8029,-1.8338,-1.8469,0.0,0.0,0.0,0.0,0.0,0.0,0.0,0.0,0.0,0.0,0.0,0.0,0.0,0.0,0.0,0.0,0.0,0.0,0.0,0.0,0.0,0.0,0.0,0.0,0.0,0.0,0.0,-2.7262,-2.7262,-2.7262,-2.7081,-2.69,-2.69,-2.6699,-2.64,-2.6197,-2.61,0.0,0.0,0.0,0.0,-2.5742,-2.5742,-2.5742,-2.5645,-2.5137,-2.4932,-2.4833,-2.4538,-2.4824,-2.5577,0.0,0.0,0.0,0.0,0.0,0.0,0.0,0.0,0.0,0.0,0.0,0.0,0.0,0.0,0.0,0.0,0.0,0.0,0.0,0.0,0.0,0.0,-0.9759,-0.9693,-0.9852,-1.1137,-1.23,-1.327,-1.4565,-1.5441,-1.5841,-1.5814,-1.4849,-1.3205,-1.2774,-1.2084,-1.1223,-1.1448,-1.141,-1.1223,-1.1223,0.0,0.0,0.0,0.0,0.0,0.0,0.0,0.0,-1.2675,-1.3373,-1.4023,-1.394,0.0,0.0,0.0,0.0,0.0,-1.5174,-1.7564,-1.9716,-1.9168,-1.9577,-2.0028,-1.9785,0.0,0.0,0.0,0.0,0.0,0.0,0.0,0.0,0.0,0.0,0.0,0.0,0.0,0.0,0.0,0.0,0.0,0.0,0.0,0.0,0.0,0.0,0.0,0.0,0.0,0.0,0.0,0.0,-2.7262,-2.7262,-2.7262,-2.7081,-2.69,-2.69,-2.6699,-2.64,-2.6197,-2.61,0.0,0.0,-2.5742,-2.5742,-2.5742,-2.5742,-2.5645,-2.5137,-2.4932,-2.4932,-2.5109,-2.5586,-2.6456,0.0,0.0,0.0,0.0,0.0,0.0,0.0,0.0,0.0,0.0,0.0,0.0,0.0,0.0,0.0,0.0,0.0,0.0,0.0,0.0,0.0,-1.0038,-1.011,-1.0355,-1.0877,-1.1651,-1.277,-1.4297,-1.5231,-1.6066,-1.6719,-1.6069,-1.4735,-1.2906,-1.2711,-1.2165,-1.1309,-1.156,-1.1533,-1.1309,0.0,0.0,0.0,0.0,0.0,0.0,0.0,0.0,0.0,0.0,-1.3017,-1.3597,-1.3632,0.0,0.0,0.0,0.0,0.0,-1.4991,-1.7365,-1.9756,-2.0747,-2.1982,-2.3105,-2.3458,0.0,0.0,0.0,0.0,0.0,0.0,0.0,0.0,0.0,0.0,0.0,0.0,0.0,0.0,0.0,0.0,0.0,0.0,0.0,0.0,0.0,0.0,0.0,0.0,0.0,0.0,0.0,0.0,0.0,-2.7262,-2.7262,-2.7262,-2.7081,-2.7081,-2.6986,-2.6699,-2.64,-2.6197,-2.61,0.0,-2.5742,-2.5742,-2.5742,-2.5635,-2.544,-2.503,-2.4833,-2.4824,-2.5684,-2.636,-2.704,0.0,0.0,0.0,0.0,0.0,0.0,0.0,0.0,0.0,0.0,0.0,0.0,0.0,0.0,0.0,0.0,0.0,0.0,0.0,0.0,-0.9505,-1.0084,-1.0335,-1.0889,-1.1822,-1.2283,-1.3391,-1.5165,-1.5902,-1.6612,-1.7242,-1.5946,-1.4424,-1.2896,-1.2595,-1.2058,-1.1357,-1.1571,-1.1533,-1.1319,0.0,0.0,0.0,0.0,0.0,0.0,0.0,0.0,0.0,0.0,0.0,0.0,0.0,0.0,0.0,-1.324,-1.3273,-1.3739,-1.4768,-1.6995,-1.9608,-2.216,0.0,-2.5628,-2.6344,0.0,0.0,0.0,0.0,0.0,0.0,0.0,0.0,0.0,0.0,0.0,0.0,0.0,0.0,0.0,0.0,0.0,0.0,0.0,0.0,0.0,0.0,0.0,0.0,0.0,0.0,0.0,0.0,0.0,-2.7262,-2.7262,-2.7262,-2.7262,-2.7262,-2.7167,-2.6996,-2.6699,-2.64,-2.6197,-2.583,-2.5742,-2.5742,-2.5742,-2.5538,-2.5235,-2.503,-2.4932,-2.5109,-2.635,-2.703,-2.7515,0.0,0.0,0.0,0.0,0.0,0.0,0.0,0.0,0.0,0.0,0.0,0.0,0.0,0.0,0.0,0.0,0.0,0.0,0.0,0.0,-0.9066,-1.0427,-1.0434,-1.0788,-1.1601,-1.31,-1.4182,-1.4834,-1.6378,-1.6957,-1.662,-1.4909,-1.3704,-1.2886,-1.2121,-1.1512,-1.113,-1.1223,-1.1195,-1.113,-1.113,0.0,0.0,0.0,0.0,0.0,0.0,0.0,0.0,0.0,0.0,0.0,0.0,0.0,-1.3714,-1.324,-1.3545,-1.4106,-1.4325,-1.6767,-2.0035,-2.3109,-2.513,0.0,-2.6297,-2.676,0.0,-2.573,0.0,0.0,0.0,0.0,0.0,0.0,0.0,0.0,0.0,0.0,0.0,0.0,0.0,0.0,0.0,0.0,0.0,0.0,0.0,0.0,0.0,0.0,0.0,0.0,0.0,0.0,-2.7262,-2.7262,-2.7262,-2.7262,-2.7262,-2.7262,-2.7262,-2.6784,-2.6496,-2.64,-2.5927,-2.5742,-2.5742,-2.5742,-2.5538,-2.5235,-2.503,-2.5509,-2.6456,-2.721,-2.7893,-2.829,0.0,0.0,0.0,0.0,0.0,0.0,0.0,0.0,0.0,0.0,0.0,0.0,0.0,0.0,0.0,0.0,0.0,0.0,0.0,0.0,-0.8751,-0.9533,-1.0055,-1.0676,-1.1415,-1.284,-1.4261,-1.5624,-1.6598,-1.6606,-1.5629,-1.4516,-1.3482,-1.2482,-1.1964,-1.1481,-1.1092,-1.1158,-1.1158,-1.1092,-1.1092,-1.1006,0.0,0.0,0.0,0.0,0.0,0.0,0.0,0.0,-1.1372,-1.2095,-1.2524,-1.3083,-1.3553,-1.319,-1.3294,-1.3607,-1.4165,-1.6951,-2.0287,-2.2648,-2.5859,0.0,0.0,-2.9724,-2.9306,0.0,0.0,0.0,0.0,0.0,0.0,0.0,0.0,0.0,0.0,0.0,0.0,0.0,0.0,0.0,0.0,0.0,0.0,0.0,0.0,0.0,0.0,0.0,0.0,0.0,0.0,0.0,0.0,-2.7262,-2.7262,-2.7262,-2.7262,-2.7262,-2.7262,-2.6784,-2.6496,-2.6496,-2.5927,-2.5742,-2.5742,-2.5742,-2.544,-2.5039,-2.5118,-2.5877,-2.6945,-2.722,-2.762,-2.7925,0.0,0.0,0.0,0.0,0.0,0.0,0.0,0.0,0.0,0.0,0.0,0.0,0.0,0.0,0.0,0.0,0.0,0.0,-0.7095,-0.7606,-0.8195,-0.8894,-0.9489,-1.0256,-1.1266,-1.2256,-1.3716,-1.5576,-1.6048,-1.582,-1.4864,-1.3817,-1.2975,-1.2329,-1.1942,-1.1604,-1.1369,-1.1369,-1.1284,-1.1092,-1.1044,-1.0968,0.0,0.0,0.0,0.0,0.0,0.0,0.0,0.0,-1.0827,-1.1542,-1.2155,-1.2766,-1.3214,-1.3105,-1.3077,-1.327,-1.4026,-1.6508,-1.9526,-2.2088,0.0,0.0,-3.0816,-3.1044,-3.0686,0.0,0.0,0.0,0.0,0.0,0.0,0.0,0.0,0.0,0.0,0.0,0.0,0.0,0.0,0.0,0.0,0.0,0.0,0.0,0.0,0.0,0.0,0.0,0.0,0.0,0.0,0.0,-2.7696,-2.7541,-2.7469,-2.7469,-2.7324,-2.7262,-2.7262,-2.6784,-2.6496,-2.6496,-2.5927,-2.5742,-2.5732,-2.5635,-2.543,-2.5216,-2.5781,-2.6552,-2.7231,-2.7526,-2.7631,-2.7631,0.0,0.0,0.0,0.0,0.0,0.0,0.0,0.0,0.0,0.0,0.0,0.0,0.0,0.0,0.0,0.0,0.0,0.0,-0.7058,-0.691,-0.7406,-0.8728,-0.8728,-0.9493,-1.1159,-1.1522,-1.2582,-1.4408,-1.4686,-1.464,-1.4329,-1.2678,-1.2118,-1.2468,-1.2004,-1.1823,-1.1893,-1.1823,-1.153,-1.1092,-1.0968,-1.0891,-1.084,0.0,0.0,0.0,0.0,0.0,0.0,0.0,-1.0015,-1.0985,-1.1617,-1.2197,-1.273,-1.2935,-1.305,-1.3244,-1.3943,-1.5377,-1.7617,0.0,0.0,0.0,-2.8733,-3.0152,-3.0683,0.0,0.0,0.0,0.0,0.0,0.0,0.0,0.0,0.0,0.0,0.0,0.0,0.0,0.0,0.0,0.0,0.0,0.0,0.0,0.0,0.0,0.0,0.0,0.0,0.0,0.0,0.0,-2.8607,-2.8152,-2.7924,-2.7924,-2.7479,-2.7272,-2.7262,-2.6784,-2.6496,-2.6496,-2.5927,-2.5742,-2.5732,-2.543,-2.5518,-2.5887,-2.7115,-2.741,-2.7326,-2.8102,-2.8019,-2.7631,0.0,0.0,0.0,0.0,0.0,0.0,0.0,0.0,0.0,0.0,0.0,0.0,0.0,0.0,0.0,0.0,0.0,0.0,-0.6602,-0.717,-0.7621,-0.7883,-0.8805,-0.9495,-0.9853,-1.0752,-1.2039,-1.3723,-1.4059,-1.3905,-1.3314,-1.2669,-1.2425,-1.2478,-1.2341,-1.213,-1.1893,-1.1823,-1.153,-1.1092,-1.0968,-1.0891,-1.0799,0.0,0.0,0.0,0.0,0.0,0.0,0.0,0.0,0.0,-1.0978,-1.1653,-1.2189,-1.2831,-1.3267,-1.3895,-1.5342,-1.8279,0.0,0.0,0.0,0.0,0.0,-2.9819,0.0,0.0,0.0,0.0,0.0,0.0,0.0,0.0,0.0,0.0,0.0,0.0,0.0,0.0,0.0,0.0,0.0,0.0,0.0,0.0,0.0,0.0,0.0,0.0,0.0,0.0,0.0,0.0,-2.9193,-2.9042,-2.8762,-2.8411,-2.8276,-2.7872,-2.7262,-2.6784,-2.6496,-2.6496,-2.5927,-2.61,-2.6733,-2.6839,-2.7125,-2.7315,-2.7315,-2.7515,-2.7809,-2.782,-2.7631,-2.7305,0.0,0.0,0.0,0.0,0.0,0.0,0.0,0.0,0.0,0.0,0.0,0.0,0.0,0.0,0.0,0.0,0.0,0.0,0.0,-0.7158,-0.7576,-0.7576,-0.8764,-0.9548,-0.9777,-1.0609,-1.1464,-1.2335,-1.2709,-1.2742,-1.2425,-1.2254,-1.2337,-1.2616,-1.2616,-1.2488,-1.2281,-1.1978,-1.1559,-1.112,-1.0957,-1.0891,-1.0788,0.0,0.0,0.0,0.0,0.0,0.0,0.0,0.0,0.0,-1.021,0.0,-1.1667,-1.2399,-1.3778,-1.5457,-1.6894,0.0,0.0,0.0,0.0,0.0,0.0,0.0,0.0,0.0,0.0,0.0,0.0,0.0,0.0,0.0,0.0,0.0,0.0,0.0,0.0,0.0,0.0,0.0,0.0,0.0,0.0,0.0,0.0,0.0,0.0,0.0,0.0,0.0,0.0,0.0,-3.0281,-3.0092,-2.9756,-2.9473,-2.9193,-2.8817,-2.8269,-2.7619,-2.7236,-2.7051,-2.6581,-2.6584,-2.7098,-2.7127,-2.7146,-2.7157,-2.7157,-2.7167,-2.7271,-2.7178,-2.691,-2.6599,0.0,0.0,0.0,0.0,0.0,0.0,0.0,0.0,0.0,0.0,-0.6599,0.0,0.0,0.0,0.0,0.0,0.0,0.0,0.0,0.0,-0.7416,-0.77,-0.8704,-0.9643,-1.0487,-1.0831,-1.0886,-1.0653,-1.1089,-1.1433,-1.1664,-1.1636,-1.2084,-1.2827,-1.287,-1.2902,-1.2857,-1.2122,-1.1595,-1.1185,-1.0912,-1.0788,-1.0726,-0.9798,0.0,0.0,0.0,0.0,0.0,0.0,0.0,0.0,-0.9439,-1.0153,-1.1103,-1.1866,-1.4406,-1.7308,-1.8573,0.0,0.0,0.0,0.0,0.0,0.0,0.0,0.0,0.0,0.0,0.0,0.0,0.0,0.0,0.0,0.0,0.0,0.0,0.0,0.0,0.0,0.0,0.0,0.0,0.0,0.0,0.0,0.0,0.0,0.0,0.0,0.0,0.0,0.0,0.0,-3.1593,-3.1134,-3.0928,0.0,-3.025,-2.992,-2.9806,-2.911,-2.8497,-2.7966,-2.7579,-2.7274,-2.6957,-2.6796,-2.6415,-2.5944,-2.6683,-2.6694,-2.6256,-2.6267,-2.5916,-2.5564,0.0,0.0,0.0,0.0,0.0,0.0,0.0,0.0,0.0,0.0,0.0,0.0,0.0,0.0,0.0,0.0,0.0,0.0,0.0,0.0,-0.7943,-0.787,-0.9015,-0.9942,-1.0585,-1.0359,-1.0212,-1.0149,-1.0916,-1.1274,-1.126,-1.2257,-1.288,-1.3048,-1.3357,-1.3324,-1.2899,-1.1819,-1.1259,-1.1057,-1.0168,-1.0025,-1.0252,-0.9367,-0.8797,0.0,0.0,0.0,0.0,0.0,0.0,0.0,-0.9329,-0.9685,-1.0271,-1.2045,-1.4355,-1.6997,0.0,-2.3304,0.0,0.0,0.0,0.0,0.0,0.0,0.0,0.0,0.0,0.0,0.0,0.0,0.0,0.0,0.0,0.0,0.0,0.0,0.0,0.0,0.0,0.0,0.0,0.0,0.0,0.0,0.0,0.0,0.0,0.0,0.0,0.0,0.0,-3.3044,-3.2369,-3.2103,-3.1773,0.0,-3.1209,-3.0864,-3.0303,-2.9453,-2.8636,-2.7966,-2.8291,-2.7913,-2.7274,-2.7423,-2.7216,-2.6683,-2.6525,-2.6246,-2.5976,-2.5826,-2.5553,-2.5219,0.0,0.0,0.0,0.0,0.0,0.0,0.0,0.0,0.0,0.0,0.0,0.0,0.0,0.0,0.0,0.0,0.0,0.0,0.0,0.0,0.0,-0.9068,-0.9655,-1.0102,-1.0321,-1.0203,-1.0002,-0.9753,-1.0763,-1.1127,-1.0932,-1.2385,-1.3132,-1.3256,-1.3524,-1.3273,-1.27,-1.1529,-1.0841,-1.0534,-0.9875,-0.9597,-0.9534,-0.8849,-0.8288,-0.7906,-0.7782,0.0,0.0,0.0,0.0,0.0,0.0,0.0,-0.9867,-1.1217,-1.4136,-1.751,0.0,0.0,0.0,0.0,0.0,0.0,0.0,0.0,0.0,0.0,0.0,0.0,0.0,0.0,0.0,0.0,0.0,0.0,0.0,0.0,0.0,0.0,0.0,0.0,0.0,0.0,0.0,0.0,0.0,0.0,0.0,0.0,0.0,0.0,-3.2447,-3.2419,-3.2438,-3.2276,-3.2192,-3.2067,-3.1988,-3.1675,-3.104,-2.9942,-2.9452,-2.9338,-2.8701,-2.8033,-2.7453,-2.6922,-2.6455,-2.5923,-2.577,-2.542,-2.5067,-2.4999,-2.4733,-2.4336,0.0,0.0,0.0,0.0,0.0,0.0,0.0,0.0,0.0,0.0,0.0,0.0,0.0,0.0,0.0,0.0,0.0,0.0,0.0,0.0,0.0,-1.0173,-1.02,-1.0132,-1.0062,-1.0219,-1.0053,-0.9511,-1.0658,-1.1135,-1.0982,-1.2492,-1.3379,-1.3659,-1.3609,-1.3197,-1.2457,-1.1251,-1.0376,-0.9842,-0.9595,-0.9277,-0.8886,-0.8448,-0.7955,-0.7517,-0.7258,-0.7387,-0.7703,-0.7867,0.0,0.0,0.0,0.0,-0.9455,-1.0089,-1.3582,-1.7784,0.0,0.0,0.0,0.0,0.0,0.0,0.0,0.0,0.0,0.0,0.0,0.0,0.0,0.0,0.0,0.0,0.0,0.0,0.0,0.0,0.0,0.0,0.0,0.0,0.0,0.0,0.0,0.0,0.0,0.0,0.0,0.0,-3.1919,-3.1745,-3.1592,-3.1694,-3.216,-3.2077,-3.2197,-3.2574,-3.2426,-3.2125,-3.1572,-3.0374,-3.0147,-3.0582,-2.8774,-2.7798,-2.7381,-2.6,-2.5211,-2.4861,-2.4786,-2.4529,-2.4024,-2.4034,-2.3764,-2.3329,0.0,0.0,0.0,0.0,0.0,0.0,0.0,0.0,0.0,0.0,0.0,0.0,0.0,0.0,0.0,0.0,0.0,0.0,-0.6599,0.0,0.0,-0.9589,-0.9956,-1.0149,-1.0247,-1.0276,-1.0069,-0.9591,-1.0746,-1.1516,0.0,0.0,-1.4296,-1.4683,-1.4169,-1.3476,-1.2562,-1.1103,-1.0001,-0.926,-0.889,-0.8724,-0.8659,-0.8566,-0.7993,-0.7303,-0.7725,-0.7399,-0.6892,-0.7771,-0.813,0.0,0.0,0.0,0.0,-0.9421,-1.2348,-1.6017,0.0,0.0,0.0,0.0,0.0,0.0,0.0,0.0,0.0,0.0,0.0,0.0,0.0,0.0,0.0,0.0,0.0,0.0,0.0,0.0,0.0,0.0,0.0,0.0,0.0,0.0,0.0,0.0,0.0,0.0,0.0,-3.1435,-3.1539,-3.1539,-3.1711,-3.1762,-3.1838,-3.1442,-3.1468,-3.2015,-3.2068,-3.1849,-3.1306,-3.0487,-2.9963,-2.9604,-2.833,-2.7261,-2.6411,-2.5434,-2.4786,-2.454,-2.4368,-2.4024,-2.359,-2.3319,-2.3057,-2.2891,0.0,0.0,0.0,0.0,0.0,0.0,0.0,0.0,0.0,0.0,0.0,0.0,0.0,0.0,0.0,-0.6599,-0.6599,-0.6737,-0.7019,-0.7414,-0.8125,-0.9169,-0.9057,-0.9128,-0.9468,-0.9203,-0.8949,-0.8693,-1.0229,0.0,0.0,-1.4136,-1.5049,0.0,0.0,-1.4106,-1.3071,-1.1698,-1.057,-0.9663,-0.9314,-0.9818,-1.0654,-0.9518,-0.939,-0.9626,-0.8555,-0.7952,-0.7738,-0.8187,-0.8481,-0.8631,-0.8473,0.0,0.0,0.0,0.0,0.0,0.0,0.0,0.0,0.0,0.0,0.0,0.0,0.0,0.0,0.0,0.0,0.0,0.0,0.0,0.0,0.0,0.0,0.0,0.0,0.0,0.0,0.0,0.0,0.0,0.0,0.0,0.0,0.0,0.0,0.0,-3.0672,-3.0829,-3.0804,-3.052,-3.0605,-3.0804,-3.112,-3.0798,-3.0815,-3.1097,-3.0748,-3.0593,-3.0614,-2.9415,-2.8857,-2.8802,-2.7778,-2.668,-2.5609,-2.4974,-2.4444,-2.41,-2.4024,-2.3677,-2.3232,-2.3144,-2.2882,-2.253,0.0,0.0,0.0,0.0,0.0,0.0,0.0,0.0,0.0,0.0,0.0,0.0,0.0,0.0,0.0,0.0,-0.6599,-0.6774,-0.7169,-0.7273,-0.7666,-0.8525,-0.8248,-0.824,-0.8608,-0.8242,-0.8044,-0.7998,0.0,0.0,-1.2107,-1.425,-1.5256,0.0,-1.5458,-1.485,0.0,0.0,-1.1383,-1.0404,-1.056,-1.1497,-1.2675,-1.1455,-1.1603,-1.2193,-1.0037,-0.9148,-0.8989,-0.8833,-0.8968,-0.9085,-0.8486,-0.8195,0.0,0.0,0.0,0.0,0.0,0.0,0.0,0.0,0.0,0.0,0.0,0.0,0.0,0.0,0.0,0.0,0.0,0.0,0.0,0.0,0.0,0.0,0.0,0.0,0.0,0.0,0.0,0.0,0.0,0.0,0.0,0.0,0.0,0.0,-3.052,-3.0368,-3.0228,-2.9869,-2.9869,-2.9993,-3.0303,-3.0201,-3.0057,-2.994,-2.9581,-2.9437,-2.9549,-2.8262,-2.769,-2.7542,-2.684,-2.5971,-2.4995,-2.4502,-2.4013,-2.3667,-2.3667,-2.3319,-2.2882,-2.2882,-2.2618,-2.2264,0.0,0.0,0.0,0.0,0.0,0.0,0.0,0.0,0.0,0.0,0.0,0.0,-0.6599,-0.6599,-0.6599,-0.6599,-0.6599,-0.6611,-0.6637,-0.7063,-0.7313,-0.7395,-0.7778,0.0,-0.8137,-0.799,-0.7932,0.0,0.0,0.0,-1.1486,-1.3169,-1.46,-1.5677,-1.6118,-1.5608,-1.4391,0.0,0.0,-1.1264,-1.278,-1.3484,-1.3729,-1.4655,-1.4728,-1.4132,-1.2426,-1.1186,-1.0293,-0.9739,-0.9528,-0.9379,-0.8763,-0.8193,-0.7609,0.0,0.0,0.0,0.0,0.0,0.0,0.0,0.0,0.0,0.0,0.0,0.0,0.0,0.0,0.0,0.0,0.0,0.0,0.0,0.0,0.0,0.0,0.0,0.0,0.0,0.0,0.0,0.0,0.0,0.0,0.0,0.0,0.0,-3.0698,-3.0305,-3.0075,-3.0075,-2.9856,-2.9714,-2.9456,-2.9579,-2.9292,-2.8668,-2.915,-2.8884,-2.7865,-2.7755,-2.6889,-2.5342,-2.5321,-2.4974,-2.4485,-2.4024,-2.358,-2.3144,-2.3144,-2.2872,-2.2432,-2.2185,-2.2097,-2.2008,0.0,0.0,0.0,0.0,0.0,0.0,0.0,0.0,0.0,0.0,0.0,0.0,0.0,-0.6599,-0.6599,-0.6599,-0.6599,-0.6599,-0.6599,-0.6751,-0.6994,-0.7355,-0.7148,-0.7203,-0.7506,-0.713,-0.6941,0.0,0.0,-0.9512,-1.0365,-1.2784,-1.4113,-1.46,-1.5915,-1.6023,-1.5197,-1.4014,0.0,0.0,0.0,0.0,-1.7545,0.0,0.0,0.0,0.0,0.0,0.0,-1.3763,-1.2784,-1.1573,-1.0325,-0.924,-0.8298,-0.7814,-1.0291,0.0,0.0,0.0,0.0,0.0,0.0,0.0,0.0,0.0,0.0,0.0,0.0,0.0,0.0,0.0,0.0,0.0,0.0,0.0,0.0,0.0,0.0,0.0,0.0,0.0,0.0,0.0,0.0,0.0,0.0,0.0,-3.0305,-3.0152,-3.0011,-2.9934,-2.9869,-2.9468,-2.8816,-2.8759,-2.829,-2.7483,-2.7395,-2.7126,-2.6726,-2.6001,-2.5427,-2.4995,-2.4183,-2.3807,-2.3851,-2.3493,-2.3144,-2.2882,-2.2706,-2.2441,-2.2176,-2.182,-2.1544,-2.1275,0.0,0.0,0.0,0.0,0.0,0.0,0.0,0.0,0.0,0.0,0.0,0.0,0.0,0.0,-0.7087,-0.6887,-0.6874,-0.6799,-0.6611,-0.6599,-0.6744,-0.7075,-0.6721,-0.6643,-0.6918,-0.6554,-0.6355,0.0,0.0,0.0,0.0,-1.1616,-1.2883,-1.3154,-1.4701,-1.5404,0.0,0.0,0.0,-1.4625,0.0,0.0,-2.0332,0.0,0.0,0.0,0.0,0.0,0.0,0.0,0.0,-1.4879,-1.2665,-1.0443,-0.8638,-0.8565,-1.0058,0.0,-1.3446,0.0,0.0,0.0,0.0,0.0,0.0,0.0,0.0,0.0,0.0,0.0,0.0,0.0,0.0,0.0,0.0,0.0,0.0,0.0,0.0,0.0,0.0,0.0,0.0,0.0,0.0,0.0,0.0,0.0,-3.0075,-3.0011,-2.9934,-2.9689,-2.9378,-2.8986,-2.8419,-2.7938,-2.736,-2.6633,-2.6279,-2.5931,-2.5636,-2.474,-2.4339,-2.4243,-2.3252,-2.296,-2.3319,-2.2969,-2.2608,-2.2344,-2.2167,-2.1811,-2.1463,-2.1186,-2.0916,-2.0736,0.0,0.0,0.0,0.0,0.0,0.0,0.0,0.0,0.0,-0.7356,0.0,0.0,0.0,0.0,0.0,-0.7493,-0.7418,-0.7181,-0.6662,-0.6611,-0.6569,-0.651,-0.65,-0.6472,-0.6384,-0.6325,-0.6295,-0.6295,0.0,0.0,0.0,0.0,-1.08,-1.1465,-1.2519,-1.3674,-1.4727,0.0,-1.4714,-1.5894,0.0,-2.0037,-2.1694,0.0,0.0,0.0,-2.2477,-2.1555,0.0,0.0,0.0,0.0,0.0,-1.1693,-0.8585,-0.9208,-0.9344,0.0,0.0,0.0,0.0,0.0,0.0,0.0,0.0,0.0,0.0,0.0,0.0,0.0,0.0,0.0,0.0,0.0,0.0,0.0,0.0,0.0,0.0,0.0,0.0,0.0,0.0,0.0,0.0,0.0,0.0,-3.0292,-3.0075,-2.9869,-2.9611,-2.9419,-2.8645,-2.8167,-2.8179,-2.729,-2.6633,-2.6196,-2.5935,-2.5359,-2.4454,-2.4262,-2.3734,-2.3047,-2.2334,-2.2441,-2.2979,-2.253,-2.1989,-2.1374,-2.1365,-2.0916,-2.0292,-2.0292,-2.0292,-2.0201,0.0,0.0,0.0,0.0,0.0,0.0,0.0,0.0,0.0,0.0,0.0,0.0,-0.8874,-0.8886,-0.8801,-0.8637,-0.7876,-0.7331,-0.7181,-0.6824,-0.6564,-0.6512,-0.6495,-0.6443,-0.6325,-0.6307,-0.6295,-0.6295,0.0,0.0,0.0,0.0,0.0,0.0,-1.0451,-1.0982,-1.1374,-1.2831,0.0,0.0,-1.8543,-2.0589,0.0,0.0,0.0,0.0,0.0,-2.4835,0.0,0.0,-2.1949,-1.9413,0.0,0.0,-1.0171,-0.925,-0.892,0.0,-1.0147,0.0,0.0,0.0,0.0,0.0,0.0,0.0,0.0,0.0,0.0,0.0,0.0,0.0,0.0,0.0,0.0,0.0,0.0,0.0,0.0,0.0,0.0,0.0,0.0,0.0,0.0,0.0,-3.0011,-2.9844,-2.9586,-2.9365,-2.9143,-2.8736,-2.8419,-2.7765,-2.7021,-2.661,-2.603,-2.5274,-2.5041,-2.4529,-2.3764,-2.3484,-2.294,-2.2069,-2.2016,-2.188,-2.1679,-2.1293,-2.1165,-2.1221,-2.0759,-2.0365,-1.9994,-1.9646,-1.9371,-1.9196,0.0,0.0,0.0,0.0,0.0,0.0,0.0,0.0,0.0,0.0,0.0,0.0,-1.012,-1.0145,-0.9969,-0.9466,-0.8838,-0.8152,-0.7443,-0.7106,-0.6801,-0.652,-0.6507,-0.6443,-0.6295,-0.6295,-0.6295,-0.6295,0.0,0.0,0.0,0.0,0.0,0.0,0.0,0.0,0.0,0.0,0.0,0.0,-1.8593,0.0,0.0,-2.5552,-2.6658,0.0,0.0,0.0,-2.609,-2.5896,-2.3852,0.0,0.0,0.0,0.0,0.0,0.0,0.0,0.0,0.0,0.0,0.0,0.0,0.0,0.0,-2.2782,0.0,0.0,0.0,0.0,0.0,0.0,0.0,0.0,0.0,0.0,0.0,0.0,0.0,0.0,0.0,0.0,0.0,0.0,0.0,0.0,-2.9869,-2.9624,-2.9275,-2.9118,-2.8816,-2.8419,-2.7938,-2.7278,-2.6362,-2.5863,-2.5359,-2.47,-2.4454,-2.4024,-2.3319,-2.2872,-2.2246,-2.1544,-2.1129,-2.0934,-2.0693,-2.0185,-2.032,-2.0788,-2.027,-1.9906,-1.9515,-1.909,-1.8855,-1.8652,0.0,0.0,0.0,0.0,0.0,0.0,0.0,0.0,0.0,0.0,-1.0931,-1.1249,-1.1876,-1.1839,-1.1362,-1.0357,-1.0044,-0.9253,-0.7681,-0.7468,-0.7137,-0.6532,-0.6507,-0.6443,-0.6295,-0.6295,-0.6295,-0.6295,0.0,0.0,0.0,0.0,0.0,0.0,0.0,0.0,0.0,0.0,0.0,-1.531,-1.8516,-2.1217,0.0,0.0,-2.6782,0.0,-2.7255,-2.7335,-2.731,-2.7499,-2.5493,0.0,0.0,0.0,0.0,0.0,-1.2823,0.0,0.0,0.0,0.0,0.0,0.0,0.0,-1.9782,-2.2285,0.0,0.0,0.0,0.0,0.0,0.0,0.0,0.0,0.0,0.0,0.0,0.0,0.0,0.0,0.0,0.0,0.0,0.0,-2.9998,-2.9998,-2.9779,-2.9468,-2.9052,-2.8803,-2.8486,-2.8007,-2.7208,-2.655,-2.603,-2.5274,-2.47,-2.4454,-2.4206,-2.3667,-2.296,-2.2325,-2.1704,-2.1105,-2.012,-1.9813,-2.0022,-1.9419,-1.954,-2.0127,-1.9876,-1.9478,-1.9071,-1.8766,-1.8555,-1.8502,-0.9884,0.0,0.0,0.0,0.0,0.0,0.0,0.0,0.0,-1.2065,-1.2434,-1.3119,-1.416,-1.3446,-1.2785,-1.2572,-1.0947,-0.9579,-0.8813,-0.7914,-0.7137,-0.6532,-0.6507,-0.6443,-0.6295,-0.6295,-0.6295,-0.6295,0.0,0.0,0.0,0.0,0.0,0.0,0.0,0.0,0.0,0.0,0.0,-1.5962,-1.8814,0.0,-2.4632,-2.6152,-2.7162,-2.7802,-2.8026,-2.8532,-2.8864,0.0,-2.6662,-2.4896,0.0,0.0,0.0,0.0,0.0,0.0,0.0,0.0,0.0,0.0,0.0,0.0,-1.688,-1.9377,0.0,0.0,0.0,0.0,0.0,0.0,0.0,0.0,0.0,0.0,0.0,0.0,0.0,0.0,0.0,0.0,0.0,0.0,-2.9509,-2.9509,-2.9197,-2.8803,-2.8419,-2.8191,-2.7615,-2.661,-2.6445,-2.5946,-2.52,-2.4786,-2.4358,-2.3927,-2.3493,-2.2862,-2.1961,-2.1704,-2.0997,-1.9928,-1.9755,-1.9478,-1.92,-1.917,-1.9398,-1.9683,-1.9398,-1.9003,-1.8807,-1.8739,-1.8513,-1.8356,-1.0326,0.0,0.0,0.0,0.0,0.0,0.0,0.0,0.0,-1.3596,-1.3909,-1.4336,-1.4993,-1.4561,-1.408,-1.3813,-1.2526,-1.1229,-1.011,-0.9234,-0.8207,-0.7007,-0.692,-0.6712,-0.6307,-0.6295,-0.6295,-0.6295,0.0,0.0,0.0,0.0,0.0,0.0,0.0,0.0,0.0,0.0,-1.316,-1.6718,-1.9412,0.0,-2.5978,-2.7366,-2.8117,-2.8556,-2.8826,-2.9142,-2.942,-2.8755,-2.7658,0.0,0.0,-2.2868,-2.1292,0.0,-1.7852,-1.7344,0.0,0.0,0.0,-1.4829,0.0,0.0,0.0,-1.8918,-2.0425,0.0,0.0,0.0,0.0,0.0,0.0,0.0,0.0,0.0,0.0,0.0,0.0,0.0,0.0,0.0,0.0,0.0,-2.9118,-2.8791,-2.8633,-2.8247,-2.7765,-2.7545,-2.7044,-2.6185,-2.5863,-2.5359,-2.47,-2.4282,-2.3657,-2.3115,-2.2765,-2.2059,-2.1168,-2.0709,-2.0085,-1.9387,-1.9107,-1.8781,-1.8429,-1.854,-1.8547,-1.867,-1.9033,-1.8999,-1.8789,-1.8621,-1.8354,-1.8096,-1.0736,0.0,0.0,0.0,0.0,0.0,0.0,0.0,0.0,-1.5004,-1.5157,-1.5376,-1.5931,-1.5906,-1.575,-1.5644,-1.5013,-1.384,0.0,0.0,0.0,0.0,-0.7699,-0.7298,-0.6619,-0.6499,-0.6451,-0.6451,0.0,0.0,0.0,0.0,0.0,0.0,0.0,0.0,0.0,0.0,0.0,-1.8266,0.0,-2.3716,-2.6788,-2.8257,-2.8899,-2.9101,-2.9662,-2.9889,-2.9889,-2.967,0.0,-2.7363,-2.6654,-2.5189,0.0,0.0,0.0,0.0,0.0,0.0,0.0,0.0,0.0,-1.6191,0.0,0.0,0.0,-2.1657,0.0,0.0,0.0,0.0,0.0,0.0,0.0,0.0,0.0,0.0,0.0,0.0,0.0,0.0,0.0,0.0,-2.8834,-2.8024,-2.8092,-2.7761,-2.6885,-2.6744,-2.6367,-2.5863,-2.5369,-2.4775,-2.4282,-2.3754,-2.3047,-2.2217,-2.205,-2.1436,-2.0266,-1.9621,-1.9171,-1.8835,-1.8282,-1.7831,-1.7654,-1.7695,-1.7626,-1.7584,-1.8621,-1.8873,-1.8651,-1.8451,-1.8271,-1.8016,-1.0619,-1.0597,0.0,0.0,0.0,0.0,0.0,0.0,-1.5029,-1.5716,-1.5792,-1.6558,0.0,0.0,0.0,0.0,0.0,0.0,-1.5564,0.0,0.0,0.0,0.0,-0.8411,-0.7732,-0.7251,-0.701,-0.701,0.0,0.0,0.0,0.0,0.0,0.0,-0.9692,0.0,0.0,0.0,-1.8747,0.0,-2.3912,-2.5057,0.0,-2.7543,-2.8596,-2.9254,-3.0764,-3.1278,-3.1219,0.0,-3.0107,-2.9072,0.0,-2.7927,0.0,0.0,0.0,0.0,0.0,0.0,0.0,0.0,-1.7013,0.0,0.0,0.0,-1.6844,-1.7376,0.0,0.0,0.0,0.0,0.0,0.0,0.0,0.0,0.0,0.0,0.0,0.0,0.0,0.0,0.0,0.0,0.0,-2.7345,-2.7753,-2.7352,-2.582,-2.5658,-2.5365,-2.469,-2.4625,-2.4282,-2.359,-2.3319,-2.2687,-2.1784,-2.1615,-2.0718,-1.9371,-1.9072,-1.8527,-1.7815,-1.7391,-1.7131,-1.7058,-1.7173,-1.7204,-1.726,-1.7879,-1.8126,-1.8154,-1.8289,-1.8373,-1.8331,-1.0223,-1.0189,0.0,0.0,0.0,0.0,0.0,0.0,-1.5615,-1.5911,-1.6594,0.0,0.0,0.0,0.0,0.0,0.0,-1.9625,0.0,0.0,-1.4716,0.0,0.0,0.0,0.0,-0.812,-0.7481,-0.7107,-0.6559,0.0,0.0,0.0,0.0,0.0,-1.1212,0.0,-1.4438,0.0,0.0,0.0,0.0,0.0,0.0,-2.8995,-3.0087,-3.0602,-3.1246,-3.1482,-3.1467,0.0,-3.0777,0.0,0.0,0.0,0.0,0.0,0.0,0.0,0.0,0.0,0.0,0.0,0.0,0.0,0.0,0.0,-1.5463,0.0,0.0,0.0,0.0,0.0,0.0,0.0,0.0,0.0,0.0,0.0,0.0,0.0,0.0,0.0,0.0,0.0,0.0,0.0,0.0,-2.5991,-2.4829,-2.4519,-2.4246,-2.4126,-2.3713,-2.3408,-2.3232,-2.2794,-2.1989,-2.1078,-2.0709,-1.9812,-1.855,-1.8156,-1.7707,-1.7261,-1.6777,-1.6494,-1.6319,-1.6348,-1.6211,-1.5969,-1.6776,-1.7358,-1.7791,-1.7915,-1.7963,-1.7962,-0.9996,0.0,0.0,0.0,0.0,0.0,0.0,0.0,0.0,0.0,0.0,0.0,-1.9314,-2.0454,0.0,0.0,0.0,-2.2123,0.0,0.0,-1.7801,0.0,-1.4003,0.0,0.0,0.0,-0.8435,-0.7799,-0.7082,-0.6727,0.0,0.0,0.0,0.0,0.0,-1.4768,-1.6896,0.0,0.0,-2.4366,-2.6366,-2.7668,-2.8537,-3.0206,-3.1086,-3.1467,-3.1482,-3.1482,-3.1482,-3.1409,-3.097,0.0,-3.0389,0.0,0.0,0.0,0.0,0.0,-2.2875,0.0,0.0,0.0,0.0,0.0,0.0,0.0,0.0,0.0,0.0,0.0,0.0,0.0,0.0,0.0,0.0,0.0,0.0,0.0,0.0,0.0,0.0,0.0,0.0,0.0,0.0,0.0,-2.5327,0.0,-2.3842,-2.3467,-2.3275,-2.3401,-2.2818,-2.2614,-2.2698,-2.2095,-2.1355,-2.0546,-1.9994,-1.908,-1.7994,-1.7426,-1.7059,-1.6791,-1.6204,-1.5913,-1.573,-1.5642,-1.5363,-1.5198,-1.5783,-1.6368,-1.7042,-1.7408,-1.7392,-1.7442,-1.0207,-1.0605,0.0,0.0,0.0,0.0,0.0,0.0,0.0,0.0,0.0,0.0,0.0,0.0,0.0,0.0,0.0,-2.5943,-2.4326,0.0,-2.2193,0.0,0.0,-1.5792,0.0,0.0,0.0,-0.9522,-0.8392,-0.784,0.0,0.0,0.0,0.0,0.0,-1.5928,-1.8771,-2.2697,-2.5394,-2.7087,-2.881,-3.0076,-3.0925,0.0,-3.0613,-3.1351,-3.1467,0.0,0.0,-3.1146,-3.0777,0.0,0.0,0.0,0.0,0.0,0.0,0.0,0.0,0.0,0.0,-2.1414,0.0,0.0,0.0,0.0,-1.5693,0.0,0.0,0.0,0.0,0.0,-1.6184,-1.6184,0.0,0.0,0.0,0.0,0.0,0.0,0.0,0.0,0.0,0.0,0.0,-2.37,-2.4449,0.0,-2.2949,-2.2679,-2.257,-2.2533,-2.2113,-2.1913,-2.1845,-2.1154,-2.0633,-2.0292,-1.9554,-1.8735,-1.7721,-1.7261,-1.6697,-1.6224,-1.5737,-1.554,-1.5445,-1.5267,-1.5083,-1.5083,-1.5096,-1.5267,-1.5684,-1.6839,-1.7058,-1.6865,0.0,0.0,0.0,0.0,0.0,0.0,0.0,-1.5125,0.0,0.0,0.0,0.0,0.0,0.0,-2.4765,0.0,0.0,-2.6381,-2.5463,-2.4343,0.0,0.0,0.0,-1.8123,0.0,0.0,-1.2191,-1.0199,-0.9058,-0.8306,0.0,0.0,0.0,0.0,0.0,-1.7016,0.0,0.0,0.0,0.0,0.0,-3.0447,-3.0792,0.0,0.0,-3.1409,-3.1467,-3.1482,0.0,-3.1351,-3.1278,-3.1161,-3.1161,-3.0923,-3.0389,-2.954,-2.8896,0.0,0.0,0.0,-2.6847,-2.3897,0.0,0.0,0.0,0.0,0.0,0.0,0.0,0.0,0.0,0.0,-1.6637,-1.5748,-1.4747,-1.393,0.0,0.0,0.0,0.0,0.0,0.0,0.0,0.0,0.0,-2.3632,-2.4014,-2.392,0.0,-2.2342,-2.1863,-2.1829,-2.1426,-2.1221,-2.124,-2.073,-2.0228,-1.9639,-1.8967,-1.8164,-1.7261,-1.6697,-1.6218,-1.5737,-1.5363,-1.5172,-1.4975,-1.4885,-1.4688,-1.4592,-1.4981,-1.4942,-1.4886,-1.594,-1.6579,-1.6826,-1.264,0.0,0.0,0.0,0.0,0.0,0.0,0.0,0.0,0.0,-2.1068,0.0,-2.3523,0.0,-2.5388,0.0,-2.6361,-2.6621,-2.6233,-2.5398,0.0,-2.4581,-2.2619,0.0,0.0,0.0,0.0,-1.2285,-1.0544,-0.9362,-0.8754,0.0,0.0,0.0,0.0,0.0,0.0,0.0,-2.7147,0.0,0.0,-3.0642,0.0,0.0,-3.1132,-3.1366,0.0,-3.1467,-3.1482,-3.1482,-3.1482,-3.1539,-3.167,-3.1369,-3.1005,-3.0688,-3.0211,-2.9696,-2.9086,-2.941,0.0,-2.6342,-2.5325,0.0,-2.2184,0.0,0.0,0.0,0.0,0.0,0.0,0.0,-1.7248,-1.6155,-1.4571,-1.314,0.0,-1.2458,0.0,0.0,0.0,0.0,0.0,0.0,-2.2216,-2.2585,-2.2983,-2.3096,0.0,0.0,-2.1768,-2.1666,-2.0967,-2.0538,-2.0467,-1.9965,-1.9531,-1.909,-1.8328,-1.7594,-1.6979,-1.6414,-1.5933,-1.5445,-1.5172,-1.4987,-1.4688,-1.4592,-1.449,-1.4298,-1.4688,-1.4592,-1.4461,-1.5501,-1.6233,-1.656,0.0,0.0,0.0,0.0,-1.4062,0.0,0.0,0.0,-1.9874,0.0,-2.2561,-2.356,-2.4791,-2.5256,-2.5692,-2.6293,-2.6606,0.0,-2.6779,-2.6779,0.0,0.0,-2.5169,-2.4014,-2.341,0.0,0.0,0.0,-1.2776,-1.1058,-1.0329,0.0,0.0,0.0,-1.2818,0.0,-2.0371,-2.3011,-2.6293,-2.9726,-3.0321,-3.0702,-3.0762,-3.0762,0.0,-3.1073,-3.1234,-3.1409,-3.1482,-3.1482,-3.1482,-3.1482,-3.1539,-3.167,-3.1841,-3.194,-3.2094,-3.2079,-3.1667,-3.0875,-2.9864,-2.853,0.0,0.0,0.0,0.0,-2.4443,0.0,0.0,0.0,0.0,0.0,0.0,-1.7374,-1.5095,-1.3001,-1.1765,0.0,0.0,0.0,0.0,0.0,0.0,-1.8195,-1.8709,-2.062,-2.1346,0.0,0.0,0.0,0.0,-2.1952,-2.0615,-1.9813,-1.9552,-1.8911,-1.8608,-1.8596,-1.7658,-1.7117,-1.6958,-1.6407,-1.5933,-1.5445,-1.5172,-1.4885,-1.4592,-1.4394,-1.4298,-1.4202,-1.4298,-1.4304,-1.4473,-1.5488,-1.5991,-1.626,-1.4805,-1.5138,-1.5571,0.0,-1.6161,-1.6733,0.0,0.0,0.0,0.0,-2.4347,-2.5183,-2.6184,-2.6361,-2.6486,-2.6645,-2.6727,0.0,0.0,0.0,0.0,-2.6779,-2.592,-2.491,-2.3741,-2.17,0.0,-1.655,-1.4212,-1.2393,-1.0997,0.0,0.0,0.0,0.0,0.0,-1.9015,-2.2193,-2.615,-3.035,-3.051,-3.0642,0.0,0.0,-3.0762,-3.0881,-3.1176,-3.1409,-3.1482,-3.1482,-3.1482,-3.1539,-3.167,-3.1727,-3.1841,-3.194,-3.2094,-3.2191,-3.2079,-3.1931,-3.1435,-2.9993,-2.8946,-2.8035,0.0,0.0,0.0,0.0,0.0,0.0,0.0,0.0,0.0,-1.8324,-1.5763,-1.3776,0.0,0.0,0.0,0.0,0.0,0.0,0.0,0.0,-1.8369,-1.9871,-2.0029,0.0,0.0,0.0,0.0,-2.0769,-2.002,-1.9454,-1.8923,-1.8533,-1.8019,-1.7618,-1.6989,-1.6451,-1.5989,-1.5826,-1.5356,-1.4879,-1.479,-1.4406,-1.3829,-1.4202,-1.3817,-1.3244,-1.401,-1.4425,-1.4624,-1.5146,-1.5394,-1.5388,-1.6152,0.0,0.0,-1.7832,0.0,0.0,-1.9822,0.0,0.0,-2.4748,-2.5566,0.0,-2.6736,-2.6779,-2.6779,-2.6779,-2.6779,0.0,0.0,0.0,0.0,-2.6779,-2.6447,-2.5905,-2.5142,-2.3496,0.0,-1.8618,0.0,0.0,-1.1344,0.0,0.0,0.0,0.0,-1.4033,0.0,-2.3131,-2.6903,-2.9725,-3.035,0.0,0.0,-3.0568,-3.0702,-3.0821,-3.0999,-3.1234,-3.1409,-3.1409,-3.1467,-3.1539,-3.1597,-3.1727,-3.1784,-3.1898,-3.1996,-3.215,-3.2191,-3.2247,-3.2118,-3.1351,-3.0876,-3.044,-2.9968,-2.9431,-2.9357,0.0,0.0,0.0,0.0,0.0,0.0,0.0,0.0,0.0,0.0,0.0,0.0,0.0,0.0,0.0,0.0,0.0,0.0,0.0,0.0,0.0,0.0,0.0,0.0,-2.0929,-2.0304,-1.9627,-1.8834,-1.8554,-1.7921,-1.6931,-1.6404,-1.6001,-1.5688,-1.5416,-1.4975,-1.4394,-1.4592,-1.4118,-1.3249,-1.3727,-1.3534,-1.2861,-1.3431,-1.3813,-1.4148,-1.4332,-1.4698,-1.5072,0.0,0.0,0.0,0.0,0.0,0.0,0.0,-2.2807,0.0,-2.5611,0.0,-2.6779,-2.6779,-2.6779,-2.6779,-2.6779,0.0,-2.6779,-2.6779,-2.6779,-2.6779,-2.6779,-2.6779,-2.6779,-2.6727,-2.4944,0.0,0.0,0.0,0.0,0.0,0.0,0.0,0.0,0.0,0.0,0.0,-2.4697,-2.7862,0.0,-3.0132,-3.0642,-3.0687,-3.0628,-3.0702,-3.0881,-3.0881,-3.1058,-3.1292,-3.1292,-3.1351,-3.1467,-3.1467,-3.1597,-3.1727,-3.1727,-3.1841,-3.1996,-3.215,-3.2191,-3.2191,-3.2342,-3.2398,-3.2398,-3.2398,-3.2247,-3.215,-3.2342,-3.108,-2.9833,0.0,0.0,0.0,0.0,0.0,0.0,0.0,0.0,0.0,0.0,0.0,0.0,0.0,0.0,0.0,0.0,0.0,0.0,0.0,0.0,0.0,0.0,-2.0811,0.0,-1.9045,0.0,-1.7843,-1.6607,-1.5929,-1.5535,-1.5535,-1.522,-1.4592,-1.3908,-1.4298,-1.3823,-1.2764,-1.3249,-1.3152,-1.2764,-1.2667,-1.2975,-1.3488,-1.3488,-1.4131,-1.5004,0.0,0.0,0.0,0.0,0.0,-2.2873,-2.3279,-2.4974,-2.6358,-2.6576,-2.6707,0.0,-2.6779,-2.6779,-2.6779,-2.6779,-2.6779,0.0,0.0,0.0,0.0,-2.6779,-2.6779,-2.6659,-2.6404,-2.5423,-2.3751,0.0,0.0,0.0,0.0,0.0,0.0,0.0,0.0,0.0,-2.1867,-2.4697,0.0,-3.0263,-3.048,-3.0807,-3.1176,-3.0747,-3.0866,-3.1234,-3.1234,-3.1176,-3.1146,-3.1146,-3.1234,-3.1351,-3.1351,-3.1409,-3.1539,-3.1539,-3.167,-3.1841,-3.1996,-3.2053,-3.2094,-3.2342,-3.2342,-3.2231,-3.2398,-3.2342,-3.2342,-3.2398,-3.2143,-3.1512,-3.016,0.0,0.0,0.0,0.0,0.0,0.0,0.0,0.0,0.0,0.0,0.0,0.0,0.0,0.0,0.0,0.0,0.0,0.0,0.0,0.0,0.0,0.0,0.0,0.0,0.0,0.0,-1.695,-1.5814,-1.5066,-1.4676,-1.4741,-1.4304,-1.3534,-1.3636,-1.3147,-1.2175,-1.2662,-1.2861,-1.2662,-1.178,-1.2185,-1.3144,-1.3248,-1.3696,-1.4375,0.0,0.0,0.0,0.0,0.0,0.0,0.0,-2.6155,0.0,-2.6832,-2.6779,-2.6779,-2.6779,-2.6779,-2.6779,-2.6779,-2.6779,-2.6779,-2.6779,-2.6779,-2.6779,-2.6779,-2.6779,0.0,-2.6539,-2.592,-2.4329,-2.1746,0.0,0.0,0.0,0.0,0.0,0.0,0.0,-1.6625,0.0,0.0,0.0,-2.8886,-3.0116,-3.0762,-3.0925,-3.0984,-3.1102,-3.1336,-3.1552,-3.1552,-3.1509,-3.1409,-3.1351,-3.1278,-3.1409,-3.1467,-3.1482,-3.1482,-3.1597,-3.1655,-3.1841,-3.1898,-3.194,-3.215,-3.2206,-3.2247,-3.2302,-3.2342,-3.2398,-3.2398,-3.2398,-3.2158,-3.1271,-2.9124,0.0,0.0,0.0,0.0,0.0,0.0,0.0,0.0,0.0,0.0,0.0,0.0,0.0,0.0,0.0,0.0,0.0,0.0,0.0,0.0,0.0,0.0,0.0,0.0,0.0,-1.6296,-1.5444,-1.4764,-1.4141,-1.4057,-1.3534,-1.2759,-1.2856,-1.237,-1.1389,-1.1688,-1.1883,-1.1883,-1.1389,-1.1811,-1.2704,-1.3109,-1.3657,-1.4259,0.0,-2.1986,0.0,0.0,-2.4325,0.0,0.0,-2.6754,-2.7248,-2.6832,-2.6779,-2.6779,-2.6779,-2.6779,-2.6779,-2.6779,-2.6779,-2.6779,-2.6779,-2.6779,-2.6779,-2.6779,-2.6779,-2.6779,-2.6712,-2.6165,-2.4759,0.0,0.0,0.0,0.0,0.0,0.0,0.0,0.0,0.0,0.0,0.0,-2.6562,-2.7726,-2.9638,-3.0511,-3.0747,-3.1043,-3.1278,-3.1437,-3.1766,-3.1879,-3.1879,-3.1951,-3.1682,-3.1394,-3.1524,-3.1524,-3.1467,-3.1482,-3.1482,-3.1539,-3.1727,-3.1784,-3.1784,-3.194,-3.2094,-3.2135,-3.2191,-3.2287,-3.2398,-3.2398,-3.2398,-3.2231,-3.1981,-3.0698,0.0,0.0,0.0,0.0,0.0,0.0,0.0,0.0,0.0,0.0,0.0,0.0,0.0,0.0,0.0,0.0,0.0,0.0,0.0,0.0,0.0,-2.0148,-1.9432,0.0,-1.7619,0.0,-1.521,-1.4437,-1.3774,-1.3423,-1.2759,-1.1883,-1.2078,-1.1585,-1.0801,-1.0801,-1.0998,-1.1194,-1.1194,-1.1642,-1.2274,-1.2978,-1.3667,-1.4333,0.0,0.0,0.0,0.0,0.0,0.0,0.0,-2.6956,-2.7248,-2.6832,-2.6779,-2.6779,-2.6779,-2.6779,-2.6779,-2.6779,-2.6779,-2.6779,-2.6779,-2.6779,-2.6779,-2.6779,-2.6779,-2.6659,-2.6351,-2.6042,-2.5073,0.0,0.0,0.0,0.0,0.0,0.0,0.0,0.0,0.0,0.0,-2.4761,-2.6716,-2.9027,-2.9522,-3.028,-3.1161,-3.0807,-3.1146,-3.1823,-3.1879,-3.1879,-3.1992,-3.2609,-3.2206,-3.148,-3.1625,-3.1509,-3.1351,-3.1467,-3.1482,-3.1539,-3.1727,-3.167,-3.1597,-3.194,-3.1996,-3.2038,-3.2191,-3.2287,-3.2398,-3.2398,-3.2287,-3.2079,-3.161,-3.1747,-3.1327,0.0,0.0,0.0,0.0,0.0,0.0,0.0,0.0,0.0,0.0,0.0,0.0,0.0,0.0,0.0,0.0,0.0,0.0,-2.1151,0.0,-2.1288,-2.0702,-1.9097,0.0,-1.8137,-1.5441,-1.4079,-1.3876,-1.2929,-1.2175,-1.1585,-1.1389,-1.1096,-1.0801,-1.0801,-1.0998,-1.1194,-1.1194,-1.1439,-1.199,-1.3115,-1.3816,-1.4314,0.0,0.0,0.0,0.0,0.0,0.0,0.0,-2.7223,-2.7248,-2.6832,-2.6779,-2.6779,-2.6779,-2.6779,-2.6779,-2.6779,-2.6779,-2.6779,-2.6779,-2.6779,-2.6779,-2.6779,-2.6779,-2.6659,-2.6283,-2.6042,-2.5129,0.0,0.0,0.0,0.0,0.0,0.0,0.0,0.0,-2.1849,-2.3689,-2.5284,-2.6638,-2.7811,-2.8483,-2.9363,-3.0294,-3.0381,-3.1021,-3.1936,-3.2201,-3.2492,-3.278,-3.3043,-3.2594,-3.1894,-3.1739,-3.1625,-3.1509,-3.1307,-3.1307,-3.1409,-3.1467,-3.1482,-3.1524,-3.1655,-3.1769,-3.1898,-3.194,-3.2038,-3.2135,-3.2135,-3.215,-3.2038,-3.1853,-3.161,-3.1379,0.0,0.0,0.0,0.0,0.0,0.0,0.0,0.0,0.0,0.0,0.0,0.0,0.0,0.0,0.0,0.0,0.0,0.0,-2.1509,0.0,-2.1278,-2.0527,-1.959,-1.8574,-1.7611,-1.5605,-1.4263,-1.3432,-1.2411,-1.1564,-1.09,-1.0806,-1.0708,-1.0609,-1.0609,-1.0806,-1.1208,-1.134,-1.1562,-1.1935,-1.2888,-1.3667,-1.4277,-2.6595,0.0,-2.6995,0.0,-2.7437,-2.7461,-2.755,-2.7437,-2.7248,-2.6832,-2.6779,-2.6779,-2.6779,-2.6779,-2.6779,-2.6779,-2.6779,-2.6779,-2.6779,-2.6779,-2.6779,-2.6779,-2.6779,0.0,-2.619,-2.5988,-2.5296,-2.4077,-2.2738,0.0,0.0,0.0,0.0,0.0,-2.2101,-2.3193,-2.3946,-2.5494,-2.637,-2.6735,-2.7513,-2.8297,-2.9102,-2.942,-3.014,-3.0938,-3.1369,-3.2014,-3.2698,-3.2782,-3.2694,-3.2413,-3.1966,-3.1724,-3.1567,-3.119,-3.119,-3.1234,-3.1234,-3.1351,-3.1409,-3.1409,-3.1597,-3.1799,-3.1799,-3.1883,-3.1996,-3.1996,-3.194,-3.194,-3.1996,-3.1509,-3.1263,-3.1495,0.0,0.0,0.0,0.0,0.0,0.0,0.0,-2.6745,0.0,0.0,0.0,0.0,0.0,0.0,0.0,0.0,0.0,0.0,0.0,0.0,0.0,-2.0207,-1.9217,-1.787,-1.6163,-1.4741,-1.3409,-1.2088,-1.0964,-1.0314,-1.0413,-1.0413,-1.0413,-1.0511,-1.0801,-1.1217,-1.1435,-1.1638,-1.1944,-1.268,-1.3641,-1.4589,-2.7981,-2.8543,-2.8951,-2.8559,-2.8496,-2.8352,-2.7947,-2.761,-2.7248,-2.6832,-2.6779,-2.6779,-2.6779,-2.6779,-2.6779,-2.6779,-2.6779,-2.6779,-2.6779,-2.6779,-2.6779,0.0,0.0,-2.65,-2.5893,-2.5893,-2.5605,-2.4978,0.0,0.0,-2.2237,0.0,-2.1233,-2.2305,-2.3032,-2.3986,-2.4991,-2.5369,-2.584,-2.6408,-2.6707,-2.7243,-2.7792,-2.785,-2.814,-2.8581,-2.8846,-2.9948,-3.1282,-3.1626,-3.2426,-3.3134,-3.2413,-3.1894,-3.1437,-3.119,-3.1087,-3.1087,-3.1087,-3.119,-3.1278,-3.1278,-3.1539,-3.1799,-3.1799,-3.1883,-3.1996,-3.1996,-3.1898,-3.1841,-3.1996,-3.1739,-3.1306,-3.0629,0.0,0.0,0.0,0.0,0.0,0.0,-2.7338,-2.6794,-2.693,0.0,0.0,0.0,0.0,0.0,0.0,0.0,0.0,-2.435,-2.4238,0.0,-2.2402,-2.1125,-2.0232,-1.9607,-1.7251,-1.5473,-1.4309,-1.194,-1.0507,-1.0019,-1.0314,-1.0413,-1.0408,-1.0708,-1.0998,-1.1217,-1.1435,-1.1638,-1.1944,-1.268,-1.4049,-1.5417,-2.8716,-2.892,-2.8982,-2.8574,-2.8255,-2.7978,-2.761,-2.7233,-2.6937,-2.6832,-2.6779,-2.6779,-2.6779,-2.6779,-2.6779,0.0,-2.6779,-2.6779,0.0,-2.6779,-2.6779,-2.6779,-2.6779,-2.65,-2.5893,-2.5893,-2.5619,-2.5005,0.0,0.0,0.0,-2.3303,-2.3509,-2.415,-2.4409,-2.4708,-2.5005,-2.5131,-2.5423,-2.5771,-2.5883,-2.6399,-2.7102,-2.7102,-2.7698,-2.851,-2.8608,-2.9282,-3.0167,-3.0569,-3.1037,-3.1431,-3.1102,-3.1357,-3.1652,-3.0984,-3.0821,-3.0895,-3.0895,-3.1014,-3.119,-3.119,-3.1249,-3.1322,-3.1322,-3.138,-3.1366,-3.1366,-3.1366,-3.1322,-3.1366,-3.1307,-3.1176,-3.094,-3.1117,0.0,0.0,0.0,0.0,0.0,0.0,-2.7188,0.0,-2.5046,0.0,0.0,0.0,0.0,0.0,0.0,0.0,0.0,-2.3649,0.0,-2.1924,-2.1546,-2.0811,-1.9679,-1.8188,-1.657,-1.487,-1.4028,-1.3295,-1.2624,-1.215,-1.2247,-1.2721,-1.2247,-1.2538,-1.3346,-1.4155,-1.4476,-1.4401,-1.5246,-1.6094,-1.6903,-2.892,-2.8873,-2.8764,-2.8352,-2.7978,-2.7645,-2.7437,-2.7041,-2.6779,-2.6779,-2.6779,-2.6779,-2.6779,-2.6779,0.0,-2.6779,-2.6779,-2.6779,-2.6779,-2.6779,-2.6779,-2.6779,-2.6779,-2.65,-2.5893,0.0,0.0,-2.5005,-2.4694,-2.4559,-2.4559,-2.4559,-2.4708,-2.5005,-2.5005,-2.5005,-2.5005,-2.5005,-2.5131,-2.5313,-2.5313,-2.5645,-2.6119,-2.6119,-2.6581,-2.7188,-2.7315,-2.7946,-2.8724,-2.9237,-2.9824,-3.0454,-3.0335,-3.0708,-3.1011,-3.0306,-3.0207,-3.0338,-3.0338,-3.0646,-3.1014,-3.1014,-3.1014,-3.1087,-3.1087,-3.1087,-3.1087,-3.1087,-3.1087,-3.1087,-3.1087,-3.1014,-3.0955,-3.0821,-3.0776,-3.0597,0.0,0.0,0.0,0.0,0.0,0.0,0.0,-2.5068,0.0,0.0,0.0,0.0,0.0,0.0,0.0,-2.25,-2.3305,0.0,-2.1919,-2.187,-2.1228,-2.0042,-1.8488,-1.7193,-1.5876,-1.5308,-1.4632,-1.407,-1.359,-1.3686,-1.3974,-1.3596,-1.3878,-1.4694,-1.5531,-1.5752,-1.5727,-1.6488,-1.7219,-1.7955,-2.8511,-2.8463,0.0,0.0,-2.761,0.0,-2.735,-2.7041,-2.6779,-2.6779,-2.6779,-2.6779,-2.6779,-2.6779,-2.6779,-2.6779,0.0,0.0,0.0,-2.6779,-2.6779,-2.6779,-2.6779,-2.65,-2.5948,-2.5893,-2.5619,-2.5005,-2.5005,-2.5005,-2.5005,-2.5005,-2.5005,-2.5005,-2.5005,-2.5005,-2.5005,-2.5005,-2.5005,-2.5005,-2.5005,-2.5005,-2.5005,-2.5005,-2.5005,-2.5061,-2.5369,-2.6148,-2.7099,-2.7675,-2.8823,-3.0005,-2.9818,-2.9765,-2.969,-2.9396,-2.9427,-2.9566,-2.9566,-3.0046,-3.063,-3.063,-3.0822,-3.094,-3.094,-3.094,-3.094,-3.094,-3.094,-3.094,-3.094,-3.0763,-3.0571,-3.0182,-3.0029,-2.96,-2.8657,0.0,0.0,0.0,0.0,0.0,0.0,-2.5038,-2.4695,0.0,0.0,0.0,0.0,0.0,-2.1416,-2.3273,-2.3052,-2.2688,-2.2226,-2.1924,-2.1359,-2.0537,-1.8406,-1.7451,-1.7353,-1.5954,-1.5013,-1.4555,-1.4746,-1.4651,-1.4555,-1.4746,-1.493,-1.5261,-1.5927,-1.6147,-1.6218,-1.6801,-1.785,-1.8998,0.0,0.0,-2.7929,-2.7575,-2.7437,-2.7299,-2.6989,-2.6832,-2.6779,-2.6779,-2.6779,-2.6779,-2.6779,-2.6779,-2.6779,-2.6779,-2.6779,-2.6779,-2.6779,-2.6779,-2.6779,-2.6779,-2.6779,-2.6606,-2.619,-2.5988,-2.5619,-2.5005,-2.5005,-2.5005,-2.5005,-2.5005,-2.5005,-2.5005,-2.5005,-2.5005,-2.5005,-2.5005,-2.5005,-2.5005,-2.5005,-2.5005,-2.5005,-2.5005,-2.5005,-2.5005,-2.5075,-2.5605,-2.6254,-2.6687,-2.7372,-2.809,-2.8283,-2.8212,-2.8129,-2.9035,-2.9119,-2.8898,-2.8898,-2.9071,-2.9188,-2.9188,-2.9245,-2.9245,-2.9245,-2.9245,-2.9245,-2.9245,-2.9245,-2.9245,-2.9245,-2.9245,-2.9073,-2.8756,-2.8654,-2.8479,-2.805,-2.7991,0.0,0.0,-2.6177,-2.5743,-2.4418,-2.4274,-2.408,0.0,0.0,0.0,0.0,-2.1065,-2.0868,-2.1843,-2.2394,-2.2248,-2.1332,-2.1478,-2.1201,-2.0585,-1.9755,-1.9202,-1.8856,-1.8569,-1.8048,-1.7131,-1.6553,-1.6648,-1.7131,-1.6553,-1.6741,-1.7471,-1.8506,-1.886,-1.8844,-2.0015,-2.0783,-2.1089,-2.7695,-2.7645,-2.756,-2.7181,-2.7144,-2.7041,-2.6832,-2.6779,-2.6779,-2.6779,-2.6779,-2.6779,-2.6779,-2.6779,-2.6779,-2.6779,-2.6779,-2.6779,-2.6779,-2.6779,-2.6779,-2.6779,-2.6779,-2.6659,-2.6283,-2.6136,-2.5879,-2.5397,-2.53,-2.5257,-2.5257,-2.5061,-2.5005,-2.5005,-2.5005,-2.5005,-2.5005,-2.5005,-2.5005,-2.5005,-2.5005,-2.5005,-2.5005,-2.5188,-2.5257,-2.5244,-2.5342,-2.5619,-2.5948,-2.6297,-2.6774,-2.7255,-2.756,-2.7524,-2.7535,-2.8248,-2.8341,-2.8245,-2.8245,-2.8463,-2.8681,-2.8681,-2.8681,-2.8681,-2.8681,-2.8553,-2.8497,-2.8497,-2.8383,-2.8269,-2.8269,-2.8269,-2.8197,-2.785,-2.7778,-2.7675,-2.7395,-2.7335,0.0,-2.5985,-2.5785,-2.5242,-2.3983,-2.353,-2.3161,-2.2716,0.0,0.0,-2.1311,-2.0673,-2.0456,-2.0907,-2.1658,-2.162,-2.0868,-2.1118,-2.1104,-2.0909,-2.0145,-1.9871,-1.9974,-1.9754,-1.9397,-1.8896,-1.8419,-1.8427,-1.8635,-1.8334,-1.8427,-1.8891,-1.9878,-2.016,-2.0151,-2.126,-2.1626,-2.1486,-2.7386,-2.7299,-2.7196,-2.6832,-2.6779,-2.6779,-2.6779,-2.6832,-2.6884,-2.6884,-2.6884,-2.6884,-2.6884,-2.6846,-2.6779,-2.6779,-2.6779,-2.6779,-2.6779,-2.6779,-2.6779,-2.6779,-2.6779,-2.6659,-2.6404,-2.6351,-2.619,-2.5893,-2.5647,-2.555,-2.5494,-2.5188,-2.5061,-2.5005,-2.5005,-2.5005,-2.5005,-2.5005,-2.5005,-2.5005,-2.5005,-2.5005,-2.5005,-2.5313,-2.5439,-2.555,-2.5743,-2.5893,-2.5988,-2.6244,-2.6549,-2.6916,-2.7233,-2.7299,-2.7299,-2.7299,-2.7422,-2.7578,-2.7578,-2.7984,-2.839,-2.839,-2.839,-2.839,-2.839,-2.8208,-2.7982,-2.7911,-2.774,-2.7554,-2.7511,-2.7511,-2.7381,-2.6972,-2.6986,-2.6882,-2.6478,0.0,-2.6358,-2.5796,-2.5351,-2.4671,-2.3642,-2.2847,-2.2221,-2.1749,-2.1019,-2.0571,0.0,-2.0259,-2.0151,-2.0346,-2.0877,-2.0977,-2.0739,-2.0913,-2.1065,-2.1133,-2.0223,-2.0023,-2.058,-1.9966,-1.9812,-1.9816,-1.9816,-1.9554,-1.9208,-1.9644,-1.9644,-1.9546,-2.0235,-2.0525,-2.0657,-2.1428,-2.152,-2.1303,-2.6884,-2.6884,-2.6884,-2.6779,-2.6779,-2.6779,-2.6779,-2.7093,-2.7299,-2.7299,-2.7299,-2.7299,-2.7299,-2.6989,-2.6779,-2.6779,-2.6779,-2.6779,-2.6779,-2.6779,-2.6779,-2.6779,-2.6779,-2.6779,-2.6712,-2.6457,-2.619,-2.5893,-2.5839,-2.5688,-2.5494,-2.5439,-2.5257,-2.5005,-2.5005,-2.5005,-2.5005,-2.5005,-2.5005,-2.5005,-2.5005,-2.5005,-2.5005,-2.5061,-2.5257,-2.5494,-2.555,-2.5839,-2.6244,-2.6297,-2.6525,-2.6817,-2.6884,-2.6884,-2.6884,-2.6884,-2.6905,-2.6924,-2.6924,-2.7012,-2.707,-2.707,-2.707,-2.707,-2.707,-2.707,-2.6963,-2.6637,-2.6583,-2.6475,-2.6229,-2.6174,-2.5939,-2.5236,-2.5461,-2.5531,-2.4802,0.0,-2.5104,-2.4628,-2.4144,-2.3641,-2.3106,-2.2282,-2.1808,-2.1726,-2.1019,-2.0571,-2.0571,-2.0259,-2.0074,-1.9998,-2.0283,-2.0597,-2.078,-2.1237,-2.1148,-2.0674,-2.0895,-2.0561,-1.9943,-2.0036,-1.9865,-1.948,-1.9316,-1.9151,-1.9151,-1.9151,-1.9238,-1.9202,-1.9635,-1.9991,-2.0414,-2.1223,-2.1733,-2.2057,-2.6779,-2.6989,-2.7041,-2.6846,-2.6989,-2.7041,-2.6832,-2.7144,-2.7401,-2.7401,-2.7401,-2.7401,-2.7401,-2.7041,-2.6779,-2.6779,-2.6779,-2.6779,-2.6779,-2.6779,-2.6779,-2.6779,-2.6779,-2.6779,-2.6779,-2.6659,-2.6486,-2.6394,-2.6056,-2.5853,-2.5702,-2.5355,-2.5131,-2.5005,-2.5005,-2.5005,-2.5005,-2.5005,-2.5005,-2.5005,-2.5188,-2.5188,-2.5061,-2.5342,-2.5467,-2.555,-2.5853,-2.6096,-2.6351,-2.6525,-2.6659,-2.6779,-2.6779,-2.6659,-2.6592,-2.6727,-2.6779,-2.6779,-2.6779,-2.6779,-2.6779,-2.6592,-2.6539,-2.6486,-2.634,-2.6179,-2.6085,-2.5893,-2.5715,-2.5536,-2.5453,-2.5397,-2.5272,-2.4935,-2.5061,0.0,0.0,-2.4892,-2.4892,-2.4593,-2.4176,-2.359,-2.2944,-2.2125,-2.1514,-2.1146,-2.0646,-2.0335,-2.0335,-2.0205,-2.0009,-1.9868,-2.0307,-2.0726,-2.1104,-2.1353,-2.1349,-2.1118,-2.0928,-2.0748,-2.0576,-2.0438,-2.0393,-2.0352,-2.0268,-2.0099,-1.9827,-2.0099,-2.0099,-1.9777,-2.0009,-2.0394,-2.0861,-2.1431,-2.179,-2.2035,-2.6937,-2.7284,-2.7473,-2.7115,-2.7372,-2.7473,-2.7115,-2.7423,-2.7675,-2.7675,-2.7675,-2.7675,-2.7675,-2.7233,-2.6937,-2.6937,-2.6832,-2.6779,-2.6779,-2.6779,-2.6779,-2.6779,-2.6779,-2.6779,-2.6779,-2.6779,-2.6779,-2.6779,-2.634,-2.6056,-2.5988,-2.5495,-2.5272,-2.523,-2.523,-2.523,-2.523,-2.523,-2.523,-2.523,-2.5481,-2.5425,-2.5286,-2.5729,-2.5798,-2.5743,-2.6136,-2.6351,-2.6472,-2.6712,-2.6779,-2.6779,-2.6779,-2.6592,-2.6472,-2.6712,-2.6779,-2.6779,-2.6712,-2.6659,-2.6592,-2.6351,-2.6283,-2.6244,-2.6042,-2.5798,-2.5605,-2.5494,-2.5313,-2.5075,-2.5005,-2.5005,-2.4948,-2.4892,0.0,0.0,0.0,-2.4948,-2.4948,-2.4835,-2.4363,-2.3826,-2.316,-2.2175,-2.1376,-2.088,-2.0388,-2.0085,-2.0085,-2.0085,-2.0009,-1.9868,-2.0334,-2.0726,-2.1083,-2.1362,-2.1425,-2.1349,-2.0914,-2.0909,-2.1084,-2.0675,-2.0695,-2.1009,-2.0926,-2.066,-2.0301,-2.0752,-2.066,-2.0255,-2.0407,-2.0685,-2.1083,-2.1571,-2.178,-2.1971,-2.7437,-2.7845,-2.8158,-2.7864,-2.8061,-2.8158,-2.7864,-2.8158,-2.8415,-2.8415,-2.8415,-2.8415,-2.8415,-2.776,-2.735,-2.735,-2.7041,-2.6779,-2.6779,-2.6779,-2.6779,-2.6779,-2.6779,-2.6779,-2.6779,-2.6779,-2.6779,-2.6779,-2.6779,-2.6592,-2.6297,-2.6229,-2.6082,-2.5839,-2.5839,-2.5839,-2.5839,-2.5839,-2.5839,-2.5839,-2.5839,-2.5839,-2.5839,-2.5893,-2.6042,-2.6244,-2.6297,-2.6472,-2.6779,-2.6779,-2.6779,-2.6779,-2.6779,-2.6779,-2.6779,-2.6779,-2.6779,-2.6712,-2.6404,-2.6351,-2.6351,-2.6297,-2.6283,-2.6283,-2.6297,-2.6042,-2.5798,-2.555,-2.5494,-2.5383,-2.5061,-2.5005,-2.4892,-2.4408,0.0,0.0,-2.4408,-2.4708,-2.4948,-2.4835,-2.4363,-2.4015,-2.3793,-2.2421,-2.1553,-2.1553,-2.0635,-2.0085,-2.0085,-2.0085,-2.0009,-1.9868,-2.0172,-2.0244,-2.008,-2.0948,-2.124,-2.0879,-2.108,-2.1071,-2.0878,-2.0469,-2.0332,-2.0361,-2.0115,-1.9957,-1.9957,-1.9957,-1.9957,-1.9957,-1.9986,-2.0259,-2.0674,-2.108,-2.1495,-2.1891,-2.7978,-2.8222,-2.8304,-2.7947,-2.8352,-2.8543,-2.8207,-2.8591,-2.8919,-2.8919,-2.8842,-2.8764,-2.8764,-2.8125,-2.761,-2.7401,-2.7248,-2.7093,-2.6832,-2.6779,-2.6779,-2.6779,-2.6779,-2.6779,-2.6779,-2.6779,-2.6779,-2.6779,-2.6592,-2.6404,-2.6283,-2.6136,-2.5988,-2.5893,-2.5893,-2.5893,-2.5893,-2.5893,-2.5893,-2.5893,-2.6096,-2.6042,-2.5893,-2.6096,-2.6096,-2.6096,-2.6244,-2.6404,-2.6525,-2.6727,-2.6779,-2.6779,-2.6779,-2.6659,-2.6472,-2.6472,-2.6472,-2.6472,-2.6336,-2.6283,-2.6283,-2.6283,-2.6042,-2.5798,-2.5798,-2.5564,-2.5286,-2.5188,-2.5188,-2.5131,-2.5005,-2.5005,-2.4948,-2.4765,0.0,-2.4948,-2.4765,-2.4892,-2.4948,-2.4835,-2.4664,-2.4305,-2.3708,-2.3088,-2.2457,-2.2089,-2.125,-2.07,-2.07,-2.0259,-2.0009,-2.0009,-2.0051,-2.002,-1.9975,-2.0813,-2.1114,-2.0977,-2.1288,-2.1359,-2.1282,-2.0974,-2.0896,-2.0819,-2.0586,-2.0508,-2.0508,-2.0411,-2.0333,-2.0333,-2.0177,-2.0445,-2.0795,-2.1278,-2.1709,-2.215,-2.8622,-2.8826,-2.8889,-2.8496,-2.8842,-2.9074,-2.8732,-2.9012,-2.9303,-2.9377,-2.9212,-2.909,-2.909,-2.84,-2.783,-2.7575,-2.7335,-2.7093,-2.6832,-2.6779,-2.6779,-2.6779,-2.6779,-2.6779,-2.6779,-2.6779,-2.6779,-2.6779,-2.6592,-2.6472,-2.6472,-2.6272,-2.6179,-2.6179,-2.6179,-2.6179,-2.6179,-2.6179,-2.6179,-2.6233,-2.6365,-2.6379,-2.6218,-2.6365,-2.6326,-2.6233,-2.6365,-2.6472,-2.6472,-2.6712,-2.6779,-2.6779,-2.6779,-2.6659,-2.6472,-2.6472,-2.6472,-2.6472,-2.6472,-2.6351,-2.6283,-2.6283,-2.6042,-2.5743,-2.5743,-2.5467,-2.5188,-2.5188,-2.5061,-2.5005,-2.5005,-2.5005,-2.5005,-2.5005,-2.5005,-2.5005,-2.5005,-2.5005,-2.4948,-2.4835,-2.4778,-2.4549,-2.3943,-2.3623,-2.3195,-2.2761,-2.1978,-2.1553,-2.1491,-2.0933,-2.0506,-2.0335,-2.0259,-2.0084,-1.9891,-2.0665,-2.1053,-2.098,-2.1367,-2.1502,-2.1502,-2.1282,-2.1205,-2.1205,-2.1061,-2.0984,-2.0984,-2.0809,-2.0809,-2.0799,-2.0654,-2.0771,-2.1004,-2.1484,-2.1924,-2.2373,-2.9287,-2.9766,-3.006,-2.956,-2.9677,-2.9722,-2.956,-2.9515,-2.9605,-2.9766,-2.9649,-2.9515,-2.9515,-2.8543,-2.7898,-2.7898,-2.7255,-2.6779,-2.6779,-2.6779,-2.6779,-2.6779,-2.6779,-2.6779,-2.6779,-2.6779,-2.6779,-2.6779,-2.6779,-2.6779,-2.6779,-2.6779,-2.6779,-2.6779,-2.6779,-2.6779,-2.6779,-2.6779,-2.6779,-2.6779,-2.6779,-2.6779,-2.6779,-2.6779,-2.6779,-2.6779,-2.6779,-2.6779,-2.6779,-2.6779,-2.6779,-2.6779,-2.6779,-2.6779,-2.6779,-2.6779,-2.6779,-2.6779,-2.6779,-2.6539,-2.6283,-2.6283,-2.6283,-2.6283,-2.6283,-2.5893,-2.5494,-2.5494,-2.5244,-2.5005,-2.5005,-2.5005,-2.5005,-2.5005,-2.5005,-2.5005,-2.5005,-2.5005,-2.4948,-2.4835,-2.4778,-2.4721,-2.462,-2.4002,-2.3636,-2.3636,-2.2967,-2.2531,-2.2335,-2.2163,-2.1741,-2.0955,-2.0903,-2.0506,-1.9605,-2.0552,-2.0868,-2.0715,-2.1223,-2.1502,-2.1502,-2.1282,-2.1205,-2.1205,-2.1205,-2.1205,-2.1205,-2.1205,-2.1215,-2.1205,-2.1205,-2.1205,-2.1265,-2.1688,-2.213,-2.2583,-2.9913,-2.9897,-2.9897,-2.9722,-2.9913,-3.0044,-3.0017,-3.0087,-3.0172,-3.0087,-2.9853,-2.9633,-2.9515,-2.9059,-2.8511,-2.7947,-2.7715,-2.7342,-2.6832,-2.6779,-2.6779,-2.6779,-2.6779,-2.6779,-2.6779,-2.6779,-2.6779,-2.6779,-2.6779,-2.6779,-2.6779,-2.6779,-2.6779,-2.6779,-2.6779,-2.6779,-2.6779,-2.6779,-2.6779,-2.6779,-2.6779,-2.6779,-2.6779,-2.6779,-2.6779,-2.6779,-2.6779,-2.6779,-2.6779,-2.6779,-2.6779,-2.6779,-2.6779,-2.6779,-2.6779,-2.6779,-2.6779,-2.6779,-2.6779,-2.6727,-2.6659,-2.6659,-2.6326,-2.6042,-2.6042,-2.5893,-2.5688,-2.5244,-2.5257,-2.5257,-2.5061,-2.5005,-2.5005,-2.5005,-2.5005,-2.5005,-2.5005,-2.5005,-2.5005,-2.4948,-2.4948,-2.4892,-2.4892,-2.4593,-2.4421,-2.4421,-2.3754,-2.3015,-2.2335,-2.2274,-2.2101,-2.1741,-2.1741,-2.1376,-2.0688,-2.0726,-2.0786,-2.0715,-2.1362,-2.1731,-2.1731,-2.1655,-2.1949,-2.2478,-2.2306,-2.222,-2.222,-2.2069,-2.1711,-2.1205,-2.1205,-2.1205,-2.1332,-2.2283,-2.2757,-2.3066,-3.0316,-3.0172,-3.0027,-2.9984,-3.0087,-3.0189,-3.0189,-3.0316,-3.0359,-3.0316,-3.013,-2.9913,-2.9782,-2.9335,-2.8764,-2.8094,-2.7665,-2.7306,-2.6832,-2.6779,-2.6779,-2.6779,-2.6779,-2.6779,-2.6779,-2.6779,-2.6779,-2.6779,-2.6779,-2.6779,-2.6779,-2.6779,-2.6779,-2.6779,-2.6779,-2.6779,-2.6779,-2.6779,-2.6779,-2.6779,-2.6779,-2.6779,-2.6779,-2.6779,-2.6779,-2.6779,-2.6779,-2.6779,-2.6779,-2.6779,-2.6779,-2.6779,-2.6779,-2.6779,-2.6779,-2.6779,-2.6779,-2.6779,-2.6779,-2.6779,-2.6779,-2.6779,-2.65,-2.6286,-2.6286,-2.6056,-2.5839,-2.555,-2.5522,-2.5439,-2.5257,-2.5188,-2.5131,-2.5005,-2.5005,-2.5005,-2.5005,-2.5005,-2.5005,-2.5005,-2.5005,-2.5005,-2.5005,-2.4948,-2.4892,-2.4892,-2.4363,-2.3813,-2.3255,-2.3122,-2.2895,-2.2531,-2.247,-2.2163,-2.1491,-2.1711,-2.1655,-2.1398,-2.2144,-2.267,-2.2947,-2.2883,-2.3117,-2.3559,-2.3316,-2.3231,-2.3243,-2.3084,-2.2809,-2.2371,-2.2371,-2.2166,-2.2056,-2.3048,-2.334,-2.3436,-3.0526,-3.0526,-3.0443,-3.0274,-3.0248,-3.0248,-3.0248,-3.0248,-3.0274,-3.0443,-3.0316,-3.0189,-3.0146,-2.9454,-2.8795,-2.84,-2.7444,-2.6884,-2.6832,-2.6832,-2.6846,-2.6779,-2.6779,-2.6779,-2.6779,-2.6779,-2.6779,-2.6779,-2.6779,-2.6779,-2.6779,-2.6779,-2.6779,-2.6779,-2.6779,-2.6779,-2.6779,-2.6779,-2.6779,-2.6779,-2.6779,-2.6779,-2.6779,-2.6779,-2.6779,-2.6779,-2.6779,-2.6779,-2.6779,-2.6779,-2.6779,-2.6779,-2.6779,-2.6779,-2.6779,-2.6779,-2.6779,-2.6779,-2.6779,-2.6779,-2.6779,-2.6779,-2.6779,-2.6779,-2.6779,-2.634,-2.6056,-2.6244,-2.5893,-2.555,-2.5494,-2.5494,-2.5383,-2.5061,-2.5005,-2.5005,-2.5005,-2.5005,-2.5005,-2.5005,-2.5005,-2.5005,-2.5005,-2.5005,-2.5005,-2.5005,-2.4892,-2.4778,-2.462,-2.4421,-2.3989,-2.3207,-2.3207,-2.2895,-2.2224,-2.3083,-2.3144,-2.2503,-2.327,-2.4013,-2.466,-2.4541,-2.448,-2.448,-2.4325,-2.4253,-2.4253,-2.4264,-2.4181,-2.412,-2.412,-2.3694,-2.3213,-2.3913,-2.4039,-2.3928,-3.0526,-3.0526,-3.0485,-3.0443,-3.0426,-3.0426,-3.0426,-3.0426,-3.0401,-3.0274,-3.0231,-3.0146,-2.9897,-2.9722,-2.9393,-2.8795,-2.811,-2.7545,-2.7299,-2.7248,-2.7144,-2.6832,-2.6779,-2.6779,-2.6779,-2.6779,-2.6779,-2.6779,-2.6779,-2.6779,-2.6779,-2.6779,-2.6779,-2.6779,-2.6779,-2.6779,-2.6779,-2.6779,-2.6779,-2.6779,-2.6779,-2.6779,-2.6779,-2.6779,-2.6779,-2.6779,-2.6779,-2.6779,-2.6779,-2.6779,-2.6779,-2.6779,-2.6779,-2.6779,-2.6779,-2.6779,-2.6779,-2.6779,-2.6779,-2.6779,-2.6779,-2.6779,-2.6779,-2.6727,-2.6472,-2.6486,-2.65,-2.6056,-2.5893,-2.5743,-2.555,-2.5494,-2.5383,-2.5061,-2.5244,-2.5313,-2.5061,-2.5005,-2.5005,-2.5005,-2.5005,-2.5005,-2.5005,-2.5005,-2.5005,-2.5005,-2.4948,-2.4892,-2.4778,-2.4721,-2.4478,-2.4047,-2.4047,-2.3682,-2.2907,-2.3876,-2.403,-2.3211,-2.4038,-2.4517,-2.4732,-2.4672,-2.4957,-2.5463,-2.5463,-2.5463,-2.5392,-2.5334,-2.4909,-2.4337,-2.4192,-2.3975,-2.3986,-2.4719,-2.5016,-2.5098,-3.0526,-3.0526,-3.0526,-3.0526,-3.0526,-3.0526,-3.0526,-3.0526,-3.0468,-3.0359,-3.0359,-3.03,-3.0156,-3.0044,-2.9722,-2.912,-2.8591,-2.8207,-2.8042,-2.7795,-2.7509,-2.724,-2.7026,-2.6899,-2.6779,-2.6779,-2.6779,-2.6779,-2.6779,-2.6779,-2.6779,-2.6779,-2.6779,-2.6779,-2.6779,-2.6779,-2.6779,-2.6779,-2.6779,-2.6779,-2.6779,-2.6779,-2.6779,-2.6779,-2.6779,-2.6779,-2.6779,-2.6779,-2.6779,-2.6779,-2.6779,-2.6779,-2.6779,-2.6779,-2.6779,-2.6779,-2.6779,-2.6779,-2.6779,-2.6779,-2.6779,-2.6779,-2.6779,-2.6727,-2.6592,-2.6539,-2.6539,-2.634,-2.6218,-2.6042,-2.5893,-2.5893,-2.5784,-2.5508,-2.5481,-2.5439,-2.5257,-2.5131,-2.5005,-2.5005,-2.5005,-2.5005,-2.5005,-2.5005,-2.5005,-2.5005,-2.5005,-2.4948,-2.4778,-2.4778,-2.4664,-2.4421,-2.4421,-2.4176,-2.3695,-2.4779,-2.509,-2.4551,-2.5171,-2.5685,-2.602,-2.5963,-2.6183,-2.6539,-2.6414,-2.6346,-2.6346,-2.6289,-2.6,-2.5639,-2.5417,-2.5122,-2.4909,-2.5581,-2.5886,-2.5992,-3.0526,-3.0526,-3.0526,-3.0526,-3.0526,-3.0526,-3.0526,-3.0526,-3.0526,-3.0526,-3.0526,-3.0526,-3.0526,-3.0316,-3.0,-2.9422,-2.9058,-2.8873,-2.8779,-2.8384,-2.7997,-2.7735,-2.7357,-2.7078,-2.6884,-2.6846,-2.6832,-2.6779,-2.6779,-2.6779,-2.6779,-2.6779,-2.6779,-2.6779,-2.6779,-2.6779,-2.6779,-2.6779,-2.6779,-2.6779,-2.6779,-2.6779,-2.6779,-2.6779,-2.6779,-2.6779,-2.6779,-2.6779,-2.6779,-2.6779,-2.6779,-2.6779,-2.6779,-2.6779,-2.6779,-2.6779,-2.6779,-2.6779,-2.6779,-2.6779,-2.6779,-2.6779,-2.6779,-2.6779,-2.6779,-2.6592,-2.6472,-2.6727,-2.6525,-2.6283,-2.6283,-2.6283,-2.619,-2.5948,-2.5743,-2.5592,-2.555,-2.5313,-2.5075,-2.5075,-2.5005,-2.5005,-2.5005,-2.5005,-2.5005,-2.5005,-2.5005,-2.4948,-2.4835,-2.4835,-2.4778,-2.462,-2.462,-2.4549,-2.435,-2.5374,-2.5844,-2.5837,-2.6266,-2.6815,-2.7523,-2.7403,-2.7335,-2.7335,-2.7146,-2.7079,-2.7079,-2.7079,-2.7011,-2.7011,-2.6794,-2.6358,-2.5918,-2.6371,-2.6602,-2.6602,-3.0526,-3.0526,-3.0526,-3.0526,-3.0526,-3.0526,-3.0526,-3.0526,-3.0526,-3.0526,-3.0526,-3.0526,-3.0526,-3.0316,-3.0146,-3.006,-2.981,-2.9512,-2.915,-2.9042,-2.867,-2.7898,-2.7815,-2.7595,-2.7181,-2.7041,-2.6899,-2.6779,-2.6779,-2.6779,-2.6779,-2.6779,-2.6779,-2.6779,-2.6779,-2.6779,-2.6779,-2.6779,-2.6779,-2.6779,-2.6779,-2.6779,-2.6779,-2.6779,-2.6779,-2.6779,-2.6779,-2.6779,-2.6779,-2.6779,-2.6779,-2.6779,-2.6779,-2.6779,-2.6779,-2.6779,-2.6779,-2.6779,-2.6779,-2.6779,-2.6779,-2.6779,-2.6779,-2.6779,-2.6779,-2.6779,-2.6727,-2.6779,-2.6525,-2.6283,-2.6283,-2.6283,-2.619,-2.5948,-2.6042,-2.6096,-2.5893,-2.5592,-2.5439,-2.5439,-2.5188,-2.5005,-2.5005,-2.5005,-2.5005,-2.5005,-2.5005,-2.5005,-2.4948,-2.4948,-2.4892,-2.4778,-2.4778,-2.4721,-2.4563,-2.5051,-2.5511,-2.5949,-2.6413,-2.6974,-2.7523,-2.7469,-2.7469,-2.7469,-2.7469,-2.7403,-2.7403,-2.7335,-2.7268,-2.7214,-2.7011,-2.6875,-2.6807,-2.6875,-2.6943,-2.6943,-3.0526,-3.0526,-3.0526,-3.0526,-3.0526,-3.0526,-3.0526,-3.0526,-3.0526,-3.0526,-3.0526,-3.0526,-3.0526,-3.0443,-3.0359,-3.0359,-3.0258,-3.0113,-2.9924,-2.9705,-2.9316,-2.8888,-2.8575,-2.8319,-2.8027,-2.7993,-2.7795,-2.7393,-2.7011,-2.6779,-2.6779,-2.6779,-2.6779,-2.6779,-2.6779,-2.6779,-2.6779,-2.6779,-2.6779,-2.6779,-2.6779,-2.6779,-2.6779,-2.6779,-2.6779,-2.6779,-2.6779,-2.6779,-2.6779,-2.6779,-2.6779,-2.6779,-2.6779,-2.6779,-2.6779,-2.6779,-2.6779,-2.6779,-2.6779,-2.6779,-2.6779,-2.6779,-2.6779,-2.6779,-2.6779,-2.6779,-2.6779,-2.6779,-2.6659,-2.6592,-2.6592,-2.6592,-2.6539,-2.6447,-2.6365,-2.6244,-2.6136,-2.5893,-2.5647,-2.5494,-2.5188,-2.5005,-2.5005,-2.5005,-2.5005,-2.5005,-2.5005,-2.5005,-2.5005,-2.5005,-2.4948,-2.4892,-2.4892,-2.4778,-2.462,-2.5076,-2.5382,-2.5476,-2.6306,-2.6974,-2.7523,-2.7523,-2.7523,-2.7523,-2.7523,-2.7523,-2.7523,-2.7469,-2.7403,-2.7403,-2.7214,-2.7079,-2.7024,-2.7024,-2.7024,-2.7024]},{"header":{"parameterUnit":"m.s-1","parameterCategory":1,"la1":30.6,"la2":28.766,"lo1":-90.7593,"lo2":-88.6598,"dy":0.0162,"dx":0.0183,"nx":116,"ny":114,"refTime":"2023-07-28T12:00:00:Z","depth":0,"parameterNumber":3,"parameterNumberName":"V-component_of_WINDS"},"data":[0.0,0.0,0.0,0.0,0.0,0.0,0.0,0.0,0.0,0.0,0.0,0.0,0.0,0.0,0.0,0.0,0.0,0.0,0.0,0.0,0.0,0.0,0.0,0.0,0.0,0.0,0.0,0.0,0.0,0.0,0.0,0.0,0.0,0.0,0.0,0.0,0.0,0.0,0.0,0.0,0.0,0.0,0.0,0.0,0.0,0.0,0.0,0.0,0.0,0.0,0.0,0.0,0.0,0.0,0.0,0.0,0.0,0.0,0.0,0.0,0.0,0.0,0.0,0.0,0.0,0.0,0.0,0.0,0.0,0.0,0.0,0.0,0.0,0.0,0.0,0.0,0.0,0.0,0.0,0.0,0.0,0.0,0.0,0.0,0.0,0.0,0.0,0.0,0.0,0.0,0.0,0.0,0.0,0.0,0.0,0.0,0.0,0.0,0.0,0.0,0.0,0.0,0.0,0.0,0.0,0.0,0.0,0.0,0.0,0.0,0.0,0.0,0.0,0.0,0.0,0.0,0.0,0.0,0.0,0.0,0.0,0.0,0.0,0.0,0.0,0.0,0.0,0.0,0.0,0.0,0.0,0.0,0.0,0.0,0.0,0.0,0.0,0.0,0.0,0.0,0.0,0.0,0.0,0.0,0.0,0.0,0.0,0.0,0.0,0.0,0.0,0.0,0.0,0.0,0.0,0.0,0.0,0.0,0.0,0.0,0.0,0.0,0.0,0.0,0.0,0.0,0.0,0.0,0.0,0.0,0.0,0.0,0.0,0.0,0.0,0.0,0.0,0.0,0.0,0.0,0.0,0.0,0.0,0.0,0.0,0.0,0.0,0.0,0.0,0.0,0.0,0.0,0.0,0.0,0.0,0.0,0.0,0.0,0.0,0.0,0.0,0.0,0.0,0.0,0.0,0.0,0.0,0.0,0.0,0.0,0.0,0.0,0.0,0.0,0.0,0.0,0.0,0.0,0.0,0.0,0.0,0.0,0.0,0.0,0.0,0.0,0.0,0.0,0.0,0.0,0.0,0.0,0.0,0.0,0.0,0.0,0.0,0.0,0.0,0.0,0.0,0.0,0.0,0.0,0.0,0.0,0.0,0.0,0.0,0.0,0.0,0.0,0.0,0.0,0.0,0.0,0.0,0.0,0.0,0.0,0.0,0.0,0.0,0.0,0.0,0.0,0.0,0.0,0.0,0.0,0.0,0.0,0.0,0.0,0.0,0.0,0.0,0.0,0.0,0.0,0.0,0.0,0.0,0.0,0.0,0.0,0.0,0.0,0.0,0.0,0.0,0.0,0.0,0.0,0.0,0.0,0.0,0.0,0.0,0.0,0.0,0.0,0.0,0.0,0.0,0.0,0.0,0.0,0.0,0.0,0.0,0.0,0.0,0.0,0.0,0.0,0.0,0.0,0.0,0.0,0.0,0.0,0.0,0.0,0.0,0.0,0.0,0.0,0.0,0.0,0.0,0.0,0.0,0.0,0.0,0.0,0.0,0.0,0.0,0.0,0.0,0.0,0.0,0.0,0.0,0.0,0.0,0.0,0.0,0.0,0.0,0.0,0.0,0.0,0.0,0.0,0.0,0.0,0.0,0.0,0.0,0.0,0.0,0.0,0.0,0.0,0.0,0.0,0.0,0.0,0.0,0.0,0.0,0.0,0.0,0.0,0.0,0.0,0.0,0.0,0.0,0.0,0.0,0.0,0.0,0.0,0.0,0.0,0.0,0.0,0.0,0.0,0.0,0.0,0.0,0.0,0.0,0.0,0.0,0.0,0.0,0.0,0.0,0.0,0.0,0.0,0.0,0.0,0.0,0.0,0.0,0.0,0.0,0.0,0.0,0.0,0.0,0.0,0.0,0.0,0.0,0.0,0.0,0.0,0.0,0.0,0.0,0.0,0.0,0.0,0.0,0.0,0.0,0.0,0.0,0.0,0.0,0.0,0.0,0.0,0.0,0.0,0.0,0.0,0.0,0.0,0.0,0.0,0.0,0.0,0.0,0.0,0.0,0.0,0.0,0.0,0.0,0.0,0.0,0.0,0.0,0.0,0.0,0.0,0.0,0.0,0.0,0.0,0.0,0.0,0.0,0.0,0.0,0.0,0.0,0.0,0.0,0.0,0.0,0.0,0.0,0.0,0.0,0.0,0.0,0.0,0.0,0.0,0.0,0.0,0.0,0.0,0.0,0.0,0.0,0.0,0.0,0.0,0.0,0.0,0.0,0.0,0.0,0.0,0.0,0.0,0.0,0.0,0.0,0.0,0.0,0.0,0.0,0.0,0.0,0.0,0.0,0.0,0.0,0.0,0.0,0.0,0.0,0.0,0.0,0.0,0.0,0.0,0.0,0.0,0.0,0.0,0.0,0.0,0.0,0.0,0.0,0.0,0.0,0.0,0.0,0.0,0.0,0.0,0.0,0.0,0.0,0.0,0.0,0.0,0.0,0.0,0.0,0.0,0.0,0.0,0.0,0.0,0.0,0.0,0.0,0.0,0.0,0.0,0.0,0.0,0.0,0.0,0.0,0.0,0.0,0.0,0.0,0.0,0.0,0.0,0.0,0.0,0.0,0.0,0.0,0.0,0.0,0.0,0.0,0.0,0.0,0.0,0.0,0.0,0.0,0.0,0.0,0.0,0.0,0.0,0.0,0.0,0.0,0.0,0.0,0.0,0.0,0.0,0.0,0.0,0.0,0.0,0.0,0.0,0.0,0.0,0.0,0.0,0.0,0.0,0.0,0.0,0.0,0.0,0.0,0.0,0.0,0.0,0.0,0.0,0.0,0.0,0.0,0.0,0.0,0.0,0.0,0.0,0.0,0.0,0.0,0.0,0.0,0.0,0.0,0.0,0.0,0.0,0.0,0.0,0.0,0.0,0.0,0.0,0.0,0.0,0.0,0.0,0.0,0.0,0.0,0.0,0.0,0.0,0.0,0.0,0.0,0.0,0.0,0.0,0.0,0.0,0.0,0.0,0.0,0.0,0.0,0.0,0.0,0.0,0.0,0.0,0.0,0.0,0.0,0.0,0.0,0.0,0.0,0.0,0.0,0.0,0.0,0.0,0.0,0.0,0.0,0.0,0.0,0.0,0.0,0.0,0.0,0.0,0.0,0.0,0.0,0.0,0.0,0.0,0.0,0.0,0.0,0.0,0.0,0.0,0.0,0.0,0.0,0.0,0.0,0.0,0.0,0.0,0.0,0.0,0.0,0.0,0.0,0.0,0.0,0.0,0.0,0.0,0.0,0.0,0.0,0.0,0.0,0.0,0.0,0.0,0.0,0.0,0.0,0.0,0.0,0.0,0.0,0.0,0.0,0.0,0.0,0.0,0.0,0.0,0.0,0.0,0.0,0.0,0.0,0.0,0.0,0.0,0.0,0.0,0.0,0.0,0.0,0.0,0.0,0.0,0.0,0.0,0.0,0.0,0.0,0.0,0.0,0.0,0.0,0.0,0.0,0.0,0.0,0.0,0.0,0.0,0.0,0.0,0.0,0.0,0.0,0.0,0.0,0.0,0.0,0.0,0.0,0.0,0.0,0.0,0.0,0.0,0.0,0.0,0.0,0.0,0.0,0.0,0.0,0.0,0.0,0.0,0.0,0.0,0.0,0.0,0.0,0.0,0.0,0.0,0.0,0.0,0.0,0.0,0.0,0.0,0.0,0.0,0.0,0.0,0.0,0.0,0.0,0.0,0.0,0.0,0.0,0.0,0.0,0.0,0.0,0.0,0.0,0.0,0.0,0.0,0.0,0.0,0.0,0.0,0.0,0.0,0.0,0.0,0.0,0.0,0.0,0.0,0.0,0.0,0.0,0.0,0.0,0.0,0.0,0.0,0.0,0.0,0.0,0.0,0.0,0.0,0.0,0.0,0.0,0.0,0.0,0.0,0.0,0.0,0.0,0.0,0.0,0.0,0.0,0.0,0.0,0.0,0.0,0.0,0.0,0.0,0.0,0.0,0.0,0.0,0.0,0.0,0.0,0.0,0.0,0.0,0.0,0.0,0.0,0.0,0.0,0.0,0.0,0.0,0.0,0.0,0.0,0.0,0.0,0.0,0.0,0.0,0.0,0.0,0.0,0.0,0.0,0.0,0.0,0.0,0.0,0.0,0.0,0.0,0.0,0.0,0.0,0.0,0.0,0.0,0.0,0.0,0.0,0.0,0.0,0.0,0.0,0.0,0.0,0.0,0.0,0.0,0.0,0.0,0.0,0.0,0.0,0.0,0.0,0.0,0.0,0.0,0.0,0.0,0.0,0.0,0.0,0.0,0.0,0.0,0.0,0.0,0.0,0.0,0.0,0.0,0.0,0.0,0.0,0.0,0.0,0.0,0.0,0.0,0.0,0.0,0.0,0.0,0.0,0.0,0.0,0.0,0.0,0.0,0.0,0.0,0.0,0.0,0.0,0.0,0.0,0.0,0.0,0.0,0.0,0.0,0.0,0.0,0.0,0.0,0.0,0.0,0.0,0.0,0.0,0.0,0.0,0.0,0.0,0.0,0.0,0.0,0.0,0.0,0.0,0.0,0.0,0.0,0.0,0.0,0.0,0.0,0.0,0.0,0.0,0.0,0.0,0.0,0.0,0.0,0.0,0.0,0.0,0.0,0.0,0.0,0.0,0.0,0.0,0.0,0.0,0.0,0.0,0.0,0.0,0.0,0.0,0.0,0.0,0.0,0.0,0.0,0.0,0.0,0.0,0.0,0.0,0.0,0.0,0.0,0.0,0.0,0.0,0.0,0.0,0.0,0.0,0.0,0.0,0.0,0.0,0.0,0.0,0.0,0.0,0.0,0.0,0.0,0.0,0.0,0.0,0.0,0.0,0.0,0.0,0.0,0.0,0.0,0.0,0.0,0.0,0.0,0.0,0.0,0.0,0.0,0.0,0.0,0.0,0.0,0.0,0.0,0.0,0.0,0.0,0.0,0.0,0.0,0.0,0.0,0.0,0.0,0.0,0.0,0.0,0.0,0.0,0.0,0.0,0.0,0.0,0.0,0.0,0.0,0.0,0.0,0.0,0.0,0.0,0.0,0.0,0.0,0.0,0.0,0.0,0.0,0.0,0.0,0.0,0.0,0.0,0.0,0.0,0.0,0.0,0.0,0.0,0.0,0.0,0.0,0.0,0.0,0.0,0.0,0.0,0.0,0.0,0.0,0.0,0.0,0.0,0.0,0.0,0.0,0.0,0.0,0.0,0.0,0.0,0.0,0.0,0.0,0.0,0.0,0.0,0.0,0.0,0.0,0.0,0.0,0.0,0.0,0.0,0.0,0.0,0.0,0.0,0.0,0.0,0.0,0.0,0.0,0.0,0.0,0.0,0.0,0.0,0.0,0.0,0.0,0.0,0.0,0.0,0.0,0.0,0.0,0.0,0.0,0.0,0.0,0.0,0.0,0.0,0.0,0.0,0.0,0.0,0.0,0.0,0.0,0.0,0.0,0.0,0.0,0.0,0.0,0.0,0.0,0.0,0.0,0.0,0.0,0.0,0.0,0.0,0.0,0.0,0.0,0.0,0.0,0.0,0.0,0.0,0.0,0.0,0.0,0.0,0.0,0.0,0.0,0.0,0.0,0.0,0.0,0.0,0.0,0.0,0.0,0.0,0.0,0.0,0.0,0.0,0.0,0.0,0.0,0.0,0.0,0.0,0.0,0.0,0.0,0.0,0.0,0.0,0.0,0.0,0.0,0.0,0.0,0.0,0.0,0.0,0.0,0.0,0.0,0.0,0.0,0.0,0.0,0.0,0.0,0.0,0.0,0.0,0.0,0.0,0.0,0.0,0.0,0.0,0.0,0.0,0.0,0.0,0.0,0.0,0.0,0.0,0.0,0.0,0.0,0.0,0.0,0.0,0.0,0.0,0.0,0.0,0.0,0.0,0.0,0.0,0.0,0.0,0.0,0.0,0.0,0.0,0.0,0.0,0.0,0.0,0.0,0.0,0.0,0.0,0.0,0.0,0.0,0.0,0.0,0.0,0.0,0.0,0.0,0.0,0.0,0.0,0.0,0.0,0.0,0.0,0.0,0.0,0.0,0.0,0.0,0.0,0.0,0.0,0.0,0.0,0.0,0.0,0.0,0.0,0.0,0.0,0.0,0.0,0.0,0.0,0.0,0.0,0.0,-2.1939,0.0,0.0,0.0,0.0,0.0,0.0,0.0,0.0,0.0,0.0,0.0,0.0,0.0,0.0,0.0,0.0,0.0,0.0,0.0,0.0,0.0,0.0,0.0,0.0,0.0,0.0,0.0,0.0,0.0,0.0,0.0,0.0,0.0,0.0,0.0,0.0,0.0,0.0,0.0,0.0,0.0,0.0,0.0,0.0,0.0,0.0,0.0,0.0,0.0,0.0,0.0,0.0,0.0,0.0,0.0,0.0,0.0,0.0,0.0,0.0,0.0,0.0,0.0,0.0,0.0,0.0,0.0,0.0,0.0,0.0,0.0,0.0,0.0,0.0,0.0,0.0,0.0,0.0,0.0,0.0,0.0,0.0,0.0,0.0,0.0,0.0,0.0,0.0,0.0,0.0,0.0,0.0,0.0,0.0,0.0,0.0,0.0,0.0,0.0,0.0,0.0,0.0,0.0,0.0,0.0,0.0,0.0,0.0,0.0,0.0,0.0,0.0,0.0,0.0,0.0,0.0,-2.4275,0.0,0.0,0.0,0.0,0.0,0.0,0.0,0.0,0.0,0.0,0.0,0.0,0.0,0.0,0.0,0.0,0.0,0.0,0.0,0.0,0.0,0.0,0.0,0.0,0.0,0.0,0.0,0.0,0.0,0.0,0.0,0.0,0.0,0.0,0.0,0.0,0.0,0.0,0.0,0.0,0.0,0.0,0.0,0.0,0.0,0.0,0.0,0.0,0.0,0.0,0.0,0.0,0.0,0.0,0.0,0.0,0.0,0.0,0.0,0.0,0.0,0.0,0.0,0.0,0.0,0.0,0.0,0.0,0.0,0.0,0.0,0.0,0.0,0.0,0.0,0.0,0.0,0.0,0.0,0.0,0.0,0.0,0.0,0.0,0.0,0.0,0.0,0.0,0.0,0.0,0.0,0.0,0.0,0.0,0.0,0.0,0.0,0.0,0.0,0.0,0.0,0.0,0.0,0.0,0.0,0.0,0.0,0.0,0.0,0.0,-2.995,-3.1274,-3.2009,-3.2037,-2.9602,-2.8884,-2.9259,0.0,0.0,0.0,0.0,0.0,0.0,0.0,0.0,0.0,0.0,0.0,0.0,0.0,0.0,0.0,0.0,0.0,0.0,0.0,0.0,0.0,0.0,0.0,0.0,0.0,0.0,0.0,0.0,0.0,0.0,0.0,0.0,0.0,0.0,0.0,0.0,0.0,0.0,-2.5983,-2.752,-2.8506,-2.8882,-2.8558,-2.5006,0.0,0.0,0.0,0.0,0.0,0.0,0.0,0.0,0.0,0.0,0.0,0.0,0.0,0.0,0.0,0.0,0.0,0.0,0.0,0.0,0.0,0.0,0.0,0.0,0.0,0.0,0.0,0.0,0.0,0.0,0.0,0.0,0.0,0.0,0.0,0.0,0.0,0.0,0.0,0.0,0.0,0.0,0.0,-2.1218,-2.0839,0.0,0.0,0.0,0.0,0.0,0.0,0.0,0.0,0.0,0.0,0.0,0.0,0.0,0.0,-2.8322,-2.9988,-3.1283,-3.2174,-3.3711,-3.4543,-3.4699,-3.505,-3.5266,-3.5361,-3.5111,0.0,-3.1367,-3.0421,0.0,0.0,0.0,0.0,0.0,0.0,0.0,0.0,0.0,0.0,0.0,0.0,0.0,0.0,0.0,0.0,0.0,0.0,0.0,0.0,0.0,0.0,0.0,0.0,0.0,0.0,0.0,0.0,0.0,0.0,0.0,0.0,0.0,0.0,0.0,0.0,-2.5815,-2.811,-2.9437,-3.0289,-3.0837,-3.1094,-2.9941,-2.7825,-2.5021,-2.313,0.0,0.0,0.0,0.0,0.0,0.0,0.0,0.0,0.0,0.0,0.0,0.0,0.0,0.0,0.0,0.0,0.0,0.0,0.0,0.0,0.0,0.0,0.0,0.0,0.0,0.0,0.0,0.0,0.0,0.0,0.0,0.0,0.0,0.0,0.0,0.0,0.0,0.0,0.0,-2.0501,-2.2609,-2.3431,-2.2562,-2.1482,0.0,0.0,0.0,0.0,0.0,0.0,0.0,0.0,0.0,-2.8378,-2.9302,-3.0533,-3.2047,-3.3007,-3.396,-3.4877,-3.5639,-3.6316,-3.6907,-3.6954,-3.7075,-3.724,-3.7285,-3.668,-3.5456,-3.3554,-3.1913,-3.0559,0.0,0.0,0.0,0.0,0.0,-2.9883,0.0,0.0,0.0,0.0,0.0,0.0,0.0,0.0,0.0,0.0,0.0,0.0,0.0,0.0,0.0,-1.922,0.0,0.0,0.0,0.0,0.0,0.0,0.0,0.0,0.0,0.0,0.0,-2.7424,-2.8903,-3.0199,-3.1349,-3.2097,-3.2543,-3.2774,-3.3437,-3.1905,-2.8719,-2.6977,-2.5165,0.0,0.0,0.0,0.0,0.0,0.0,0.0,0.0,0.0,0.0,0.0,0.0,0.0,0.0,0.0,0.0,0.0,0.0,0.0,0.0,0.0,0.0,0.0,0.0,0.0,0.0,0.0,0.0,0.0,0.0,0.0,0.0,0.0,0.0,0.0,0.0,0.0,0.0,-2.244,-2.441,-2.5933,-2.5293,-2.448,0.0,0.0,0.0,0.0,0.0,0.0,-2.7217,-2.8821,-3.0386,-3.1869,-3.2835,-3.3908,-3.5037,-3.5316,-3.5873,-3.6695,-3.6695,-3.711,-3.7905,-3.7936,-3.8014,-3.8213,-3.8213,-3.8397,-3.8422,-3.6246,-3.5087,-3.4676,-3.365,-3.3071,-3.276,-3.2909,-3.338,-3.4139,0.0,0.0,0.0,0.0,0.0,0.0,0.0,0.0,0.0,0.0,0.0,0.0,0.0,0.0,-2.162,-2.2404,-2.2525,-2.2182,0.0,0.0,0.0,0.0,0.0,0.0,0.0,0.0,0.0,-2.9059,-3.2036,-3.3608,-3.3864,-3.464,-3.513,-3.5316,-3.5349,-3.4479,-3.2841,-3.0595,-2.9148,-2.7985,0.0,0.0,0.0,0.0,0.0,0.0,0.0,0.0,0.0,0.0,0.0,0.0,0.0,0.0,0.0,0.0,0.0,0.0,0.0,0.0,0.0,0.0,0.0,0.0,0.0,0.0,0.0,0.0,0.0,0.0,0.0,0.0,0.0,0.0,0.0,0.0,0.0,0.0,0.0,-2.8242,-2.875,0.0,0.0,0.0,0.0,-2.7088,-2.8427,-2.9723,-3.0875,-3.2866,-3.4287,-3.4959,-3.5932,-3.6495,-3.6577,-3.6834,-3.7153,-3.7417,-3.7417,-3.7597,-3.7905,-3.7997,-3.8057,-3.8213,-3.8322,-3.8459,-3.8622,-3.8642,-3.8686,-3.8754,-3.9042,-3.9173,-3.9199,-3.9524,-3.9693,-3.9823,0.0,0.0,0.0,0.0,0.0,0.0,0.0,0.0,0.0,0.0,0.0,0.0,0.0,-2.1321,-2.3848,-2.4552,-2.5697,-2.5766,-2.4278,0.0,0.0,0.0,0.0,0.0,0.0,0.0,-2.9017,-3.1281,-3.25,-3.3127,-3.3186,-3.4073,-3.4547,-3.4675,-3.5406,-3.5426,-3.4921,-3.4138,-3.2858,-3.1066,-2.8594,-2.557,0.0,0.0,0.0,0.0,0.0,0.0,0.0,0.0,0.0,0.0,0.0,0.0,0.0,0.0,0.0,0.0,0.0,0.0,0.0,0.0,0.0,0.0,0.0,0.0,0.0,0.0,0.0,0.0,0.0,0.0,0.0,0.0,0.0,0.0,0.0,0.0,0.0,-2.8627,-2.9439,0.0,0.0,-2.9243,-2.9704,-2.995,-3.1643,-3.3044,-3.3878,-3.4604,-3.5275,-3.5898,-3.6405,-3.6692,-3.6692,-3.6949,-3.7486,-3.8204,-3.8204,-3.8606,-3.9309,-3.944,-3.9569,-3.9665,-3.9825,-3.9984,-4.0107,-4.0153,-3.9807,-3.9221,-3.9346,-3.9575,-3.9797,-3.9932,-4.0047,-4.0141,0.0,0.0,0.0,0.0,0.0,0.0,0.0,0.0,0.0,0.0,0.0,-1.7691,-2.0356,-2.3526,-2.5702,-2.6356,-2.7555,-2.755,-2.58,0.0,0.0,0.0,-1.8718,0.0,0.0,-2.8453,-3.0811,-3.282,-3.3383,-3.3679,-3.3679,-3.4511,-3.5014,-3.5265,-3.5988,-3.6479,-3.6752,-3.6796,-3.5692,-3.3795,-3.2207,-2.9802,-2.6797,0.0,0.0,0.0,0.0,0.0,0.0,0.0,0.0,0.0,0.0,0.0,0.0,0.0,0.0,0.0,0.0,0.0,0.0,0.0,0.0,0.0,0.0,0.0,0.0,0.0,0.0,0.0,0.0,0.0,0.0,0.0,0.0,0.0,0.0,0.0,-2.9894,-3.0236,-3.1151,-3.1613,-3.1166,-3.1905,-3.2428,-3.2428,-3.3906,-3.5093,-3.5726,-3.5947,-3.6469,-3.741,-3.7665,-3.7941,-3.8224,-3.8507,-3.9018,-3.9711,-3.9763,-4.0153,-4.0832,-4.0985,-4.1137,-4.1237,-4.1403,-4.1567,-4.1695,-4.1695,-4.1296,-4.0666,-4.0245,-4.0329,-4.0717,-4.0717,-4.0774,-4.0927,0.0,0.0,0.0,0.0,0.0,0.0,0.0,0.0,0.0,0.0,-1.7454,-2.099,-2.3644,-2.5839,-2.7291,-2.779,-2.7993,-2.7426,-2.5804,-2.4602,0.0,0.0,0.0,0.0,-2.8874,-3.056,-3.2163,-3.362,-3.4964,-3.5571,-3.5571,-3.6122,-3.6684,-3.719,-3.7376,-3.7774,-3.8382,-3.8382,-3.7631,-3.6258,-3.4803,-3.3697,-3.2514,0.0,0.0,0.0,0.0,0.0,0.0,0.0,0.0,0.0,0.0,0.0,0.0,0.0,0.0,0.0,0.0,0.0,0.0,0.0,0.0,0.0,0.0,0.0,0.0,0.0,0.0,0.0,0.0,0.0,0.0,0.0,0.0,0.0,-2.7874,-2.9367,-3.1221,-3.3198,-3.406,-3.4506,-3.4506,-3.4552,-3.4568,-3.4568,-3.5183,-3.5854,-3.6469,-3.7117,-3.8152,-3.9675,-3.9862,-4.032,-4.1181,-4.1554,-4.1794,-4.1904,-4.2051,-4.2142,-4.2286,-4.2428,-4.2602,-4.2706,-4.2911,-4.3081,-4.3214,-4.3214,-4.3346,-4.3367,-4.2146,-4.1945,-4.2323,-4.2305,-4.2387,-4.2544,0.0,0.0,0.0,0.0,0.0,0.0,0.0,0.0,0.0,0.0,-1.7466,-2.0841,-2.4096,-2.6238,-2.758,-2.7993,-2.8527,-2.8465,-2.7617,0.0,0.0,0.0,0.0,0.0,-3.0368,-3.2613,-3.3952,-3.4394,-3.4878,-3.5102,-3.5102,-3.6045,-3.6405,-3.6298,-3.7523,-3.8018,-3.7998,-3.8433,-3.8462,-3.8095,-3.7119,-3.5573,-3.3647,0.0,0.0,0.0,0.0,0.0,0.0,0.0,0.0,0.0,0.0,0.0,0.0,0.0,0.0,0.0,0.0,0.0,0.0,0.0,0.0,0.0,0.0,0.0,0.0,0.0,0.0,0.0,0.0,0.0,0.0,0.0,0.0,-3.0032,-3.0011,-3.1612,-3.3016,-3.3621,-3.4589,-3.5214,-3.5214,-3.6091,-3.6676,-3.6676,-3.7292,-3.798,-3.8588,-3.8823,-3.932,-4.0248,-4.0557,-4.0828,-4.1025,-4.1498,-4.1794,-4.1904,-4.2051,-4.2142,-4.2286,-4.255,-4.2654,-4.2723,-4.3013,-4.3182,-4.3214,-4.3214,-4.3444,-4.3705,-4.2752,-4.2608,-4.2817,-4.246,-4.2387,-4.2503,0.0,0.0,0.0,0.0,0.0,0.0,0.0,0.0,0.0,0.0,-1.8068,-2.1235,-2.5041,-2.6411,-2.7312,-2.7894,-2.8645,-2.867,-2.7703,0.0,0.0,0.0,0.0,-3.0985,-3.2441,-3.3858,-3.4691,-3.4787,-3.4851,-3.4947,-3.4994,-3.5688,-3.6148,-3.6482,-3.7179,-3.7811,-3.8258,-3.8365,-3.8559,-3.8815,-3.8335,-3.7368,-3.6096,-3.4939,-3.387,-3.2767,-3.1181,-3.0197,-2.9442,-2.7893,0.0,0.0,0.0,0.0,0.0,0.0,0.0,0.0,0.0,0.0,0.0,0.0,0.0,0.0,0.0,0.0,0.0,0.0,0.0,0.0,0.0,0.0,0.0,0.0,-2.9842,-3.1883,-3.2498,-3.3524,-3.4256,-3.4588,-3.5664,-3.6407,-3.6407,-3.7318,-3.7923,-3.7923,-3.87,-3.9399,-3.9945,-4.0071,-4.059,-4.1553,-4.153,-4.1648,-4.2061,-4.2484,-4.2769,-4.2825,-4.3048,-4.3196,-4.3342,-4.3557,-4.3715,0.0,-4.3993,-4.4113,-4.4113,-4.4113,-4.4298,0.0,0.0,0.0,0.0,0.0,-4.331,-4.337,0.0,0.0,0.0,0.0,0.0,0.0,0.0,0.0,0.0,0.0,0.0,-2.1974,-2.604,-2.651,-2.6878,-2.7775,-2.8464,-2.8301,0.0,0.0,0.0,-3.0774,-3.1094,-3.2252,-3.4448,-3.4497,-3.4643,-3.4899,-3.4899,-3.4947,-3.5088,-3.5358,-3.6079,-3.709,-3.6765,-3.7391,-3.8723,-3.8186,-3.8285,-3.8743,-3.8773,-3.8881,-3.883,-3.7405,-3.6786,-3.638,-3.4189,-3.3248,-3.2903,-3.1647,0.0,0.0,0.0,0.0,0.0,0.0,0.0,0.0,0.0,0.0,0.0,0.0,0.0,0.0,0.0,0.0,0.0,0.0,0.0,0.0,0.0,0.0,0.0,0.0,-3.1893,-3.3762,-3.4909,-3.498,-3.519,-3.5825,-3.6939,-3.7699,-3.7699,-3.833,-3.8739,-3.8805,-3.9641,-4.0394,-4.0736,0.0,0.0,0.0,0.0,-4.267,-4.3552,-4.3923,-4.4097,-4.4097,-4.4457,-4.4682,-4.4776,-4.4923,-4.5086,-4.5194,-4.5371,-4.5423,-4.5423,-4.5423,-4.5423,-4.5373,-4.4397,-4.4251,-4.4624,-4.4624,-4.4624,0.0,0.0,0.0,0.0,0.0,0.0,0.0,0.0,0.0,0.0,-1.6199,-1.8855,-2.1974,-2.604,-2.6707,-2.7159,-2.7978,-2.7791,-2.7705,0.0,0.0,-2.9974,-3.1516,-3.2918,-3.3925,-3.4497,-3.4594,-3.4739,-3.4899,-3.4899,-3.4899,-3.4963,-3.6134,-3.6627,-3.6582,-3.7343,-3.7778,-3.7924,-3.7863,-3.8032,-3.8328,-3.8664,-3.8851,-3.8902,-3.8588,-3.8449,-3.8346,-3.7808,-3.7448,-3.6966,-3.5123,-3.4018,-3.2892,-3.0163,0.0,0.0,0.0,0.0,0.0,0.0,0.0,0.0,0.0,0.0,0.0,0.0,0.0,0.0,0.0,0.0,0.0,0.0,0.0,0.0,-3.1555,-3.3101,-3.4267,-3.5018,-3.5574,-3.6026,-3.645,-3.7625,-3.8376,-3.8376,-3.9444,-4.0276,-4.0598,-4.0805,-4.1201,-4.1789,-4.1853,0.0,-4.2945,-4.2921,-4.3103,-4.3432,-4.3864,-4.4097,-4.4097,0.0,0.0,-4.4776,-4.4923,-4.5086,-4.5194,-4.5371,-4.5423,-4.5423,-4.5423,-4.5667,-4.595,-4.512,-4.471,-4.4624,-4.4624,-4.4624,-4.4624,0.0,0.0,0.0,0.0,0.0,0.0,0.0,0.0,0.0,0.0,-1.745,-2.0486,-2.4383,-2.4647,-2.5052,-2.6287,-2.6133,0.0,0.0,-2.9468,-3.0749,-3.2442,-3.3596,-3.43,-3.4497,-3.4546,-3.4691,-3.4899,-3.4899,-3.4947,-3.5011,-3.5795,-3.6257,-3.6505,-3.6791,-3.7213,-3.7676,-3.7394,-3.7578,-3.8183,-3.8364,-3.859,-3.8792,-3.8851,-3.8822,-3.881,-3.8683,-3.8528,-3.8143,-3.6859,-3.5984,-3.5047,-3.2891,-3.0931,-2.8965,0.0,0.0,0.0,0.0,0.0,0.0,0.0,0.0,0.0,0.0,0.0,0.0,0.0,0.0,-2.7214,0.0,0.0,-3.1513,-3.3073,-3.4098,-3.4913,-3.5531,-3.5883,-3.6165,-3.6343,-3.7507,-3.8353,-3.8641,-3.9738,-4.0578,-4.107,-4.139,-4.172,-4.2109,-4.2238,-4.2555,-4.3007,-4.3052,-4.3235,-4.3509,-4.3923,-4.4097,-4.4097,-4.4457,-4.4682,-4.4886,-4.4978,-4.5086,-4.53,-4.5371,-4.5423,-4.5423,-4.5423,-4.5718,-4.6151,-4.5765,-4.5664,-4.5802,-4.5802,-4.5802,-4.5802,0.0,0.0,0.0,0.0,0.0,0.0,0.0,0.0,0.0,0.0,-1.5764,-1.8559,-2.2002,-2.1945,-2.2229,0.0,0.0,0.0,0.0,-2.9435,-3.0892,-3.3103,-3.3646,-3.4084,-3.4497,-3.4497,-3.4643,-3.4899,-3.4899,-3.4947,-3.5041,-3.5379,-3.5904,-3.6535,-3.6175,-3.6566,-3.7525,-3.6934,-3.7135,-3.7879,-3.7948,-3.8219,-3.8596,-3.864,-3.867,-3.8658,-3.8559,-3.8401,-3.8171,-3.7559,-3.6921,-3.6155,-3.5094,-3.3291,-3.1173,-2.9356,-2.7478,0.0,0.0,0.0,0.0,0.0,0.0,0.0,0.0,0.0,-2.745,-2.7991,-2.8993,-3.0108,-3.1218,-3.2258,-3.3297,-3.4407,-3.5012,-3.562,-3.6164,-3.6248,-3.6248,-3.6248,-3.7206,-3.8113,-3.856,-3.9421,-4.02,-4.0768,-4.1507,-4.19,-4.1964,-4.2429,-4.2805,-4.3113,-4.3113,-4.3312,-4.3645,-4.3923,-4.4097,-4.4155,-4.4457,-4.4737,-4.4978,-4.4978,-4.5157,-4.5423,-4.5423,-4.5423,-4.5423,-4.5423,-4.5718,-4.6186,-4.6186,-4.6542,-4.6998,-4.6998,-4.6998,-4.6998,0.0,0.0,0.0,0.0,0.0,0.0,0.0,0.0,0.0,0.0,0.0,0.0,0.0,0.0,0.0,0.0,0.0,0.0,-2.6793,-2.8634,-3.0715,-3.3082,-3.3251,-3.3681,-3.4497,-3.4497,-3.4643,-3.4899,-3.4899,-3.4899,-3.4963,-3.5849,-3.6343,-3.641,-3.6595,-3.6871,-3.7141,-3.6745,-3.6764,-3.7055,-3.7432,-3.7809,-3.8168,-3.8119,-3.8336,-3.8658,-3.8559,-3.835,-3.8034,-3.7414,-3.6786,-3.6045,-3.4971,-3.3922,-3.2598,-2.9948,0.0,-2.6778,-2.4109,-2.3772,-2.4326,-2.4803,-2.6085,-2.7512,0.0,0.0,-3.0839,-3.2526,-3.3211,-3.3831,-3.4506,-3.4832,-3.5142,-3.5756,-3.5925,-3.6178,-3.6796,-3.688,-3.688,-3.688,-3.7462,-3.7962,-3.7962,-3.8708,-3.9364,-3.9733,-4.0638,-4.126,-4.1525,-4.2412,-4.2945,-4.3113,-4.3235,-4.3509,-4.3839,-4.3998,-4.4155,-4.431,-4.4514,-4.4737,-4.4978,-4.4978,-4.5157,-4.5423,-4.5423,-4.5423,-4.5423,-4.5423,-4.5718,-4.6186,-4.6186,-4.6542,-4.6998,-4.6998,-4.6998,-4.6998,0.0,0.0,0.0,0.0,0.0,0.0,0.0,0.0,0.0,0.0,0.0,0.0,0.0,0.0,0.0,0.0,0.0,0.0,-2.536,-2.8114,-3.0377,-3.2124,-3.2879,-3.3459,-3.3986,-3.4333,-3.4643,-3.4899,-3.4899,-3.4899,-3.4899,-3.5499,-3.5743,-3.579,-3.6021,-3.6186,-3.6348,-3.6268,-3.6474,-3.6803,-3.7038,-3.734,-3.7614,-3.7596,-3.7667,-3.7807,-3.766,-3.7189,0.0,0.0,-3.5662,-3.4686,-3.4136,-3.3227,-3.1987,-2.9803,-2.8689,-2.7997,-2.7327,-2.6579,0.0,0.0,-2.9231,-3.0299,-3.1307,-3.215,-3.2997,-3.4297,-3.4685,-3.4843,-3.5184,-3.5522,-3.577,0.0,-3.636,-3.6683,-3.695,-3.6978,-3.7056,-3.7148,-3.7366,-3.7672,-3.8037,-3.8546,-3.932,-4.0363,-4.0992,-4.1541,-4.2077,-4.2618,-4.2945,-4.3113,-4.3312,-4.3568,-4.3898,-4.4056,-4.4155,-4.431,-4.4497,-4.4737,-4.4978,-4.4978,-4.5157,-4.5423,-4.5423,-4.5423,-4.5423,-4.5423,-4.5598,-4.5988,-4.6137,-4.6429,-4.6795,-4.6934,-4.6998,-4.6998,0.0,0.0,0.0,0.0,0.0,0.0,0.0,0.0,0.0,0.0,0.0,0.0,0.0,0.0,0.0,0.0,0.0,0.0,0.0,-2.7019,-2.9491,-3.1093,-3.2189,-3.2971,-3.3531,-3.3986,-3.4431,-3.4835,-3.4899,-3.4899,-3.4899,-3.5198,-3.5291,-3.5291,-3.5503,-3.5667,-3.5817,-3.5932,-3.6199,-3.658,-3.6678,-3.6882,-3.7117,-3.7079,-3.6832,-3.6519,-3.6499,-3.5864,0.0,0.0,-3.3908,-3.2808,-3.2621,-3.1849,-3.0663,-2.9034,-2.8237,-2.8111,-2.9174,0.0,0.0,-3.0459,-3.1494,-3.2183,-3.2952,-3.3607,-3.4341,-3.5139,-3.5405,-3.5536,-3.5705,-3.6164,0.0,-3.6423,-3.6916,-3.7253,-3.7162,-3.7148,-3.7226,-3.738,-3.738,-3.761,-3.8066,-3.8337,-3.8957,-4.003,-4.0774,-4.1459,-4.1933,-4.2618,-4.3007,-4.3113,-4.3312,-4.3628,-4.3939,-4.4056,-4.4212,-4.4367,-4.4514,-4.4737,-4.4978,-4.5103,-4.5211,-4.5423,-4.5423,-4.5423,-4.5423,-4.5423,-4.5563,-4.5837,-4.6038,-4.6284,-4.6637,-4.6842,-4.6952,-4.6998,0.0,0.0,0.0,0.0,0.0,0.0,0.0,0.0,0.0,0.0,0.0,0.0,0.0,0.0,0.0,0.0,0.0,0.0,0.0,-2.5099,-2.7759,-3.0208,-3.1135,-3.2114,-3.3391,-3.3547,-3.3969,-3.4707,-3.4851,-3.4899,-3.4899,-3.5198,-3.5291,-3.5291,-3.5503,-3.5667,-3.5817,-3.5932,-3.6062,-3.6225,-3.6208,-3.6409,-3.6706,-3.6481,-3.5758,-3.4907,-3.5101,0.0,0.0,-3.2599,-3.1407,-3.0377,-3.0319,-2.9758,-2.8888,-2.7486,-2.6759,-2.6806,0.0,0.0,-2.9697,-3.076,-3.1783,-3.2657,-3.3141,-3.3982,-3.472,-3.5377,-3.5809,-3.622,-3.6824,-3.7428,-3.7732,-3.7296,-3.7799,-3.8076,-3.7634,-3.7625,-3.7625,-3.7625,-3.7625,-3.7687,0.0,-3.7929,-3.7929,-3.8005,-3.952,-4.0416,-4.0485,-4.2173,-4.3113,-4.3113,-4.3432,-4.3747,-4.4097,-4.4097,-4.4286,-4.457,-4.4587,-4.4737,-4.5032,-4.5264,-4.5371,-4.5423,-4.5423,-4.5423,-4.5423,-4.5423,-4.5563,-4.5786,-4.5786,-4.6137,-4.659,-4.659,-4.6795,-4.6998,0.0,0.0,0.0,0.0,0.0,0.0,0.0,0.0,0.0,0.0,0.0,0.0,0.0,0.0,0.0,0.0,0.0,0.0,0.0,-2.3488,-2.6174,-2.8426,-2.9903,-3.1379,-3.2795,-3.3323,-3.3969,-3.4691,-3.4851,-3.4899,-3.4899,-3.5198,-3.5291,-3.5291,-3.5503,-3.5622,-3.5667,-3.5817,-3.5905,-3.5949,-3.6036,-3.6088,-3.6011,-3.4932,-3.4271,-3.3562,0.0,0.0,0.0,-2.9779,-2.9075,-2.8444,-2.8569,-2.836,-2.7984,-2.7431,-2.7363,-2.7827,-2.9354,0.0,-3.0677,-3.1699,-3.2811,-3.3817,-3.463,-3.5311,-3.5903,-3.6409,-3.627,-3.6009,-3.5798,-3.6429,-3.6717,-3.6169,-3.7025,-3.7776,-3.7653,-3.7625,-3.7625,-3.7777,-3.7777,0.0,0.0,0.0,0.0,-3.8752,-3.9376,-4.0139,-4.1245,-4.2029,-4.2678,-4.3312,-4.3628,-4.3881,-4.4097,-4.4196,-4.4384,-4.4587,-4.4776,-4.4923,-4.5032,-4.5264,-4.5423,-4.5423,-4.5423,-4.5423,-4.5423,-4.5423,-4.5459,-4.5563,-4.5752,-4.6038,-4.635,-4.6525,-4.6795,-4.6998,0.0,0.0,0.0,0.0,0.0,0.0,0.0,0.0,0.0,0.0,0.0,0.0,0.0,0.0,0.0,0.0,0.0,0.0,0.0,0.0,-2.3708,-2.5718,-2.7428,-2.9026,-3.0505,-3.1691,-3.2705,-3.347,-3.4427,-3.4804,-3.4643,-3.5088,-3.5291,-3.5291,-3.5503,-3.5622,-3.5622,-3.5728,-3.5817,-3.5766,-3.5309,-3.5104,-3.4848,-3.327,-3.2121,0.0,0.0,0.0,0.0,-2.7261,-2.7212,-2.7219,-2.764,-2.7875,-2.7941,-2.7766,-2.8181,-2.9038,-3.0528,-3.1294,-3.189,-3.2844,-3.3869,-3.4896,-3.565,-3.6258,-3.6693,-3.6993,-3.6318,-3.5691,-3.5296,-3.5882,-3.6329,-3.6006,-3.7125,-3.8093,-3.8184,-3.7997,-3.7839,-3.7991,-3.8005,0.0,0.0,0.0,0.0,-3.8826,-3.9175,-3.9929,-4.1311,-4.1804,-4.2411,-4.3372,-4.3704,-4.3939,-4.4097,-4.4253,-4.4384,-4.457,-4.4886,-4.4978,-4.5032,-4.5264,-4.5423,-4.5423,-4.5423,-4.5423,-4.5423,-4.5423,-4.5423,-4.5423,-4.5598,-4.5837,-4.6087,-4.6235,-4.6542,-4.6888,0.0,0.0,0.0,0.0,0.0,0.0,0.0,0.0,0.0,0.0,0.0,0.0,0.0,0.0,0.0,0.0,0.0,0.0,0.0,0.0,0.0,-2.2329,-2.3851,-2.5368,-2.6853,-2.8794,-3.0164,-3.1003,-3.3386,-3.4266,-3.381,-3.4568,-3.4956,-3.4956,-3.515,-3.5256,-3.5334,-3.544,-3.5484,-3.5365,-3.3998,-3.3403,-3.3158,-3.1455,0.0,0.0,0.0,0.0,0.0,-2.5145,0.0,-2.6736,-2.7614,-2.8299,-2.8751,-2.8498,-2.9275,-3.0505,-3.1837,-3.2657,-3.3341,-3.4085,-3.4934,-3.5737,-3.6346,-3.6693,-3.6978,-3.6978,-3.5953,-3.517,0.0,0.0,-3.6344,-3.6668,-3.7835,-3.8871,-3.9146,-3.8609,-3.8202,0.0,0.0,0.0,0.0,0.0,0.0,-3.8202,0.0,-3.9718,-4.0675,-4.1543,-4.2411,-4.3372,-4.3763,-4.3939,-4.4097,-4.4253,-4.444,-4.457,-4.4886,-4.4978,-4.5032,-4.5264,-4.5423,-4.5423,-4.5423,-4.5423,-4.5423,-4.5423,-4.5423,-4.5423,-4.5423,-4.5546,-4.5786,-4.5786,-4.6137,-4.6637,0.0,0.0,0.0,0.0,0.0,0.0,0.0,0.0,0.0,0.0,0.0,0.0,0.0,0.0,0.0,0.0,0.0,0.0,0.0,0.0,0.0,0.0,0.0,0.0,-2.5603,-2.6163,-2.7102,-2.8442,-2.913,-2.9495,-2.9571,-2.9906,-3.0094,-3.0175,-3.0437,-3.0892,-3.1432,-3.1529,-3.1551,-3.1517,0.0,-3.0598,-2.9867,0.0,0.0,0.0,0.0,0.0,0.0,0.0,0.0,0.0,0.0,-2.9514,-2.9897,-3.0222,-3.1183,-3.2241,-3.2632,-3.3793,-3.4835,-3.476,-3.5418,-3.6277,-3.673,-3.6915,-3.6978,-3.6978,-3.5278,-3.4283,0.0,0.0,0.0,-3.6646,-3.7688,0.0,-3.8463,-3.8318,0.0,0.0,0.0,-3.8202,-3.8202,-3.8202,0.0,0.0,-3.903,-3.9914,-4.0779,-4.1739,-4.2632,-4.3492,-4.3864,-4.4056,-4.4097,-4.44,-4.457,-4.457,-4.4886,-4.4978,-4.5032,-4.5264,-4.5423,-4.5423,-4.5423,-4.5423,-4.5423,-4.5423,-4.5423,-4.5423,-4.5423,-4.5546,-4.5786,-4.5786,-4.6137,-4.659,0.0,0.0,0.0,0.0,0.0,0.0,0.0,0.0,0.0,0.0,0.0,0.0,0.0,0.0,0.0,0.0,0.0,0.0,0.0,0.0,0.0,0.0,0.0,-2.0651,-2.2297,-2.3194,-2.4106,-2.5147,-2.6246,0.0,0.0,-2.7153,-2.7396,-2.747,-2.7674,-2.8185,-2.8945,-2.9053,0.0,0.0,0.0,0.0,0.0,0.0,0.0,0.0,0.0,0.0,0.0,0.0,0.0,-3.0735,-3.1166,-3.1634,-3.2006,-3.1602,0.0,-3.3606,-3.3767,-3.472,-3.5676,-3.5562,-3.6129,-3.6554,-3.6304,-3.5967,-3.5545,-3.4745,-3.31,0.0,0.0,0.0,0.0,0.0,0.0,0.0,-3.8957,-3.8551,-3.8202,0.0,-3.8202,0.0,-3.8202,-3.8202,-3.8202,0.0,0.0,-3.9969,-4.0816,-4.182,-4.271,-4.3568,-4.3923,-4.4155,-4.4344,-4.4514,-4.4587,-4.457,-4.4886,-4.4978,-4.5032,-4.5264,-4.5423,-4.5423,0.0,-4.5423,-4.5423,-4.5423,-4.5423,-4.5423,-4.5423,-4.5511,-4.5598,-4.5598,-4.5905,-4.6284,0.0,0.0,0.0,0.0,0.0,0.0,0.0,0.0,0.0,0.0,0.0,0.0,0.0,0.0,0.0,0.0,0.0,0.0,0.0,0.0,0.0,0.0,0.0,-1.7482,-1.8433,-2.0085,-2.1182,-2.1629,0.0,0.0,0.0,0.0,0.0,0.0,0.0,0.0,0.0,0.0,0.0,0.0,0.0,0.0,0.0,0.0,0.0,0.0,0.0,0.0,0.0,0.0,-3.2142,-3.3741,-3.3652,-3.4021,-3.4196,-3.2883,-3.3511,-3.4695,-3.4776,-3.5507,-3.6256,-3.6346,-3.6693,-3.6641,-3.5335,-3.4492,-3.3466,-3.1626,0.0,0.0,-3.2592,0.0,-3.4456,-3.851,0.0,-3.8812,-3.9828,-3.903,-3.8304,-3.8217,-3.8202,-3.8202,-3.8202,-3.8202,-3.8277,-3.8516,-3.9262,-4.0054,-4.0899,-4.1949,-4.2834,-4.3628,-4.3923,-4.427,-4.4587,-4.4587,-4.4587,-4.457,-4.4831,-4.4978,-4.4978,-4.5264,-4.5371,-4.5371,0.0,0.0,-4.5423,-4.5423,-4.5423,-4.5423,-4.5423,-4.5423,-4.5423,-4.5423,-4.5563,-4.5837,0.0,0.0,0.0,0.0,0.0,0.0,0.0,0.0,0.0,0.0,0.0,0.0,0.0,0.0,0.0,0.0,0.0,0.0,0.0,0.0,0.0,0.0,-1.5009,-1.6186,-1.7103,-1.7407,0.0,0.0,0.0,0.0,0.0,0.0,0.0,0.0,0.0,0.0,0.0,0.0,0.0,0.0,0.0,0.0,0.0,0.0,0.0,0.0,0.0,0.0,0.0,0.0,-3.2353,-3.5078,-3.5256,-3.507,-3.4691,-3.4138,-3.4721,-3.5392,-3.4901,-3.5815,-3.6774,-3.6443,-3.6693,-3.6529,-3.4787,-3.3536,0.0,0.0,0.0,-2.8351,-3.3704,-3.348,0.0,-3.9793,0.0,0.0,0.0,0.0,-3.8826,0.0,0.0,0.0,0.0,0.0,0.0,0.0,0.0,0.0,-4.1131,-4.2553,-4.3552,-4.3981,-4.4039,-4.427,-4.4587,-4.4587,-4.4587,-4.4587,-4.4776,-4.4831,-4.4831,-4.5086,-4.523,-4.5247,0.0,0.0,-4.5423,-4.5423,-4.5423,-4.5423,-4.5423,-4.5423,-4.5423,-4.5423,-4.5563,-4.5837,0.0,0.0,0.0,0.0,0.0,0.0,0.0,0.0,0.0,0.0,-1.128,-1.1442,0.0,0.0,0.0,0.0,0.0,0.0,0.0,0.0,0.0,0.0,0.0,0.0,0.0,0.0,0.0,0.0,0.0,0.0,0.0,0.0,0.0,0.0,0.0,0.0,0.0,0.0,0.0,0.0,0.0,0.0,0.0,0.0,0.0,0.0,0.0,0.0,0.0,0.0,-3.0967,-3.4268,-3.5334,-3.5379,-3.5016,-3.4616,-3.5175,-3.5739,-3.5373,-3.6203,-3.6978,-3.6191,-3.6508,-3.6256,-3.3228,0.0,0.0,0.0,0.0,-2.605,-2.9966,0.0,0.0,0.0,0.0,0.0,0.0,0.0,0.0,0.0,0.0,0.0,0.0,0.0,0.0,0.0,0.0,0.0,-4.1131,-4.2756,-4.3747,-4.4097,-4.4097,-4.427,-4.4587,-4.4587,-4.4587,-4.4587,-4.4737,-4.4776,-4.4776,-4.4978,-4.5086,-4.5086,0.0,0.0,-4.53,-4.5371,-4.5423,-4.5423,-4.5423,-4.5423,-4.5423,-4.5423,-4.5459,-4.5649,0.0,0.0,0.0,0.0,0.0,0.0,0.0,-0.9675,-1.1132,-1.2083,-1.2998,-1.3262,-1.2402,-1.2057,0.0,0.0,0.0,0.0,0.0,0.0,0.0,0.0,0.0,0.0,0.0,0.0,0.0,0.0,0.0,0.0,0.0,0.0,0.0,0.0,0.0,0.0,0.0,0.0,0.0,0.0,0.0,0.0,0.0,0.0,0.0,0.0,0.0,0.0,0.0,0.0,-2.8794,-3.1818,-3.371,-3.4688,-3.5005,-3.4677,-3.5179,-3.5841,-3.5769,-3.6579,-3.7134,-3.607,-3.648,-3.6045,-3.1877,-3.0145,0.0,0.0,-2.3326,-2.3591,-2.5798,0.0,0.0,0.0,0.0,0.0,0.0,0.0,0.0,0.0,0.0,0.0,0.0,0.0,0.0,0.0,0.0,0.0,0.0,-4.2834,-4.3747,-4.4097,-4.4097,-4.427,-4.4587,-4.4587,-4.4587,-4.4587,-4.4682,-4.4737,-4.4776,-4.4886,-4.494,-4.4978,0.0,0.0,0.0,-4.53,-4.5371,-4.5371,-4.5371,-4.5423,-4.5423,-4.5423,-4.5423,-4.5423,0.0,0.0,0.0,0.0,0.0,0.0,0.0,-1.0311,-1.1969,-1.3251,-1.4664,-1.5197,-1.4337,-1.283,0.0,0.0,0.0,0.0,0.0,0.0,0.0,0.0,0.0,0.0,0.0,0.0,0.0,0.0,0.0,0.0,0.0,0.0,0.0,0.0,0.0,0.0,0.0,0.0,0.0,0.0,0.0,0.0,0.0,0.0,0.0,0.0,0.0,0.0,0.0,0.0,0.0,-2.7488,-2.9331,-3.2019,-3.4513,-3.4194,0.0,0.0,-3.5856,-3.6728,-3.738,-3.6466,-3.6886,-3.6339,-3.1806,0.0,0.0,-2.3622,-2.1456,-2.121,-2.4394,-2.5589,0.0,0.0,0.0,0.0,0.0,0.0,0.0,0.0,0.0,0.0,0.0,0.0,0.0,0.0,0.0,0.0,0.0,-4.3174,-4.3747,-4.4097,-4.4097,-4.427,-4.4587,-4.4587,-4.4587,-4.4587,-4.4626,-4.4626,-4.4626,-4.4737,-4.4831,-4.4831,0.0,0.0,0.0,-4.5177,-4.5247,-4.523,-4.5371,-4.5423,-4.5423,-4.5423,-4.5423,-4.5423,0.0,0.0,0.0,0.0,0.0,0.0,0.0,-1.0631,-1.2405,-1.3537,-1.4642,-1.5254,-1.5117,-1.3598,-1.2458,0.0,0.0,0.0,0.0,0.0,0.0,0.0,0.0,0.0,0.0,0.0,0.0,0.0,0.0,0.0,0.0,0.0,0.0,0.0,0.0,0.0,0.0,0.0,0.0,0.0,0.0,0.0,0.0,0.0,0.0,0.0,0.0,0.0,0.0,0.0,0.0,0.0,-2.6176,-2.8385,0.0,0.0,-3.3573,-3.4256,-3.5121,-3.5843,-3.5976,-3.5006,-3.5736,-3.5489,-3.0468,0.0,0.0,-2.2901,-2.0882,-2.0249,-2.1585,-2.2712,-2.4158,0.0,0.0,0.0,0.0,0.0,0.0,0.0,0.0,0.0,0.0,0.0,0.0,0.0,0.0,0.0,0.0,-4.2974,-4.3747,-4.4097,-4.4097,-4.427,-4.4587,-4.4587,-4.4587,-4.4587,-4.4587,-4.4587,-4.4587,-4.4626,-4.4682,-4.4682,0.0,0.0,0.0,-4.514,-4.5177,-4.523,-4.5371,-4.5423,-4.5423,-4.5423,-4.5423,-4.5353,0.0,0.0,0.0,0.0,0.0,0.0,-0.8801,-1.0628,-1.2341,-1.3422,-1.4473,-1.508,-1.5041,-1.4023,-1.3045,-1.2334,0.0,0.0,0.0,0.0,0.0,0.0,0.0,0.0,0.0,0.0,0.0,0.0,0.0,0.0,0.0,0.0,0.0,0.0,0.0,0.0,0.0,0.0,0.0,0.0,0.0,0.0,0.0,0.0,0.0,0.0,0.0,0.0,0.0,0.0,0.0,0.0,0.0,0.0,0.0,0.0,-3.2489,-3.3267,-3.4959,-3.5416,-3.5237,-3.4204,-3.47,-3.4286,0.0,0.0,-2.6229,-2.2381,-2.0484,-1.9509,-1.9627,-2.0505,-2.1701,-2.3122,0.0,-2.9944,0.0,0.0,0.0,0.0,0.0,0.0,0.0,0.0,0.0,0.0,0.0,0.0,0.0,0.0,-4.3747,-4.4097,-4.4097,-4.427,-4.4587,-4.4587,-4.4587,-4.4587,-4.4587,-4.4587,-4.4587,-4.4587,-4.4587,0.0,0.0,0.0,0.0,-4.4978,-4.5086,-4.514,-4.53,-4.5371,-4.5423,-4.5423,-4.5423,-4.5318,0.0,0.0,0.0,0.0,0.0,0.0,0.0,-1.0289,-1.1605,-1.3004,-1.4487,-1.5017,-1.4023,-1.407,-1.3709,-1.2501,0.0,0.0,0.0,0.0,0.0,0.0,0.0,0.0,0.0,0.0,0.0,-1.6301,-1.7167,0.0,0.0,0.0,0.0,0.0,0.0,0.0,0.0,0.0,0.0,0.0,0.0,0.0,0.0,0.0,0.0,0.0,0.0,0.0,0.0,0.0,0.0,0.0,0.0,0.0,0.0,0.0,-3.176,-3.2729,-3.5534,-3.615,-3.5749,-3.4634,-3.4014,-3.2794,0.0,0.0,-2.456,-2.211,-2.0112,-1.8851,-1.8993,-1.9497,-2.0373,-2.1801,-2.6286,0.0,0.0,0.0,0.0,0.0,0.0,0.0,0.0,0.0,0.0,0.0,0.0,0.0,0.0,0.0,-4.3747,-4.4097,-4.4097,-4.427,-4.4587,-4.4587,-4.4587,-4.4587,-4.4587,-4.4587,-4.4587,-4.4587,0.0,0.0,0.0,0.0,0.0,-4.4737,-4.4886,-4.5032,-4.514,-4.53,-4.5423,-4.5423,-4.5423,-4.5318,0.0,0.0,0.0,0.0,0.0,0.0,0.0,-0.912,-1.0166,-1.0796,-1.2141,-1.2996,-1.2763,-1.2891,-1.2835,-1.2502,0.0,0.0,0.0,0.0,0.0,0.0,0.0,0.0,0.0,0.0,-1.5246,-1.7058,-1.7418,-1.7978,0.0,0.0,0.0,0.0,0.0,0.0,0.0,0.0,0.0,0.0,0.0,0.0,0.0,0.0,0.0,0.0,0.0,0.0,0.0,0.0,0.0,0.0,0.0,0.0,0.0,-2.6107,-2.7783,0.0,-3.1081,-3.1337,-3.098,-3.056,-3.0328,-2.9408,-2.6236,-2.4915,-2.3604,-2.0741,-1.9272,-1.8553,-1.8798,-1.9405,-2.0894,-2.4094,-2.6692,0.0,0.0,0.0,0.0,0.0,0.0,0.0,0.0,0.0,0.0,0.0,0.0,0.0,0.0,0.0,-4.3687,-4.3956,-4.4056,-4.4212,-4.4367,-4.4514,-4.4587,-4.4587,-4.4587,-4.4587,-4.4587,-4.4587,0.0,0.0,0.0,0.0,0.0,-4.472,-4.4886,-4.5032,-4.514,-4.53,-4.5423,-4.5423,-4.5423,-4.53,0.0,0.0,0.0,0.0,0.0,0.0,0.0,-0.8351,-0.9071,-0.952,-1.0624,-1.1296,-1.1185,-1.1725,-1.2007,-1.1797,0.0,0.0,0.0,0.0,0.0,0.0,0.0,0.0,0.0,-1.4117,-1.5217,-1.7413,-1.7749,-1.8411,-1.9331,-1.9418,-1.9333,0.0,0.0,0.0,0.0,0.0,0.0,0.0,0.0,0.0,-2.092,0.0,0.0,0.0,0.0,0.0,0.0,0.0,0.0,0.0,0.0,0.0,0.0,0.0,-2.4253,-2.5537,0.0,-2.8477,-2.7906,-2.7762,-2.731,0.0,0.0,-2.3059,-2.1923,-1.9838,-1.8831,-1.8383,-1.8721,-1.9527,-2.1126,-2.4192,-2.7418,0.0,0.0,0.0,0.0,0.0,0.0,0.0,0.0,0.0,0.0,0.0,0.0,0.0,0.0,0.0,-4.3628,-4.3763,-4.3939,-4.4097,-4.4196,-4.4384,-4.4497,-4.4497,-4.457,-4.4587,-4.4587,0.0,0.0,0.0,0.0,0.0,0.0,-4.4682,-4.4776,-4.4923,-4.5086,-4.5194,-4.53,-4.5371,-4.5423,-4.5264,0.0,0.0,0.0,0.0,0.0,0.0,0.0,0.0,0.0,0.0,-0.9727,-0.9999,-0.949,-1.0652,-1.1227,0.0,0.0,0.0,0.0,0.0,0.0,0.0,0.0,0.0,0.0,-1.4208,-1.5268,-1.741,-1.8141,-1.9012,-1.9971,-2.0124,-2.0273,-2.0426,-1.9081,0.0,0.0,0.0,0.0,0.0,0.0,0.0,0.0,0.0,0.0,0.0,0.0,0.0,0.0,0.0,0.0,0.0,0.0,0.0,0.0,0.0,0.0,0.0,0.0,-2.6916,0.0,0.0,0.0,0.0,0.0,-2.1356,0.0,-1.9322,-1.8723,-1.8358,-1.8634,-1.9815,-2.1255,-2.2931,-2.8448,0.0,0.0,0.0,0.0,0.0,0.0,0.0,0.0,0.0,0.0,0.0,0.0,0.0,0.0,0.0,0.0,-4.3628,-4.3763,-4.3956,-4.4097,-4.4196,-4.431,-4.431,-4.4497,-4.4587,-4.4587,0.0,0.0,0.0,0.0,0.0,0.0,-4.4587,-4.4682,-4.4831,-4.4923,-4.5086,-4.5247,-4.5371,-4.5371,-4.5194,0.0,0.0,0.0,0.0,0.0,0.0,0.0,0.0,0.0,0.0,0.0,-0.8899,-0.8825,-0.9577,0.0,0.0,0.0,0.0,0.0,0.0,0.0,0.0,0.0,0.0,0.0,-1.4078,-1.5355,-1.741,-1.8141,-1.9248,-2.0671,-2.0846,-2.0774,-2.0459,-1.9613,-1.8637,0.0,0.0,0.0,0.0,0.0,0.0,0.0,0.0,0.0,0.0,-1.8968,-1.9358,0.0,0.0,0.0,0.0,0.0,0.0,0.0,0.0,-2.0135,-2.0066,-2.1515,0.0,-2.3108,-2.2951,-2.2165,-2.1229,0.0,-1.985,-1.9142,-1.8574,0.0,-1.8307,-1.8634,-1.9815,-2.1829,-2.5307,-2.9624,0.0,0.0,0.0,0.0,0.0,0.0,0.0,0.0,0.0,0.0,0.0,0.0,0.0,0.0,0.0,0.0,-4.3628,-4.3628,-4.3763,-4.3956,-4.4097,-4.4196,-4.431,-4.4367,-4.444,-4.4587,0.0,0.0,0.0,0.0,0.0,-4.4587,-4.4587,-4.4682,-4.4831,-4.4923,-4.5086,-4.5247,-4.5371,-4.5177,-4.4763,0.0,0.0,0.0,0.0,0.0,0.0,0.0,0.0,0.0,0.0,0.0,0.0,0.0,0.0,0.0,0.0,0.0,0.0,0.0,0.0,0.0,0.0,0.0,0.0,-1.3872,-1.4241,-1.5536,-1.7818,-1.8624,-1.9766,-2.1234,-2.1904,-2.194,-2.1348,-2.0017,-1.8624,0.0,0.0,0.0,0.0,0.0,0.0,0.0,0.0,0.0,0.0,-1.8329,-1.8643,0.0,-1.9805,-2.0193,-2.04,0.0,0.0,0.0,0.0,-1.9267,-1.9226,-1.9858,-2.0722,-2.1407,-2.1295,-2.0814,-2.0304,-1.9852,0.0,0.0,0.0,0.0,-1.8698,-1.8951,-2.0414,0.0,0.0,0.0,0.0,0.0,0.0,0.0,0.0,0.0,0.0,0.0,0.0,0.0,0.0,0.0,0.0,0.0,0.0,0.0,0.0,-4.3628,-4.3628,-4.3763,-4.3939,-4.4039,-4.4097,-4.4212,-4.4327,-4.444,0.0,0.0,0.0,0.0,0.0,-4.4587,-4.4587,-4.4626,-4.4737,-4.4923,-4.5032,-4.514,-4.5318,-4.5123,-4.4652,0.0,0.0,0.0,0.0,0.0,0.0,0.0,0.0,0.0,0.0,0.0,0.0,0.0,0.0,0.0,0.0,0.0,0.0,0.0,0.0,0.0,0.0,0.0,-1.3246,-1.4418,-1.4656,-1.5879,-1.8176,-1.9248,-2.0407,-2.1678,-2.2849,-2.2979,-2.2148,-2.0205,-1.8528,0.0,0.0,0.0,0.0,-1.724,0.0,0.0,0.0,0.0,0.0,0.0,0.0,0.0,-1.9308,-1.9778,-1.9845,-1.9563,0.0,0.0,0.0,0.0,0.0,-1.9691,-2.0609,-2.1246,-2.0905,-2.074,-2.0546,-2.0243,0.0,0.0,0.0,0.0,0.0,0.0,0.0,0.0,0.0,0.0,0.0,0.0,0.0,0.0,0.0,0.0,0.0,0.0,0.0,0.0,0.0,0.0,0.0,0.0,0.0,0.0,0.0,-4.3628,-4.3628,-4.3628,-4.3763,-4.3898,-4.3898,-4.3998,-4.4155,-4.4253,-4.431,0.0,0.0,0.0,0.0,-4.4587,-4.4587,-4.4587,-4.4643,-4.4886,-4.4978,-4.5032,-4.5194,-4.5015,-4.4524,0.0,0.0,0.0,0.0,0.0,0.0,0.0,0.0,0.0,0.0,0.0,0.0,0.0,0.0,0.0,0.0,0.0,0.0,0.0,0.0,0.0,0.0,-1.3309,-1.3526,-1.3749,-1.5471,-1.6775,-1.761,-1.9594,-2.0962,-2.1903,-2.2903,-2.2541,-2.0928,-1.986,-1.8608,-1.7281,-1.7133,-1.7158,-1.7281,-1.7281,0.0,0.0,0.0,0.0,0.0,0.0,0.0,0.0,-1.8187,-1.901,-1.9842,-1.9011,0.0,0.0,0.0,0.0,0.0,-1.9076,-2.169,-2.3917,-2.2542,-2.2422,-2.244,-2.1686,0.0,0.0,0.0,0.0,0.0,0.0,0.0,0.0,0.0,0.0,0.0,0.0,0.0,0.0,0.0,0.0,0.0,0.0,0.0,0.0,0.0,0.0,0.0,0.0,0.0,0.0,0.0,0.0,-4.3628,-4.3628,-4.3628,-4.3763,-4.3898,-4.3898,-4.3998,-4.4155,-4.4253,-4.431,0.0,0.0,-4.4587,-4.4587,-4.4587,-4.4587,-4.4643,-4.4886,-4.4978,-4.4978,-4.4835,-4.4541,-4.403,0.0,0.0,0.0,0.0,0.0,0.0,0.0,0.0,0.0,0.0,0.0,0.0,0.0,0.0,0.0,0.0,0.0,0.0,0.0,0.0,0.0,-1.3321,-1.3851,-1.4517,-1.532,-1.6184,-1.7496,-1.9233,-2.0583,-2.1811,-2.2907,-2.3272,-2.2475,-2.0655,-1.9761,-1.8555,-1.7248,-1.7057,-1.7099,-1.7248,0.0,0.0,0.0,0.0,0.0,0.0,0.0,0.0,0.0,0.0,-1.8591,-1.9329,-1.8849,0.0,0.0,0.0,0.0,0.0,-1.8847,-2.1349,-2.3859,-2.4507,-2.5066,-2.5214,-2.4292,0.0,0.0,0.0,0.0,0.0,0.0,0.0,0.0,0.0,0.0,0.0,0.0,0.0,0.0,0.0,0.0,0.0,0.0,0.0,0.0,0.0,0.0,0.0,0.0,0.0,0.0,0.0,0.0,0.0,-4.3628,-4.3628,-4.3628,-4.3763,-4.3763,-4.3822,-4.3998,-4.4155,-4.4253,-4.431,0.0,-4.4587,-4.4587,-4.4587,-4.4626,-4.4737,-4.4923,-4.5032,-4.5015,-4.4485,-4.4088,-4.3697,0.0,0.0,0.0,0.0,0.0,0.0,0.0,0.0,0.0,0.0,0.0,0.0,0.0,0.0,0.0,0.0,0.0,0.0,0.0,0.0,-1.25,-1.3628,-1.4291,-1.5336,-1.6805,-1.722,-1.8517,-2.0777,-2.1787,-2.2864,-2.3951,-2.331,-2.2212,-2.0638,-1.958,-1.8392,-1.724,-1.7074,-1.7099,-1.7265,0.0,0.0,0.0,0.0,0.0,0.0,0.0,0.0,0.0,0.0,0.0,0.0,0.0,0.0,0.0,-1.7731,-1.7535,-1.7744,-1.865,-2.0894,-2.3576,-2.5946,0.0,-2.7483,-2.7043,0.0,0.0,0.0,0.0,0.0,0.0,0.0,0.0,0.0,0.0,0.0,0.0,0.0,0.0,0.0,0.0,0.0,0.0,0.0,0.0,0.0,0.0,0.0,0.0,0.0,0.0,0.0,0.0,0.0,-4.3628,-4.3628,-4.3628,-4.3628,-4.3628,-4.3687,-4.3839,-4.3998,-4.4155,-4.4253,-4.4514,-4.4587,-4.4587,-4.4587,-4.4682,-4.4831,-4.4923,-4.4978,-4.4835,-4.4071,-4.368,-4.3399,0.0,0.0,0.0,0.0,0.0,0.0,0.0,0.0,0.0,0.0,0.0,0.0,0.0,0.0,0.0,0.0,0.0,0.0,0.0,0.0,-1.2364,-1.4418,-1.4629,-1.5407,-1.6959,-1.8795,-2.016,-2.099,-2.2961,-2.4106,-2.441,-2.2525,-2.1305,-2.0621,-1.9118,-1.807,-1.7387,-1.7281,-1.7322,-1.7387,-1.7387,0.0,0.0,0.0,0.0,0.0,0.0,0.0,0.0,0.0,0.0,0.0,0.0,0.0,-1.8449,-1.7731,-1.7893,-1.83,-1.8253,-2.1078,-2.4413,-2.6235,-2.7305,0.0,-2.9463,-2.9203,0.0,-2.845,0.0,0.0,0.0,0.0,0.0,0.0,0.0,0.0,0.0,0.0,0.0,0.0,0.0,0.0,0.0,0.0,0.0,0.0,0.0,0.0,0.0,0.0,0.0,0.0,0.0,0.0,-4.3628,-4.3628,-4.3628,-4.3628,-4.3628,-4.3628,-4.3628,-4.3923,-4.4097,-4.4155,-4.4457,-4.4587,-4.4587,-4.4587,-4.4682,-4.4831,-4.4923,-4.4631,-4.403,-4.3545,-4.3157,-4.2945,0.0,0.0,0.0,0.0,0.0,0.0,0.0,0.0,0.0,0.0,0.0,0.0,0.0,0.0,0.0,0.0,0.0,0.0,0.0,0.0,-1.199,-1.3304,-1.4227,-1.5461,-1.7084,-1.8595,-2.0367,-2.2417,-2.3594,-2.3827,-2.3171,-2.2035,-2.096,-1.9975,-1.8871,-1.8021,-1.7411,-1.7346,-1.7346,-1.7411,-1.7411,-1.7443,0.0,0.0,0.0,0.0,0.0,0.0,0.0,0.0,-1.6547,-1.7353,-1.772,-1.8257,-1.8568,-1.7744,-1.7642,-1.7894,-1.813,-2.1406,-2.5165,-2.6991,-2.9486,0.0,0.0,-3.2155,-3.1982,0.0,0.0,0.0,0.0,0.0,0.0,0.0,0.0,0.0,0.0,0.0,0.0,0.0,0.0,0.0,0.0,0.0,0.0,0.0,0.0,0.0,0.0,0.0,0.0,0.0,0.0,0.0,0.0,-4.3628,-4.3628,-4.3628,-4.3628,-4.3628,-4.3628,-4.3923,-4.4097,-4.4097,-4.4457,-4.4587,-4.4587,-4.4587,-4.4737,-4.494,-4.4852,-4.4373,-4.3756,-4.3562,-4.3355,-4.3207,0.0,0.0,0.0,0.0,0.0,0.0,0.0,0.0,0.0,0.0,0.0,0.0,0.0,0.0,0.0,0.0,0.0,0.0,-0.9081,-1.014,-1.1331,-1.2585,-1.3551,-1.5063,-1.7183,-1.8001,-1.9771,-2.2663,-2.3026,-2.2804,-2.2037,-2.0975,-2.0172,-1.9541,-1.8746,-1.8127,-1.7675,-1.7675,-1.7544,-1.7411,-1.7419,-1.7467,0.0,0.0,0.0,0.0,0.0,0.0,0.0,0.0,-1.5902,-1.6715,-1.7359,-1.798,-1.8355,-1.771,-1.7512,-1.761,-1.8115,-2.1034,-2.4548,-2.7276,0.0,0.0,-3.3778,-3.4177,-3.408,0.0,0.0,0.0,0.0,0.0,0.0,0.0,0.0,0.0,0.0,0.0,0.0,0.0,0.0,0.0,0.0,0.0,0.0,0.0,0.0,0.0,0.0,0.0,0.0,0.0,0.0,0.0,-4.4324,-4.4075,-4.3959,-4.3959,-4.3727,-4.3628,-4.3628,-4.3923,-4.4097,-4.4097,-4.4457,-4.4587,-4.457,-4.4626,-4.472,-4.4797,-4.4429,-4.3972,-4.3578,-4.3416,-4.3372,-4.3372,0.0,0.0,0.0,0.0,0.0,0.0,0.0,0.0,0.0,0.0,0.0,0.0,0.0,0.0,0.0,0.0,0.0,0.0,-0.9034,-0.9295,-1.0383,-1.2581,-1.27,-1.414,-1.7183,-1.7083,-1.8393,-2.1261,-2.1071,-2.1103,-2.1244,-1.9246,-1.8749,-1.9476,-1.8752,-1.8381,-1.8313,-1.8381,-1.8012,-1.7411,-1.7467,-1.7515,-1.7432,0.0,0.0,0.0,0.0,0.0,0.0,0.0,-1.4778,-1.5984,-1.6591,-1.7258,-1.7765,-1.7641,-1.7556,-1.7655,-1.8253,-1.986,-2.2448,0.0,0.0,0.0,-3.5012,-3.4993,-3.4528,0.0,0.0,0.0,0.0,0.0,0.0,0.0,0.0,0.0,0.0,0.0,0.0,0.0,0.0,0.0,0.0,0.0,0.0,0.0,0.0,0.0,0.0,0.0,0.0,0.0,0.0,0.0,-4.5781,-4.5052,-4.4688,-4.4688,-4.3976,-4.3645,-4.3628,-4.3923,-4.4097,-4.4097,-4.4457,-4.4587,-4.457,-4.472,-4.4648,-4.439,-4.3604,-4.3443,-4.3519,-4.3068,-4.3146,-4.3372,0.0,0.0,0.0,0.0,0.0,0.0,0.0,0.0,0.0,0.0,0.0,0.0,0.0,0.0,0.0,0.0,0.0,0.0,-0.83,-0.9344,-1.0299,-1.1051,-1.2575,-1.388,-1.4886,-1.5717,-1.7273,-1.9599,-2.0079,-2.0138,-1.9832,-1.9323,-1.9225,-1.9493,-1.9279,-1.8858,-1.8313,-1.8381,-1.8012,-1.7411,-1.7467,-1.7515,-1.7365,0.0,0.0,0.0,0.0,0.0,0.0,0.0,0.0,0.0,-1.5751,-1.6566,-1.7168,-1.7499,-1.793,-1.8607,-2.0084,-2.3714,0.0,0.0,0.0,0.0,0.0,-3.5379,0.0,0.0,0.0,0.0,0.0,0.0,0.0,0.0,0.0,0.0,0.0,0.0,0.0,0.0,0.0,0.0,0.0,0.0,0.0,0.0,0.0,0.0,0.0,0.0,0.0,0.0,0.0,0.0,-4.4315,-4.4087,-4.4502,-4.5467,-4.5251,-4.4605,-4.3628,-4.3923,-4.4097,-4.4097,-4.4457,-4.431,-4.3839,-4.3798,-4.3621,-4.3502,-4.3502,-4.3399,-4.3235,-4.3251,-4.3372,-4.3486,0.0,0.0,0.0,0.0,0.0,0.0,0.0,0.0,0.0,0.0,0.0,0.0,0.0,0.0,0.0,0.0,0.0,0.0,0.0,-0.908,-0.9918,-1.0333,-1.2174,-1.351,-1.4159,-1.5222,-1.6221,-1.7135,-1.79,-1.8283,-1.8335,-1.8426,-1.8816,-1.9427,-1.9427,-1.9138,-1.8643,-1.8444,-1.7971,-1.7371,-1.7451,-1.7515,-1.7349,0.0,0.0,0.0,0.0,0.0,0.0,0.0,0.0,0.0,-1.4786,0.0,-1.6508,-1.7065,-1.8621,-2.0512,-2.2216,0.0,0.0,0.0,0.0,0.0,0.0,0.0,0.0,0.0,0.0,0.0,0.0,0.0,0.0,0.0,0.0,0.0,0.0,0.0,0.0,0.0,0.0,0.0,0.0,0.0,0.0,0.0,0.0,0.0,0.0,0.0,0.0,0.0,0.0,0.0,-4.365,-4.3377,-4.3703,-4.4528,-4.4315,-4.3744,-4.2912,-4.3773,-4.4012,-4.3713,-4.3589,-4.3381,-4.2947,-4.2581,-4.2407,-4.2423,-4.2423,-4.244,-4.2397,-4.2456,-4.265,-4.2775,0.0,0.0,0.0,0.0,0.0,0.0,0.0,0.0,0.0,0.0,-0.7899,0.0,0.0,0.0,0.0,0.0,0.0,0.0,0.0,0.0,-0.9449,-1.0265,-1.1709,-1.3152,-1.4567,-1.5185,-1.5122,-1.4397,-1.5192,-1.6028,-1.6892,-1.7171,-1.8,-1.9288,-1.9353,-1.9309,-1.9151,-1.849,-1.7854,-1.7306,-1.7294,-1.7349,-1.7249,-1.5757,0.0,0.0,0.0,0.0,0.0,0.0,0.0,0.0,-1.3799,-1.4636,-1.5783,-1.6559,-1.9468,-2.2761,-2.4424,0.0,0.0,0.0,0.0,0.0,0.0,0.0,0.0,0.0,0.0,0.0,0.0,0.0,0.0,0.0,0.0,0.0,0.0,0.0,0.0,0.0,0.0,0.0,0.0,0.0,0.0,0.0,0.0,0.0,0.0,0.0,0.0,0.0,0.0,0.0,-4.3485,-4.2853,-4.2568,0.0,-4.2214,-4.1946,-4.1979,-4.3361,-4.3673,-4.3064,-4.2266,-4.1999,-4.2111,-4.1262,-4.1066,-4.1319,-4.0893,-4.0909,-4.1214,-4.1231,-4.1475,-4.1716,0.0,0.0,0.0,0.0,0.0,0.0,0.0,0.0,0.0,0.0,0.0,0.0,0.0,0.0,0.0,0.0,0.0,0.0,0.0,0.0,-0.9853,-1.021,-1.2183,-1.3684,-1.4569,-1.4128,-1.3801,-1.3653,-1.4956,-1.5733,-1.6006,-1.7835,-1.8828,-1.9163,-1.9803,-1.9754,-1.9123,-1.7941,-1.742,-1.7272,-1.6193,-1.6122,-1.6486,-1.499,-1.4079,0.0,0.0,0.0,0.0,0.0,0.0,0.0,-1.3638,-1.3962,-1.4601,-1.6886,-1.9578,-2.2555,0.0,-3.037,0.0,0.0,0.0,0.0,0.0,0.0,0.0,0.0,0.0,0.0,0.0,0.0,0.0,0.0,0.0,0.0,0.0,0.0,0.0,0.0,0.0,0.0,0.0,0.0,0.0,0.0,0.0,0.0,0.0,0.0,0.0,0.0,0.0,-4.0444,-4.1805,-4.1837,-4.2356,0.0,-4.3353,-4.3071,-4.268,-4.2655,-4.2856,-4.3064,-4.1746,-4.1578,-4.1999,-4.0848,-4.054,-4.0893,-4.1041,-4.1198,-4.1368,-4.1531,-4.1699,-4.1765,0.0,0.0,0.0,0.0,0.0,0.0,0.0,0.0,0.0,0.0,0.0,0.0,0.0,0.0,0.0,0.0,0.0,0.0,0.0,0.0,0.0,-1.1554,-1.2754,-1.359,-1.4012,-1.3539,-1.3153,-1.2826,-1.4218,-1.497,-1.5185,-1.7364,-1.8582,-1.902,-1.9404,-1.9222,-1.8478,-1.7173,-1.6457,-1.6144,-1.5501,-1.5284,-1.5184,-1.4093,-1.32,-1.247,-1.204,0.0,0.0,0.0,0.0,0.0,0.0,0.0,-1.4026,-1.5798,-1.9279,-2.3342,0.0,0.0,0.0,0.0,0.0,0.0,0.0,0.0,0.0,0.0,0.0,0.0,0.0,0.0,0.0,0.0,0.0,0.0,0.0,0.0,0.0,0.0,0.0,0.0,0.0,0.0,0.0,0.0,0.0,0.0,0.0,0.0,0.0,0.0,-3.7991,-3.8807,-3.9879,-4.0036,-4.0653,-4.179,-4.1876,-4.1844,-4.1758,-4.1978,-4.2061,-4.2094,-4.099,-4.0788,-4.1086,-3.9914,-3.9592,-3.9919,-4.0064,-4.0288,-4.0508,-4.0596,-4.0758,-4.0906,0.0,0.0,0.0,0.0,0.0,0.0,0.0,0.0,0.0,0.0,0.0,0.0,0.0,0.0,0.0,0.0,0.0,0.0,0.0,0.0,0.0,-1.2847,-1.3173,-1.3324,-1.3352,-1.3257,-1.2867,-1.2174,-1.3459,-1.4252,-1.464,-1.6729,-1.8163,-1.8974,-1.8817,-1.8416,-1.7791,-1.637,-1.5382,-1.4729,-1.4775,-1.4422,-1.3815,-1.326,-1.2486,-1.163,-1.1123,-1.1108,-1.1366,-1.1609,0.0,0.0,0.0,0.0,-1.3503,-1.4275,-1.8523,-2.36,0.0,0.0,0.0,0.0,0.0,0.0,0.0,0.0,0.0,0.0,0.0,0.0,0.0,0.0,0.0,0.0,0.0,0.0,0.0,0.0,0.0,0.0,0.0,0.0,0.0,0.0,0.0,0.0,0.0,0.0,0.0,0.0,-3.6718,-3.6842,-3.7154,-3.7605,-3.8157,-3.8227,-3.8712,-3.9516,-3.9864,-4.0207,-4.0593,-4.1425,-4.1494,-4.0955,-4.034,-4.0071,-4.0027,-3.9097,-3.8821,-3.9023,-3.9094,-3.9255,-3.959,-3.9606,-3.9746,-4.0003,0.0,0.0,0.0,0.0,0.0,0.0,0.0,0.0,0.0,0.0,0.0,0.0,0.0,0.0,0.0,0.0,0.0,0.0,-0.7899,0.0,0.0,-1.2163,-1.2917,-1.3286,-1.3235,-1.3212,-1.2829,-1.2112,-1.3389,-1.4349,0.0,0.0,-1.8548,-1.9309,-1.8718,-1.8212,-1.7693,-1.5711,-1.4551,-1.399,-1.3368,-1.3057,-1.2959,-1.288,-1.2019,-1.0929,-1.1399,-1.0817,-0.9981,-1.1201,-1.1665,0.0,0.0,0.0,0.0,-1.3455,-1.6763,-2.0969,0.0,0.0,0.0,0.0,0.0,0.0,0.0,0.0,0.0,0.0,0.0,0.0,0.0,0.0,0.0,0.0,0.0,0.0,0.0,0.0,0.0,0.0,0.0,0.0,0.0,0.0,0.0,0.0,0.0,0.0,0.0,-3.5375,-3.5805,-3.5805,-3.664,-3.7189,-3.7278,-3.7638,-3.8174,-3.8837,-3.9777,-4.0401,-4.0799,-4.139,-4.1241,-4.056,-4.0272,-4.0038,-3.9715,-3.9165,-3.9094,-3.9272,-3.9379,-3.959,-3.9849,-3.9986,-4.0138,-4.0255,0.0,0.0,0.0,0.0,0.0,0.0,0.0,0.0,0.0,0.0,0.0,0.0,0.0,0.0,0.0,-0.7899,-0.7899,-0.8064,-0.8439,-0.9075,-1.0033,-1.1374,-1.1438,-1.1631,-1.201,-1.1622,-1.125,-1.0929,-1.2576,0.0,0.0,-1.7379,-1.8751,0.0,0.0,-1.83,-1.7345,-1.5738,-1.4482,-1.3547,-1.3364,-1.3892,-1.4663,-1.3721,-1.3286,-1.3068,-1.1939,-1.1097,-1.0601,-1.1217,-1.1727,-1.21,-1.2045,0.0,0.0,0.0,0.0,0.0,0.0,0.0,0.0,0.0,0.0,0.0,0.0,0.0,0.0,0.0,0.0,0.0,0.0,0.0,0.0,0.0,0.0,0.0,0.0,0.0,0.0,0.0,0.0,0.0,0.0,0.0,0.0,0.0,0.0,0.0,-3.4668,-3.4999,-3.528,-3.5577,-3.5993,-3.6388,-3.676,-3.703,-3.7548,-3.8402,-3.918,-3.9869,-4.0442,-4.0673,-4.0832,-4.0943,-4.0607,-4.031,-4.0005,-3.9391,-3.9309,-3.952,-3.959,-3.9798,-4.0037,-4.0087,-4.0238,-4.0436,0.0,0.0,0.0,0.0,0.0,0.0,0.0,0.0,0.0,0.0,0.0,0.0,0.0,0.0,0.0,0.0,-0.7899,-0.8109,-0.8619,-0.8862,-0.9424,-1.0387,-1.0185,-1.0266,-1.0822,-1.0315,-1.0023,-1.001,0.0,0.0,-1.4622,-1.7058,-1.8507,0.0,-1.9174,-1.8585,0.0,0.0,-1.4702,-1.3558,-1.4272,-1.5327,-1.637,-1.548,-1.5468,-1.5606,-1.3199,-1.2084,-1.1714,-1.1563,-1.1902,-1.2278,-1.1627,-1.1331,0.0,0.0,0.0,0.0,0.0,0.0,0.0,0.0,0.0,0.0,0.0,0.0,0.0,0.0,0.0,0.0,0.0,0.0,0.0,0.0,0.0,0.0,0.0,0.0,0.0,0.0,0.0,0.0,0.0,0.0,0.0,0.0,0.0,0.0,-3.4802,-3.4935,-3.5082,-3.5439,-3.5439,-3.5744,-3.6274,-3.6637,-3.7284,-3.815,-3.8725,-3.9421,-4.0116,-4.0176,-4.0478,-4.1026,-4.0743,-4.0376,-4.0001,-3.9594,-3.9573,-3.9781,-3.9781,-3.9986,-4.0238,-4.0238,-4.0387,-4.0583,0.0,0.0,0.0,0.0,0.0,0.0,0.0,0.0,0.0,0.0,0.0,0.0,-0.7899,-0.7899,-0.7899,-0.7899,-0.7899,-0.7914,-0.7944,-0.8606,-0.9031,-0.9091,-0.9735,0.0,-1.0048,-1.009,-1.0062,0.0,0.0,0.0,-1.3996,-1.5975,-1.7554,-1.8766,-1.9466,-1.9103,-1.7851,0.0,0.0,-1.4225,-1.6139,-1.6951,-1.7106,-1.8341,-1.8433,-1.7608,-1.5622,-1.4062,-1.2825,-1.2244,-1.2086,-1.2005,-1.142,-1.0823,-1.0236,0.0,0.0,0.0,0.0,0.0,0.0,0.0,0.0,0.0,0.0,0.0,0.0,0.0,0.0,0.0,0.0,0.0,0.0,0.0,0.0,0.0,0.0,0.0,0.0,0.0,0.0,0.0,0.0,0.0,0.0,0.0,0.0,0.0,-3.4698,-3.5016,-3.5213,-3.5213,-3.5424,-3.5569,-3.5733,-3.6691,-3.7492,-3.8044,-3.8684,-3.9393,-4.0168,-4.0196,-4.0242,-4.036,-4.0326,-3.9967,-3.9375,-3.959,-3.9833,-4.0087,-4.0087,-4.0221,-4.0468,-4.0648,-4.0697,-4.0745,0.0,0.0,0.0,0.0,0.0,0.0,0.0,0.0,0.0,0.0,0.0,0.0,0.0,-0.7899,-0.7899,-0.7899,-0.7899,-0.7899,-0.7899,-0.8154,-0.8485,-0.8922,-0.8788,-0.8895,-0.9352,-0.9003,-0.8804,0.0,0.0,-1.1799,-1.2743,-1.5508,-1.7044,-1.7554,-1.9051,-1.9266,-1.8353,-1.7076,0.0,0.0,0.0,0.0,-2.1379,0.0,0.0,0.0,0.0,0.0,0.0,-1.6548,-1.5508,-1.4227,-1.275,-1.1617,-1.0669,-0.9956,-1.2374,0.0,0.0,0.0,0.0,0.0,0.0,0.0,0.0,0.0,0.0,0.0,0.0,0.0,0.0,0.0,0.0,0.0,0.0,0.0,0.0,0.0,0.0,0.0,0.0,0.0,0.0,0.0,0.0,0.0,0.0,0.0,-3.5016,-3.5148,-3.5294,-3.5359,-3.5439,-3.5748,-3.6226,-3.6644,-3.7204,-3.7828,-3.8229,-3.8921,-3.981,-3.9658,-3.9913,-4.0392,-4.0247,-4.0016,-3.9694,-3.9884,-4.0087,-4.0238,-4.0337,-4.0485,-4.0631,-4.0823,-4.0948,-4.1088,0.0,0.0,0.0,0.0,0.0,0.0,0.0,0.0,0.0,0.0,0.0,0.0,0.0,0.0,-0.8484,-0.8244,-0.8229,-0.8139,-0.7914,-0.7899,-0.8109,-0.8545,-0.8153,-0.8167,-0.8697,-0.8313,-0.8097,0.0,0.0,0.0,0.0,-1.4217,-1.5628,-1.5886,-1.7597,-1.8358,0.0,0.0,0.0,-1.7584,0.0,0.0,-2.4447,0.0,0.0,0.0,0.0,0.0,0.0,0.0,0.0,-1.7498,-1.4894,-1.2501,-1.0572,-1.0253,-1.152,0.0,-1.5743,0.0,0.0,0.0,0.0,0.0,0.0,0.0,0.0,0.0,0.0,0.0,0.0,0.0,0.0,0.0,0.0,0.0,0.0,0.0,0.0,0.0,0.0,0.0,0.0,0.0,0.0,0.0,0.0,0.0,-3.5213,-3.5294,-3.5359,-3.5539,-3.5797,-3.6115,-3.6538,-3.6907,-3.7314,-3.786,-3.8059,-3.8626,-3.9476,-3.94,-3.9718,-4.0347,-4.0273,-4.0171,-3.9986,-4.0188,-4.037,-4.0517,-4.0614,-4.0806,-4.1012,-4.1134,-4.1272,-4.1363,0.0,0.0,0.0,0.0,0.0,0.0,0.0,0.0,0.0,-0.8845,0.0,0.0,0.0,0.0,0.0,-0.901,-0.892,-0.8634,-0.7974,-0.7914,-0.7899,-0.7897,-0.7956,-0.8028,-0.8099,-0.8096,-0.8094,-0.8094,0.0,0.0,0.0,0.0,-1.3219,-1.3785,-1.5119,-1.6368,-1.7473,0.0,-1.7458,-1.8942,0.0,-2.3879,-2.5854,0.0,0.0,0.0,-2.6317,-2.5127,0.0,0.0,0.0,0.0,0.0,-1.3333,-0.9876,-1.0317,-1.0561,0.0,0.0,0.0,0.0,0.0,0.0,0.0,0.0,0.0,0.0,0.0,0.0,0.0,0.0,0.0,0.0,0.0,0.0,0.0,0.0,0.0,0.0,0.0,0.0,0.0,0.0,0.0,0.0,0.0,0.0,-3.5001,-3.5213,-3.5439,-3.5604,-3.5688,-3.6336,-3.6708,-3.6723,-3.7389,-3.786,-3.8116,-3.827,-3.8678,-3.9325,-3.9398,-3.9696,-4.0121,-4.05,-4.0485,-4.0205,-4.0436,-4.071,-4.1059,-4.1041,-4.1272,-4.1604,-4.1604,-4.1604,-4.1648,0.0,0.0,0.0,0.0,0.0,0.0,0.0,0.0,0.0,0.0,0.0,0.0,-1.0529,-1.0544,-1.0488,-1.0294,-0.9428,-0.8815,-0.8634,-0.8169,-0.7928,-0.7971,-0.7985,-0.8027,-0.8096,-0.8109,-0.8094,-0.8094,0.0,0.0,0.0,0.0,0.0,0.0,-1.2622,-1.3145,-1.3555,-1.5291,0.0,0.0,-2.2099,-2.4537,0.0,0.0,0.0,0.0,0.0,-2.8823,0.0,0.0,-2.4809,-2.1942,0.0,0.0,-1.1446,-1.0094,-0.9734,0.0,-1.0834,0.0,0.0,0.0,0.0,0.0,0.0,0.0,0.0,0.0,0.0,0.0,0.0,0.0,0.0,0.0,0.0,0.0,0.0,0.0,0.0,0.0,0.0,0.0,0.0,0.0,0.0,0.0,-3.5294,-3.5409,-3.5574,-3.5782,-3.5988,-3.6289,-3.6538,-3.7013,-3.7535,-3.7828,-3.823,-3.8733,-3.8931,-3.9255,-3.9746,-3.9867,-4.0137,-4.0645,-4.1405,-4.1808,-4.1868,-4.1343,-4.154,-4.2102,-4.1635,-4.1525,-4.1683,-4.1892,-4.2019,-4.2121,0.0,0.0,0.0,0.0,0.0,0.0,0.0,0.0,0.0,0.0,0.0,0.0,-1.2007,-1.2037,-1.1828,-1.1281,-1.0533,-0.9758,-0.895,-0.8544,-0.8214,-0.8015,-0.8,-0.8027,-0.8094,-0.8094,-0.8094,-0.8094,0.0,0.0,0.0,0.0,0.0,0.0,0.0,0.0,0.0,0.0,0.0,0.0,-2.2158,0.0,0.0,-3.0317,-3.1351,0.0,0.0,0.0,-2.975,-2.9271,-2.6724,0.0,0.0,0.0,0.0,0.0,0.0,0.0,0.0,0.0,0.0,0.0,0.0,0.0,0.0,-2.5637,0.0,0.0,0.0,0.0,0.0,0.0,0.0,0.0,0.0,0.0,0.0,0.0,0.0,0.0,0.0,0.0,0.0,0.0,0.0,0.0,-3.5439,-3.5619,-3.5831,-3.5958,-3.6226,-3.6538,-3.6907,-3.7373,-3.8001,-3.8343,-3.8678,-3.9148,-3.9325,-3.959,-3.9986,-4.0221,-4.0549,-4.0948,-4.2149,-4.2921,-4.3384,-4.3041,-4.3085,-4.3339,-4.2979,-4.2934,-4.307,-4.2876,-4.2851,-4.2898,0.0,0.0,0.0,0.0,0.0,0.0,0.0,0.0,0.0,0.0,-1.3086,-1.3406,-1.4154,-1.4109,-1.354,-1.2343,-1.1969,-1.1027,-0.9235,-0.898,-0.862,-0.803,-0.8,-0.8027,-0.8094,-0.8094,-0.8094,-0.8094,0.0,0.0,0.0,0.0,0.0,0.0,0.0,0.0,0.0,0.0,0.0,-1.7926,-2.1968,-2.5285,0.0,0.0,-3.1219,0.0,-3.0807,-3.0762,-3.0732,-3.0274,-2.7821,0.0,0.0,0.0,0.0,0.0,-1.3572,0.0,0.0,0.0,0.0,0.0,0.0,0.0,-2.1874,-2.3897,0.0,0.0,0.0,0.0,0.0,0.0,0.0,0.0,0.0,0.0,0.0,0.0,0.0,0.0,0.0,0.0,0.0,0.0,-3.5279,-3.5279,-3.5489,-3.5748,-3.6037,-3.6211,-3.6461,-3.6831,-3.7449,-3.7918,-3.823,-3.8733,-3.9148,-3.9325,-3.9501,-3.9781,-4.0171,-4.0483,-4.0819,-4.1198,-4.2661,-4.3728,-4.4448,-4.4928,-4.4939,-4.468,-4.4642,-4.4796,-4.4928,-4.4209,-4.398,-4.3854,-1.0058,0.0,0.0,0.0,0.0,0.0,0.0,0.0,0.0,-1.4378,-1.4884,-1.5635,-1.6801,-1.6024,-1.5304,-1.5049,-1.3047,-1.1416,-1.0503,-0.9473,-0.862,-0.803,-0.8,-0.8027,-0.8094,-0.8094,-0.8094,-0.8094,0.0,0.0,0.0,0.0,0.0,0.0,0.0,0.0,0.0,0.0,0.0,-1.7268,-2.1739,0.0,-2.9355,-3.0755,-3.0837,-3.0208,-3.0054,-2.9546,-2.8864,0.0,-2.6895,-2.5781,0.0,0.0,0.0,0.0,0.0,0.0,0.0,0.0,0.0,0.0,0.0,0.0,-1.7557,-1.9978,0.0,0.0,0.0,0.0,0.0,0.0,0.0,0.0,0.0,0.0,0.0,0.0,0.0,0.0,0.0,0.0,0.0,0.0,-3.5638,-3.5638,-3.5894,-3.6211,-3.6538,-3.6739,-3.715,-3.7828,-3.7943,-3.8286,-3.8805,-3.9094,-3.9362,-3.9625,-3.9884,-4.0204,-4.0659,-4.0819,-4.1209,-4.178,-4.2853,-4.3494,-4.3895,-4.5438,-4.5978,-4.5814,-4.515,-4.5042,-4.5124,-4.4962,-4.4971,-4.4867,-1.0554,0.0,0.0,0.0,0.0,0.0,0.0,0.0,0.0,-1.6204,-1.6502,-1.6934,-1.7477,-1.6973,-1.6485,-1.6173,-1.4602,-1.309,-1.1785,-1.0812,-0.9737,-0.85,-0.847,-0.8362,-0.8109,-0.8094,-0.8094,-0.8094,0.0,0.0,0.0,0.0,0.0,0.0,0.0,0.0,0.0,0.0,-1.4616,-1.8245,-2.1655,0.0,-2.8726,-2.9734,-2.9889,-2.9442,-2.9205,-2.8889,-2.841,-2.789,-2.7418,0.0,0.0,-2.3992,-2.3034,0.0,-1.8977,-1.8356,0.0,0.0,0.0,-1.5356,0.0,0.0,0.0,-1.9335,-2.0785,0.0,0.0,0.0,0.0,0.0,0.0,0.0,0.0,0.0,0.0,0.0,0.0,0.0,0.0,0.0,0.0,0.0,-3.5958,-3.6196,-3.6321,-3.6646,-3.7013,-3.7225,-3.7567,-3.81,-3.8343,-3.8678,-3.9148,-3.9432,-3.9764,-4.0037,-4.0237,-4.0628,-4.11,-4.1311,-4.164,-4.2055,-4.3167,-4.3714,-4.3949,-4.5319,-4.5906,-4.592,-4.6236,-4.644,-4.6504,-4.6087,-4.6005,-4.5939,-1.0973,0.0,0.0,0.0,0.0,0.0,0.0,0.0,0.0,-1.7802,-1.7825,-1.7844,-1.8007,-1.7899,-1.7724,-1.7374,-1.6601,-1.5371,0.0,0.0,0.0,0.0,-0.9423,-0.9094,-0.851,-0.8356,-0.8294,-0.8294,0.0,0.0,0.0,0.0,0.0,0.0,0.0,0.0,0.0,0.0,0.0,-1.9846,0.0,-2.4883,-2.7619,-2.8504,-2.8774,-2.8598,-2.8271,-2.8117,-2.8117,-2.8403,0.0,-2.7603,-2.7123,-2.6313,0.0,0.0,0.0,0.0,0.0,0.0,0.0,0.0,0.0,-1.662,0.0,0.0,0.0,-2.1846,0.0,0.0,0.0,0.0,0.0,0.0,0.0,0.0,0.0,0.0,0.0,0.0,0.0,0.0,0.0,0.0,-3.6087,-3.6522,-3.6445,-3.6674,-3.7345,-3.7494,-3.7831,-3.8343,-3.8694,-3.9077,-3.9432,-3.9729,-4.0121,-4.0497,-4.0611,-4.096,-4.1552,-4.1839,-4.2068,-4.2305,-4.3332,-4.3857,-4.3971,-4.4922,-4.5326,-4.551,-4.6971,-4.7606,-4.7652,-4.7143,-4.6983,-4.6934,-1.0759,-1.1215,0.0,0.0,0.0,0.0,0.0,0.0,-1.7832,-1.8401,-1.849,-1.8964,0.0,0.0,0.0,0.0,0.0,0.0,-1.6329,0.0,0.0,0.0,0.0,-1.048,-0.9896,-0.9281,-0.8973,-0.8973,0.0,0.0,0.0,0.0,0.0,0.0,-1.155,0.0,0.0,0.0,-2.028,0.0,-2.4121,-2.606,0.0,-2.8028,-2.7857,-2.728,-2.686,-2.6714,-2.6782,0.0,-2.7709,-2.832,0.0,-2.8419,0.0,0.0,0.0,0.0,0.0,0.0,0.0,0.0,-1.7237,0.0,0.0,0.0,-1.6771,-1.6927,0.0,0.0,0.0,0.0,0.0,0.0,0.0,0.0,0.0,0.0,0.0,0.0,0.0,0.0,0.0,0.0,0.0,-3.596,-3.5522,-3.5807,-3.7046,-3.7158,-3.7783,-3.9131,-3.9218,-3.9432,-3.9849,-3.9986,-4.0303,-4.0754,-4.0866,-4.1328,-4.2019,-4.2092,-4.2356,-4.2745,-4.3045,-4.3213,-4.3304,-4.4161,-4.4526,-4.4672,-4.6275,-4.6913,-4.6986,-4.7645,-4.7864,-4.7755,-1.0134,-1.0551,0.0,0.0,0.0,0.0,0.0,0.0,-1.8282,-1.8466,-1.9089,0.0,0.0,0.0,0.0,0.0,0.0,-1.9625,0.0,0.0,-1.592,0.0,0.0,0.0,0.0,-1.0162,-0.9447,-0.9096,-0.8433,0.0,0.0,0.0,0.0,0.0,-1.2507,0.0,-1.5619,0.0,0.0,0.0,0.0,0.0,0.0,-2.7157,-2.721,-2.6719,-2.6569,-2.6533,-2.6521,0.0,-2.7229,0.0,0.0,0.0,0.0,0.0,0.0,0.0,0.0,0.0,0.0,0.0,0.0,0.0,0.0,0.0,-1.5195,0.0,0.0,0.0,0.0,0.0,0.0,0.0,0.0,0.0,0.0,0.0,0.0,0.0,0.0,0.0,0.0,0.0,0.0,0.0,0.0,-3.5774,-3.6637,-3.6869,-3.7515,-3.8609,-3.8887,-3.9345,-4.0037,-4.0288,-4.071,-4.1146,-4.1311,-4.177,-4.2409,-4.2516,-4.2747,-4.2992,-4.3142,-4.3251,-4.3359,-4.3723,-4.3941,-4.4175,-4.5169,-4.6119,-4.6958,-4.7286,-4.7727,-4.8041,-0.9695,0.0,0.0,0.0,0.0,0.0,0.0,0.0,0.0,0.0,0.0,0.0,-2.0712,-2.1274,0.0,0.0,0.0,-2.1458,0.0,0.0,-1.8433,0.0,-1.5828,0.0,0.0,0.0,-1.051,-0.9893,-0.9065,-0.8649,0.0,0.0,0.0,0.0,0.0,-1.5631,-1.765,0.0,0.0,-2.3325,-2.502,-2.5688,-2.5808,-2.649,-2.6667,-2.6521,-2.6533,-2.6533,-2.6533,-2.6589,-2.704,0.0,-2.7604,0.0,0.0,0.0,0.0,0.0,-2.1803,0.0,0.0,0.0,0.0,0.0,0.0,0.0,0.0,0.0,0.0,0.0,0.0,0.0,0.0,0.0,0.0,0.0,0.0,0.0,0.0,0.0,0.0,0.0,0.0,0.0,0.0,0.0,-3.4542,0.0,-3.6192,-3.6483,-3.7068,-3.8001,-3.8354,-3.8973,-3.9915,-4.0275,-4.0804,-4.1436,-4.1683,-4.211,-4.2649,-4.2862,-4.3031,-4.3178,-4.3339,-4.3426,-4.3513,-4.3566,-4.3686,-4.3826,-4.4262,-4.5277,-4.6507,-4.6872,-4.7461,-4.7921,-0.956,-1.0331,0.0,0.0,0.0,0.0,0.0,0.0,0.0,0.0,0.0,0.0,0.0,0.0,0.0,0.0,0.0,-2.3668,-2.2884,0.0,-2.1245,0.0,0.0,-1.7159,0.0,0.0,0.0,-1.1917,-1.0645,-1.0035,0.0,0.0,0.0,0.0,0.0,-1.7459,-1.9694,-2.4234,-2.5841,-2.5593,-2.7579,-2.7802,-2.6883,0.0,-2.6378,-2.6658,-2.6521,0.0,0.0,-2.6837,-2.7229,0.0,0.0,0.0,0.0,0.0,0.0,0.0,0.0,0.0,0.0,-2.059,0.0,0.0,0.0,0.0,-1.5155,0.0,0.0,0.0,0.0,0.0,-1.4572,-1.4572,0.0,0.0,0.0,0.0,0.0,0.0,0.0,0.0,0.0,0.0,0.0,-3.2029,-3.2444,0.0,-3.5678,-3.5943,-3.6472,-3.7501,-3.7728,-3.834,-3.9409,-3.9784,-4.0495,-4.1604,-4.1934,-4.2328,-4.2783,-4.2992,-4.3215,-4.3394,-4.3532,-4.3582,-4.3615,-4.3719,-4.3804,-4.3804,-4.3841,-4.434,-4.5229,-4.6581,-4.7187,-4.7298,0.0,0.0,0.0,0.0,0.0,0.0,0.0,-1.6947,0.0,0.0,0.0,0.0,0.0,0.0,-2.3501,0.0,0.0,-2.4173,-2.4269,-2.3405,0.0,0.0,0.0,-1.9606,0.0,0.0,-1.44,-1.2651,-1.1337,-1.0489,0.0,0.0,0.0,0.0,0.0,-1.7697,0.0,0.0,0.0,0.0,0.0,-2.7656,-2.7242,0.0,0.0,-2.6589,-2.6521,-2.6533,0.0,-2.6658,-2.6714,-2.685,-2.685,-2.6527,-2.607,-2.5229,-2.457,0.0,0.0,0.0,-2.2728,-2.1329,0.0,0.0,0.0,0.0,0.0,0.0,0.0,0.0,0.0,0.0,-1.4915,-1.418,-1.322,-1.2433,0.0,0.0,0.0,0.0,0.0,0.0,0.0,0.0,0.0,-2.9843,-3.1867,-3.3534,0.0,-3.507,-3.5852,-3.6875,-3.711,-3.7699,-3.8716,-3.961,-4.035,-4.0944,-4.1861,-4.2534,-4.2992,-4.3215,-4.3376,-4.3532,-4.3686,-4.3753,-4.38,-4.3851,-4.3897,-4.3929,-4.3818,-4.4017,-4.449,-4.5967,-4.6819,-4.7187,-1.1531,0.0,0.0,0.0,0.0,0.0,0.0,0.0,0.0,0.0,-2.1439,0.0,-2.3016,0.0,-2.3779,0.0,-2.405,-2.4287,-2.4677,-2.3997,0.0,-2.3946,-2.2817,0.0,0.0,0.0,0.0,-1.4448,-1.2848,-1.177,-1.1205,0.0,0.0,0.0,0.0,0.0,0.0,0.0,-2.4985,0.0,0.0,-2.7469,0.0,0.0,-2.6943,-2.6671,0.0,-2.6521,-2.6533,-2.6533,-2.6533,-2.6465,-2.6339,-2.609,-2.5672,-2.5073,-2.4793,-2.4589,-2.4406,-2.4352,0.0,-2.2598,-2.1534,0.0,-1.9285,0.0,0.0,0.0,0.0,0.0,0.0,0.0,-1.5462,-1.4546,-1.3005,-1.1676,0.0,-1.1266,0.0,0.0,0.0,0.0,0.0,0.0,-2.6359,-2.8778,-3.0639,-3.2082,0.0,0.0,-3.5177,-3.588,-3.6315,-3.7052,-3.8092,-3.8973,-3.9824,-4.0707,-4.1654,-4.2477,-4.3104,-4.3323,-4.3481,-4.3615,-4.3753,-4.3837,-4.3897,-4.3929,-4.3942,-4.4005,-4.3897,-4.3929,-4.4178,-4.5663,-4.6485,-4.6764,0.0,0.0,0.0,0.0,-1.3639,0.0,0.0,0.0,-1.9874,0.0,-2.2267,-2.2951,-2.415,-2.3863,-2.3854,-2.4412,-2.4274,0.0,-2.4112,-2.4112,0.0,0.0,-2.347,-2.2788,-2.2119,0.0,0.0,0.0,-1.5158,-1.384,-1.3221,0.0,0.0,0.0,-1.4425,0.0,-1.9758,-2.2028,-2.4412,-2.6765,-2.7301,-2.7403,-2.7335,-2.7335,0.0,-2.7011,-2.6794,-2.6589,-2.6533,-2.6533,-2.6533,-2.6533,-2.6465,-2.6339,-2.6131,-2.598,-2.5758,-2.5746,-2.622,-2.5339,-2.4292,-2.4367,0.0,0.0,0.0,0.0,-2.1062,0.0,0.0,0.0,0.0,0.0,0.0,-1.5644,-1.3592,-1.1655,-1.0547,0.0,0.0,0.0,0.0,0.0,0.0,-2.0931,-2.2596,-2.8643,-2.8716,0.0,0.0,0.0,0.0,-3.4624,-3.5526,-3.6491,-3.7559,-3.793,-3.9012,-4.0806,-4.1348,-4.2102,-4.305,-4.3305,-4.3481,-4.3615,-4.3753,-4.3851,-4.3929,-4.3974,-4.4005,-4.4036,-4.4005,-4.4023,-4.4215,-4.5626,-4.6115,-4.5917,-1.3389,-1.369,-1.4143,0.0,-1.5202,-1.6159,0.0,0.0,0.0,0.0,-2.3004,-2.3484,-2.4099,-2.405,-2.4058,-2.4203,-2.4171,0.0,0.0,0.0,0.0,-2.4112,-2.4383,-2.4055,-2.3128,-2.2569,0.0,-1.8789,-1.7089,-1.5373,-1.3763,0.0,0.0,0.0,0.0,0.0,-1.8686,-2.1245,-2.4279,-2.7327,-2.7471,-2.7469,0.0,0.0,-2.7335,-2.7201,-2.6863,-2.6589,-2.6533,-2.6533,-2.6533,-2.6465,-2.6339,-2.627,-2.6131,-2.598,-2.5758,-2.5606,-2.5746,-2.5399,-2.4893,-2.4288,-2.344,-2.2702,0.0,0.0,0.0,0.0,0.0,0.0,0.0,0.0,0.0,-1.6427,-1.4193,-1.2459,0.0,0.0,0.0,0.0,0.0,0.0,0.0,0.0,-2.1989,-2.6013,-2.7067,0.0,0.0,0.0,0.0,-3.5436,-3.5932,-3.6396,-3.6939,-3.779,-3.8642,-3.934,-4.1015,-4.2032,-4.2481,-4.3188,-4.3667,-4.3832,-4.3883,-4.4011,-4.4195,-4.4036,-4.4158,-4.4354,-4.4097,-4.4395,-4.5008,-4.5268,-4.5349,-4.533,-1.4607,0.0,0.0,-1.6127,0.0,0.0,-1.8892,0.0,0.0,-2.2977,-2.353,0.0,-2.4073,-2.4112,-2.4112,-2.4112,-2.4112,0.0,0.0,0.0,0.0,-2.4112,-2.4447,-2.4369,-2.3755,-2.3598,0.0,-2.0053,0.0,0.0,-1.3885,0.0,0.0,0.0,0.0,-1.4659,0.0,-2.176,-2.476,-2.6882,-2.7327,0.0,0.0,-2.7523,-2.7403,-2.7268,-2.7066,-2.6794,-2.6589,-2.6589,-2.6521,-2.6465,-2.6396,-2.627,-2.6201,-2.6062,-2.591,-2.5688,-2.5606,-2.5535,-2.532,-2.4715,-2.434,-2.4105,-2.3945,-2.3833,-2.3986,0.0,0.0,0.0,0.0,0.0,0.0,0.0,0.0,0.0,0.0,0.0,0.0,0.0,0.0,0.0,0.0,0.0,0.0,0.0,0.0,0.0,0.0,0.0,0.0,-3.466,-3.5525,-3.6148,-3.6568,-3.7213,-3.7998,-3.8939,-4.06,-4.1683,-4.2239,-4.3232,-4.38,-4.3974,-4.3929,-4.4104,-4.4373,-4.4207,-4.4266,-4.4487,-4.4277,-4.4487,-4.4873,-4.4774,-4.4902,-4.5045,0.0,0.0,0.0,0.0,0.0,0.0,0.0,-2.099,0.0,-2.3365,0.0,-2.4112,-2.4112,-2.4112,-2.4112,-2.4112,0.0,-2.4112,-2.4112,-2.4112,-2.4112,-2.4112,-2.4112,-2.4112,-2.4171,-2.3879,0.0,0.0,0.0,0.0,0.0,0.0,0.0,0.0,0.0,0.0,0.0,-2.283,-2.5419,0.0,-2.7131,-2.7469,-2.739,-2.7456,-2.7403,-2.7201,-2.7201,-2.6998,-2.6726,-2.6726,-2.6658,-2.6521,-2.6521,-2.6396,-2.627,-2.627,-2.6131,-2.591,-2.5688,-2.5606,-2.5606,-2.5382,-2.5312,-2.5312,-2.5312,-2.5535,-2.5688,-2.5382,-2.5056,-2.4484,0.0,0.0,0.0,0.0,0.0,0.0,0.0,0.0,0.0,0.0,0.0,0.0,0.0,0.0,0.0,0.0,0.0,0.0,0.0,0.0,0.0,0.0,-3.498,0.0,-3.6392,0.0,-3.7408,-3.8887,-4.018,-4.1275,-4.2109,-4.3281,-4.3929,-4.4109,-4.4005,-4.4177,-4.4515,-4.4373,-4.4401,-4.4515,-4.4542,-4.4515,-4.4464,-4.4464,-4.4817,-4.5171,0.0,0.0,0.0,0.0,0.0,-2.0686,-2.1053,-2.2585,-2.3733,-2.3929,-2.4047,0.0,-2.4112,-2.4112,-2.4112,-2.4112,-2.4112,0.0,0.0,0.0,0.0,-2.4112,-2.4112,-2.4216,-2.4408,-2.4984,-2.417,0.0,0.0,0.0,0.0,0.0,0.0,0.0,0.0,0.0,-2.0481,-2.283,0.0,-2.7249,-2.7445,-2.7255,-2.6863,-2.7323,-2.7188,-2.6794,-2.6794,-2.6863,-2.6956,-2.6956,-2.6794,-2.6658,-2.6658,-2.6589,-2.6465,-2.6465,-2.6339,-2.6131,-2.591,-2.584,-2.5758,-2.5382,-2.5382,-2.5523,-2.5312,-2.5382,-2.5382,-2.5312,-2.5226,-2.4953,-2.4206,0.0,0.0,0.0,0.0,0.0,0.0,0.0,0.0,0.0,0.0,0.0,0.0,0.0,0.0,0.0,0.0,0.0,0.0,0.0,0.0,0.0,0.0,0.0,0.0,0.0,0.0,-3.7628,-3.989,-4.1115,-4.1443,-4.3116,-4.4023,-4.4266,-4.4255,-4.4383,-4.4659,-4.4524,-4.4487,-4.4524,-4.4745,-4.5081,-4.5462,-4.5452,-4.587,-4.6296,0.0,0.0,0.0,0.0,0.0,0.0,0.0,-2.314,0.0,-2.4054,-2.4112,-2.4112,-2.4112,-2.4112,-2.4112,-2.4112,-2.4112,-2.4112,-2.4112,-2.4112,-2.4112,-2.4112,-2.4112,0.0,-2.4319,-2.4921,-2.4118,-2.1841,0.0,0.0,0.0,0.0,0.0,0.0,0.0,-1.6409,0.0,0.0,0.0,-2.6585,-2.7236,-2.7335,-2.7121,-2.7053,-2.6918,-2.6645,-2.6358,-2.6358,-2.644,-2.6589,-2.6658,-2.6714,-2.6589,-2.6521,-2.6533,-2.6533,-2.6396,-2.6327,-2.6131,-2.6062,-2.598,-2.5688,-2.5618,-2.5535,-2.5465,-2.5382,-2.5312,-2.5312,-2.5312,-2.5238,-2.5098,-2.4115,0.0,0.0,0.0,0.0,0.0,0.0,0.0,0.0,0.0,0.0,0.0,0.0,0.0,0.0,0.0,0.0,0.0,0.0,0.0,0.0,0.0,0.0,0.0,0.0,0.0,-3.7703,-3.9972,-4.1121,-4.136,-4.3262,-4.4266,-4.4496,-4.4468,-4.4605,-4.4846,-4.4789,-4.4738,-4.4738,-4.4846,-4.5262,-4.581,-4.5716,-4.6106,-4.6638,0.0,-1.9451,0.0,0.0,-2.096,0.0,0.0,-2.3257,-2.3582,-2.4054,-2.4112,-2.4112,-2.4112,-2.4112,-2.4112,-2.4112,-2.4112,-2.4112,-2.4112,-2.4112,-2.4112,-2.4112,-2.4112,-2.4112,-2.4157,-2.4721,-2.4014,0.0,0.0,0.0,0.0,0.0,0.0,0.0,0.0,0.0,0.0,0.0,-2.5097,-2.5968,-2.6921,-2.7352,-2.7323,-2.6985,-2.6714,-2.6496,-2.607,-2.5931,-2.5931,-2.5873,-2.6233,-2.6577,-2.6452,-2.6452,-2.6521,-2.6533,-2.6533,-2.6465,-2.627,-2.6201,-2.6201,-2.598,-2.5758,-2.5676,-2.5606,-2.5453,-2.5312,-2.5312,-2.5312,-2.5523,-2.5898,-2.5645,0.0,0.0,0.0,0.0,0.0,0.0,0.0,0.0,0.0,0.0,0.0,0.0,0.0,0.0,0.0,0.0,0.0,0.0,0.0,0.0,0.0,-3.5793,-3.6165,0.0,-3.7147,0.0,-4.0145,-4.1341,-4.1772,-4.3565,-4.4496,-4.4738,-4.4685,-4.4796,-4.4991,-4.4991,-4.4943,-4.4895,-4.4895,-4.5426,-4.621,-4.6017,-4.651,-4.7249,0.0,0.0,0.0,0.0,0.0,0.0,0.0,-2.3022,-2.3582,-2.4054,-2.4112,-2.4112,-2.4112,-2.4112,-2.4112,-2.4112,-2.4112,-2.4112,-2.4112,-2.4112,-2.4112,-2.4112,-2.4112,-2.4216,-2.4465,-2.4821,-2.4532,0.0,0.0,0.0,0.0,0.0,0.0,0.0,0.0,0.0,0.0,-2.3703,-2.5132,-2.695,-2.6816,-2.6789,-2.685,-2.7255,-2.6837,-2.6,-2.5931,-2.5931,-2.5791,-2.5135,-2.5618,-2.6414,-2.6302,-2.644,-2.6658,-2.6521,-2.6533,-2.6465,-2.627,-2.6339,-2.6396,-2.598,-2.591,-2.5828,-2.5606,-2.5453,-2.5312,-2.5312,-2.5453,-2.5746,-2.6289,-2.5938,-2.617,0.0,0.0,0.0,0.0,0.0,0.0,0.0,0.0,0.0,0.0,0.0,0.0,0.0,0.0,0.0,0.0,0.0,0.0,-3.5027,0.0,-3.5081,-3.5498,-3.6298,0.0,-3.8025,-4.0224,-4.1773,-4.2705,-4.3999,-4.4659,-4.4796,-4.4846,-4.4919,-4.4991,-4.4991,-4.4943,-4.4895,-4.4895,-4.588,-4.7212,-4.6892,-4.7789,-4.9109,0.0,0.0,0.0,0.0,0.0,0.0,0.0,-2.3251,-2.3582,-2.4054,-2.4112,-2.4112,-2.4112,-2.4112,-2.4112,-2.4112,-2.4112,-2.4112,-2.4112,-2.4112,-2.4112,-2.4112,-2.4112,-2.4216,-2.4509,-2.4821,-2.4587,0.0,0.0,0.0,0.0,0.0,0.0,0.0,0.0,-2.2041,-2.3792,-2.4847,-2.5724,-2.6391,-2.6445,-2.6555,-2.6685,-2.6526,-2.6261,-2.5861,-2.5499,-2.5158,-2.4814,-2.4562,-2.5123,-2.5943,-2.6164,-2.6302,-2.644,-2.6739,-2.6739,-2.6589,-2.6521,-2.6533,-2.6452,-2.6327,-2.6188,-2.6062,-2.598,-2.5828,-2.5676,-2.5676,-2.5688,-2.5828,-2.6025,-2.6289,-2.6564,0.0,0.0,0.0,0.0,0.0,0.0,0.0,0.0,0.0,0.0,0.0,0.0,0.0,0.0,0.0,0.0,0.0,0.0,-3.3121,0.0,-3.5065,-3.5554,-3.6079,-3.705,-3.8422,-3.9615,-4.1132,-4.2928,-4.3641,-4.4317,-4.4967,-4.501,-4.5033,-4.5057,-4.5057,-4.501,-4.4952,-4.5483,-4.6373,-4.7427,-4.7683,-4.8461,-4.9384,-2.1345,0.0,-2.1186,0.0,-2.1824,-2.2138,-2.3015,-2.333,-2.3582,-2.4054,-2.4112,-2.4112,-2.4112,-2.4112,-2.4112,-2.4112,-2.4112,-2.4112,-2.4112,-2.4112,-2.4112,-2.4112,-2.4112,0.0,-2.4637,-2.4878,-2.475,-2.4288,-2.3139,0.0,0.0,0.0,0.0,0.0,-2.2588,-2.3705,-2.4581,-2.5605,-2.6027,-2.6044,-2.6109,-2.6387,-2.6667,-2.6258,-2.597,-2.5845,-2.5289,-2.4788,-2.4306,-2.4258,-2.4637,-2.5324,-2.5886,-2.6151,-2.6371,-2.6875,-2.6875,-2.6794,-2.6794,-2.6658,-2.6589,-2.6589,-2.6396,-2.6213,-2.6213,-2.605,-2.591,-2.591,-2.598,-2.598,-2.591,-2.644,-2.6701,-2.6427,0.0,0.0,0.0,0.0,0.0,0.0,0.0,-3.0631,0.0,0.0,0.0,0.0,0.0,0.0,0.0,0.0,0.0,0.0,0.0,0.0,0.0,-3.5715,-3.6721,-3.8323,-3.9264,-4.0777,-4.2853,-4.3589,-4.4388,-4.5125,-4.5103,-4.5103,-4.5103,-4.508,-4.4991,-4.499,-4.5862,-4.6676,-4.7465,-4.8163,-4.8773,-4.9252,-2.2457,-2.1803,-2.1325,-2.1815,-2.1865,-2.2051,-2.2531,-2.3065,-2.3582,-2.4054,-2.4112,-2.4112,-2.4112,-2.4112,-2.4112,-2.4112,-2.4112,-2.4112,-2.4112,-2.4112,-2.4112,0.0,0.0,-2.439,-2.5005,-2.5005,-2.5272,-2.5865,0.0,0.0,-2.3027,0.0,-2.1797,-2.3097,-2.3644,-2.4623,-2.5879,-2.5592,-2.584,-2.6293,-2.6017,-2.6194,-2.6722,-2.6661,-2.6356,-2.5847,-2.5521,-2.5018,-2.455,-2.4267,-2.4213,-2.4406,-2.5324,-2.5943,-2.6496,-2.6875,-2.7024,-2.7024,-2.7024,-2.6875,-2.6714,-2.6714,-2.6465,-2.6213,-2.6213,-2.605,-2.591,-2.591,-2.6062,-2.6131,-2.591,-2.6164,-2.662,-2.7338,0.0,0.0,0.0,0.0,0.0,0.0,-3.0629,-3.1234,-3.1117,0.0,0.0,0.0,0.0,0.0,0.0,0.0,0.0,-3.2908,-3.3208,0.0,-3.4497,-3.5157,-3.6127,-3.7465,-3.9439,-4.111,-4.2458,-4.4176,-4.5061,-4.5192,-4.5125,-4.5103,-4.5084,-4.5033,-4.4943,-4.499,-4.5862,-4.6676,-4.7465,-4.8163,-4.8596,-4.8897,-2.1639,-2.14,-2.1348,-2.1827,-2.2175,-2.2555,-2.3065,-2.3569,-2.3936,-2.4054,-2.4112,-2.4112,-2.4112,-2.4112,-2.4112,0.0,-2.4112,-2.4112,0.0,-2.4112,-2.4112,-2.4112,-2.4112,-2.439,-2.5005,-2.5005,-2.5286,-2.5893,0.0,0.0,0.0,-2.3817,-2.4133,-2.5008,-2.5166,-2.5474,-2.5893,-2.5798,-2.5758,-2.5771,-2.5658,-2.583,-2.6172,-2.6172,-2.6056,-2.5897,-2.5759,-2.5231,-2.4538,-2.4099,-2.3815,-2.3685,-2.4082,-2.5054,-2.6208,-2.7053,-2.7268,-2.7214,-2.7214,-2.7079,-2.6875,-2.6875,-2.6807,-2.6752,-2.6752,-2.6683,-2.6671,-2.6671,-2.6671,-2.6752,-2.6671,-2.6739,-2.6863,-2.7134,-2.693,0.0,0.0,0.0,0.0,0.0,0.0,-3.0866,0.0,-3.0383,0.0,0.0,0.0,0.0,0.0,0.0,0.0,0.0,-3.255,0.0,-3.376,-3.4648,-3.5864,-3.7404,-3.8347,-4.0005,-4.2286,-4.3497,-4.4175,-4.4392,-4.4565,-4.4538,-4.4364,-4.4538,-4.4457,-4.4344,-4.5587,-4.6265,-4.6738,-4.7988,-4.8451,-4.8403,-2.14,-2.1463,-2.1577,-2.2051,-2.2555,-2.2992,-2.333,-2.3819,-2.4112,-2.4112,-2.4112,-2.4112,-2.4112,-2.4112,0.0,-2.4112,-2.4112,-2.4112,-2.4112,-2.4112,-2.4112,-2.4112,-2.4112,-2.439,-2.5005,0.0,0.0,-2.5893,-2.546,-2.521,-2.521,-2.521,-2.5474,-2.5893,-2.5893,-2.5893,-2.5893,-2.5893,-2.5798,-2.5647,-2.5647,-2.5758,-2.5892,-2.5892,-2.5895,-2.5913,-2.5807,-2.5384,-2.486,-2.4316,-2.3937,-2.358,-2.3701,-2.4426,-2.545,-2.6345,-2.6842,-2.7077,-2.7077,-2.7113,-2.7079,-2.7079,-2.7079,-2.7024,-2.7024,-2.7024,-2.7024,-2.7024,-2.7024,-2.7024,-2.7024,-2.7079,-2.7146,-2.7268,-2.7348,-2.7549,0.0,0.0,0.0,0.0,0.0,0.0,0.0,-3.0819,0.0,0.0,0.0,0.0,0.0,0.0,0.0,-3.0268,-3.2076,0.0,-3.3273,-3.4329,-3.5505,-3.6722,-3.8116,-4.0018,-4.2461,-4.3229,-4.373,-4.3955,-4.4106,-4.4076,-4.3986,-4.4125,-4.4016,-4.3915,-4.5426,-4.6073,-4.6329,-4.7885,-4.8291,-4.8023,-2.1877,-2.1939,0.0,0.0,-2.3065,0.0,-2.3463,-2.3819,-2.4112,-2.4112,-2.4112,-2.4112,-2.4112,-2.4112,-2.4112,-2.4112,0.0,0.0,0.0,-2.4112,-2.4112,-2.4112,-2.4112,-2.439,-2.4948,-2.5005,-2.5286,-2.5893,-2.5893,-2.5893,-2.5893,-2.5893,-2.5893,-2.5893,-2.5893,-2.5893,-2.5893,-2.5893,-2.5893,-2.5893,-2.5893,-2.5893,-2.5893,-2.5893,-2.5893,-2.5839,-2.5592,-2.5472,-2.5381,-2.481,-2.4293,-2.3867,-2.4038,-2.4103,-2.4258,-2.4886,-2.5807,-2.6621,-2.6621,-2.6935,-2.7219,-2.7219,-2.7031,-2.6896,-2.6896,-2.6896,-2.6896,-2.6896,-2.6896,-2.6896,-2.6896,-2.7098,-2.7285,-2.7657,-2.788,-2.8336,-2.9289,0.0,0.0,0.0,0.0,0.0,0.0,-3.0919,-3.0769,0.0,0.0,0.0,0.0,0.0,-2.881,-3.0468,-3.1874,-3.2705,-3.2951,-3.4248,-3.5198,-3.5751,-3.8589,-4.0863,-4.2681,-4.3245,-4.3601,-4.3818,-4.3754,-4.3786,-4.3818,-4.3754,-4.367,-4.3701,-4.5289,-4.5915,-4.6118,-4.7776,-4.8062,-4.762,0.0,0.0,-2.2616,-2.3138,-2.333,-2.3522,-2.3878,-2.4054,-2.4112,-2.4112,-2.4112,-2.4112,-2.4112,-2.4112,-2.4112,-2.4112,-2.4112,-2.4112,-2.4112,-2.4112,-2.4112,-2.4112,-2.4112,-2.4274,-2.4637,-2.4878,-2.5286,-2.5893,-2.5893,-2.5893,-2.5893,-2.5893,-2.5893,-2.5893,-2.5893,-2.5893,-2.5893,-2.5893,-2.5893,-2.5893,-2.5893,-2.5893,-2.5893,-2.5893,-2.5893,-2.5893,-2.5853,-2.5494,-2.5024,-2.4562,-2.4004,-2.3466,-2.3109,-2.3257,-2.3813,-2.4798,-2.5537,-2.602,-2.602,-2.6061,-2.6166,-2.6166,-2.6102,-2.6102,-2.6102,-2.6102,-2.6102,-2.6102,-2.6102,-2.6102,-2.6102,-2.6102,-2.6293,-2.6582,-2.672,-2.6907,-2.7326,-2.7387,0.0,0.0,-2.9073,-2.9354,-3.0289,-3.038,-3.0409,0.0,0.0,0.0,0.0,-2.9669,-2.9665,-3.0482,-3.1982,-3.2676,-3.2537,-3.4206,-3.5635,-3.6757,-3.8356,-3.981,-4.1138,-4.1953,-4.2519,-4.2939,-4.3123,-4.3087,-4.2939,-4.3123,-4.3051,-4.2971,-4.4403,-4.4975,-4.5215,-4.6585,-4.6954,-4.6817,-2.2932,-2.2992,-2.3125,-2.3628,-2.37,-2.3819,-2.4054,-2.4112,-2.4112,-2.4112,-2.4112,-2.4112,-2.4112,-2.4112,-2.4112,-2.4112,-2.4112,-2.4112,-2.4112,-2.4112,-2.4112,-2.4112,-2.4112,-2.4216,-2.4509,-2.4694,-2.4991,-2.5508,-2.5633,-2.5702,-2.5702,-2.5839,-2.5893,-2.5893,-2.5893,-2.5893,-2.5893,-2.5893,-2.5893,-2.5893,-2.5893,-2.5893,-2.5893,-2.5743,-2.5702,-2.5688,-2.5564,-2.5286,-2.4948,-2.4523,-2.4002,-2.3484,-2.3125,-2.3198,-2.3517,-2.4126,-2.4854,-2.5432,-2.5432,-2.5628,-2.5824,-2.5824,-2.5824,-2.5824,-2.5824,-2.5936,-2.5998,-2.5998,-2.6122,-2.6246,-2.6246,-2.6246,-2.6294,-2.6661,-2.6708,-2.6843,-2.7157,-2.7216,0.0,-2.8482,-2.8637,-2.891,-2.9485,-2.9848,-2.9913,-2.9738,0.0,0.0,-2.9877,-2.9801,-2.9903,-3.0138,-3.166,-3.251,-3.2442,-3.4293,-3.5828,-3.6956,-3.7887,-3.8999,-4.0281,-4.0954,-4.1598,-4.2192,-4.236,-4.2378,-4.2351,-4.2418,-4.2378,-4.243,-4.3871,-4.4493,-4.4733,-4.6117,-4.6377,-4.6076,-2.339,-2.3522,-2.3641,-2.4054,-2.4112,-2.4112,-2.4112,-2.4054,-2.3995,-2.3995,-2.3995,-2.3995,-2.3995,-2.4067,-2.4112,-2.4112,-2.4112,-2.4112,-2.4112,-2.4112,-2.4112,-2.4112,-2.4112,-2.4216,-2.4408,-2.4465,-2.4637,-2.5005,-2.5313,-2.5439,-2.5494,-2.5743,-2.5839,-2.5893,-2.5893,-2.5893,-2.5893,-2.5893,-2.5893,-2.5893,-2.5893,-2.5893,-2.5893,-2.5647,-2.555,-2.5439,-2.5188,-2.5005,-2.4878,-2.458,-2.4221,-2.3813,-2.3569,-2.3522,-2.3522,-2.3522,-2.4154,-2.4831,-2.4831,-2.5197,-2.5563,-2.5563,-2.5563,-2.5563,-2.5563,-2.5735,-2.598,-2.6028,-2.621,-2.6377,-2.6451,-2.6451,-2.6557,-2.6972,-2.6986,-2.7117,-2.7539,0.0,-2.7654,-2.8152,-2.8528,-2.8758,-2.868,-2.9243,-2.9354,-2.8732,-2.9198,-2.9515,0.0,-2.9754,-2.9874,-2.9742,-3.1245,-3.2302,-3.271,-3.4464,-3.5761,-3.6603,-3.7247,-3.8261,-3.9534,-4.0045,-4.0621,-4.1314,-4.1314,-4.146,-4.1665,-4.1417,-4.1417,-4.1679,-4.3147,-4.3766,-4.4049,-4.5435,-4.5629,-4.517,-2.3995,-2.3995,-2.3995,-2.4112,-2.4112,-2.4112,-2.4112,-2.376,-2.3522,-2.3522,-2.3522,-2.3522,-2.3522,-2.3878,-2.4112,-2.4112,-2.4112,-2.4112,-2.4112,-2.4112,-2.4112,-2.4112,-2.4112,-2.4112,-2.4157,-2.435,-2.4637,-2.5005,-2.5061,-2.5244,-2.5494,-2.555,-2.5702,-2.5893,-2.5893,-2.5893,-2.5893,-2.5893,-2.5893,-2.5893,-2.5893,-2.5893,-2.5893,-2.5839,-2.5702,-2.5494,-2.5439,-2.5061,-2.458,-2.4523,-2.4305,-2.4041,-2.3995,-2.3995,-2.3995,-2.3995,-2.4119,-2.4243,-2.4243,-2.4321,-2.4374,-2.4374,-2.4374,-2.4374,-2.4374,-2.4374,-2.4491,-2.4731,-2.4789,-2.4905,-2.5219,-2.5276,-2.549,-2.6132,-2.6022,-2.5981,-2.6597,0.0,-2.6339,-2.6759,-2.717,-2.7558,-2.7906,-2.8519,-2.8809,-2.87,-2.9198,-2.9515,-2.9515,-2.9754,-2.9902,-2.993,-3.0936,-3.2175,-3.3744,-3.4655,-3.5371,-3.5808,-3.6559,-3.7285,-3.7906,-3.8695,-3.9199,-3.9501,-3.9603,-3.9705,-3.9705,-3.9705,-3.9663,-3.981,-4.0707,-4.1446,-4.2088,-4.28,-4.3353,-4.3759,-2.4112,-2.3878,-2.3819,-2.4067,-2.3878,-2.3819,-2.4054,-2.37,-2.3403,-2.3403,-2.3403,-2.3403,-2.3403,-2.3819,-2.4112,-2.4112,-2.4112,-2.4112,-2.4112,-2.4112,-2.4112,-2.4112,-2.4112,-2.4112,-2.4112,-2.4216,-2.4376,-2.4505,-2.4835,-2.5075,-2.5257,-2.5578,-2.5798,-2.5893,-2.5893,-2.5893,-2.5893,-2.5893,-2.5893,-2.5893,-2.5743,-2.5743,-2.5839,-2.5564,-2.5467,-2.5439,-2.5075,-2.4765,-2.4465,-2.4305,-2.4216,-2.4112,-2.4112,-2.4216,-2.4261,-2.4171,-2.4112,-2.4112,-2.4112,-2.4112,-2.4112,-2.4261,-2.4319,-2.4376,-2.4563,-2.4734,-2.4862,-2.5005,-2.516,-2.5314,-2.5453,-2.5508,-2.5605,-2.5934,-2.5839,0.0,0.0,-2.6002,-2.6002,-2.6258,-2.6616,-2.7137,-2.771,-2.8319,-2.8811,-2.9106,-2.9486,-2.9726,-2.9726,-2.9814,-2.9946,-3.0017,-3.127,-3.2533,-3.3773,-3.4675,-3.5182,-3.5321,-3.5886,-3.6486,-3.712,-3.7641,-3.8153,-3.8684,-3.8728,-3.8816,-3.8912,-3.8816,-3.8816,-3.9025,-3.9914,-4.0682,-4.1387,-4.2062,-4.2536,-4.2784,-2.3936,-2.3509,-2.3258,-2.3675,-2.3378,-2.3258,-2.3675,-2.3318,-2.3017,-2.3017,-2.3017,-2.3017,-2.3017,-2.3569,-2.3936,-2.3936,-2.4054,-2.4112,-2.4112,-2.4112,-2.4112,-2.4112,-2.4112,-2.4112,-2.4112,-2.4112,-2.4112,-2.4112,-2.4563,-2.4835,-2.4878,-2.5384,-2.5605,-2.5674,-2.5674,-2.5674,-2.5674,-2.5674,-2.5674,-2.5674,-2.5481,-2.5536,-2.5619,-2.5174,-2.5131,-2.5188,-2.4694,-2.4465,-2.4363,-2.4157,-2.4112,-2.4112,-2.4112,-2.4261,-2.4363,-2.4157,-2.4112,-2.4112,-2.4157,-2.4216,-2.4261,-2.4465,-2.4509,-2.458,-2.4821,-2.5131,-2.5383,-2.5494,-2.5647,-2.5853,-2.5893,-2.5893,-2.5948,-2.6002,0.0,0.0,0.0,-2.5948,-2.5948,-2.6056,-2.6472,-2.693,-2.7479,-2.8255,-2.8889,-2.9273,-2.9665,-2.9918,-2.9918,-2.9918,-2.9946,-3.0017,-3.1462,-3.2533,-3.3093,-3.4187,-3.4792,-3.4838,-3.5328,-3.5852,-3.6518,-3.6729,-3.7143,-3.7706,-3.7752,-3.7854,-3.7981,-3.7826,-3.7854,-3.8094,-3.8787,-3.9524,-4.0285,-4.1,-4.1397,-4.154,-2.333,-2.275,-2.2298,-2.2665,-2.2421,-2.2298,-2.2665,-2.2298,-2.2002,-2.2002,-2.2002,-2.2002,-2.2002,-2.2884,-2.3463,-2.3463,-2.3819,-2.4112,-2.4112,-2.4112,-2.4112,-2.4112,-2.4112,-2.4112,-2.4112,-2.4112,-2.4112,-2.4112,-2.4112,-2.4261,-2.4523,-2.4567,-2.4751,-2.5061,-2.5061,-2.5061,-2.5061,-2.5061,-2.5061,-2.5061,-2.5061,-2.5061,-2.5061,-2.5005,-2.4821,-2.458,-2.4523,-2.4363,-2.4112,-2.4112,-2.4112,-2.4112,-2.4112,-2.4112,-2.4112,-2.4112,-2.4112,-2.4157,-2.4408,-2.4465,-2.4465,-2.4523,-2.4509,-2.4509,-2.4523,-2.4821,-2.5131,-2.5439,-2.5494,-2.5605,-2.5839,-2.5893,-2.6002,-2.6404,0.0,0.0,-2.6404,-2.615,-2.5948,-2.6056,-2.6472,-2.6788,-2.7011,-2.8061,-2.8732,-2.8732,-2.947,-2.9918,-2.9918,-2.9918,-2.9946,-3.0017,-3.0915,-3.1473,-3.1671,-3.304,-3.3826,-3.4072,-3.491,-3.5417,-3.5621,-3.5813,-3.5936,-3.5987,-3.6103,-3.619,-3.619,-3.619,-3.619,-3.619,-3.6241,-3.6737,-3.749,-3.8225,-3.8978,-3.9696,-2.2555,-2.2249,-2.2113,-2.2531,-2.2051,-2.1803,-2.2237,-2.1741,-2.1302,-2.1302,-2.1439,-2.1577,-2.1577,-2.2372,-2.3065,-2.3403,-2.3582,-2.376,-2.4054,-2.4112,-2.4112,-2.4112,-2.4112,-2.4112,-2.4112,-2.4112,-2.4112,-2.4112,-2.4261,-2.4408,-2.4509,-2.4694,-2.4878,-2.5005,-2.5005,-2.5005,-2.5005,-2.5005,-2.5005,-2.5005,-2.4765,-2.4821,-2.5005,-2.4765,-2.4765,-2.4765,-2.458,-2.4408,-2.4305,-2.4171,-2.4112,-2.4112,-2.4112,-2.4216,-2.4363,-2.4363,-2.4363,-2.4363,-2.4452,-2.4509,-2.4509,-2.4509,-2.4821,-2.5131,-2.5131,-2.5342,-2.5619,-2.5743,-2.5743,-2.5798,-2.5893,-2.5893,-2.5948,-2.6096,0.0,-2.5948,-2.6096,-2.6002,-2.5948,-2.6056,-2.6218,-2.6525,-2.7034,-2.7515,-2.7981,-2.8273,-2.8982,-2.9425,-2.9425,-2.9754,-2.9946,-2.9946,-3.0293,-3.0828,-3.1506,-3.2987,-3.3789,-3.3898,-3.4738,-3.5198,-3.5245,-3.5429,-3.5475,-3.552,-3.5656,-3.5701,-3.5701,-3.5711,-3.5756,-3.5756,-3.5844,-3.6321,-3.7132,-3.7802,-3.8567,-3.935,-2.1667,-2.1428,-2.1376,-2.1865,-2.1439,-2.1123,-2.1553,-2.1175,-2.0805,-2.0666,-2.0933,-2.1135,-2.1135,-2.199,-2.2738,-2.3138,-2.345,-2.376,-2.4054,-2.4112,-2.4112,-2.4112,-2.4112,-2.4112,-2.4112,-2.4112,-2.4112,-2.4112,-2.4261,-2.4363,-2.4363,-2.4607,-2.4734,-2.4734,-2.4734,-2.4734,-2.4734,-2.4734,-2.4734,-2.4677,-2.4478,-2.4492,-2.4664,-2.4478,-2.4549,-2.4677,-2.4478,-2.4363,-2.4363,-2.4157,-2.4112,-2.4112,-2.4112,-2.4216,-2.4363,-2.4363,-2.4363,-2.4363,-2.4363,-2.4465,-2.4509,-2.4509,-2.4821,-2.5188,-2.5188,-2.5467,-2.5743,-2.5743,-2.5839,-2.5893,-2.5893,-2.5893,-2.5893,-2.5893,-2.5893,-2.5893,-2.5893,-2.5893,-2.5948,-2.6056,-2.6111,-2.6326,-2.6826,-2.7056,-2.7399,-2.7735,-2.8384,-2.8732,-2.8779,-2.9212,-2.956,-2.9726,-2.9754,-3.0201,-3.1073,-3.2595,-3.3367,-3.3412,-3.4529,-3.5088,-3.5088,-3.5245,-3.5291,-3.5291,-3.54,-3.5446,-3.5446,-3.5503,-3.5503,-3.5487,-3.5594,-3.5977,-3.6564,-3.7212,-3.7973,-3.8751,-2.0794,-2.0172,-1.9802,-2.0506,-2.0302,-2.0237,-2.0506,-2.0571,-2.0442,-2.0172,-2.0377,-2.0571,-2.0571,-2.1803,-2.2592,-2.2592,-2.3484,-2.4112,-2.4112,-2.4112,-2.4112,-2.4112,-2.4112,-2.4112,-2.4112,-2.4112,-2.4112,-2.4112,-2.4112,-2.4112,-2.4112,-2.4112,-2.4112,-2.4112,-2.4112,-2.4112,-2.4112,-2.4112,-2.4112,-2.4112,-2.4112,-2.4112,-2.4112,-2.4112,-2.4112,-2.4112,-2.4112,-2.4112,-2.4112,-2.4112,-2.4112,-2.4112,-2.4112,-2.4112,-2.4112,-2.4112,-2.4112,-2.4112,-2.4112,-2.4319,-2.4509,-2.4509,-2.4509,-2.4509,-2.4509,-2.5005,-2.5494,-2.5494,-2.5688,-2.5893,-2.5893,-2.5893,-2.5893,-2.5893,-2.5893,-2.5893,-2.5893,-2.5893,-2.5948,-2.6056,-2.6111,-2.6165,-2.6286,-2.6774,-2.7071,-2.7071,-2.7615,-2.7947,-2.8079,-2.824,-2.8591,-2.9243,-2.9305,-2.956,-3.0189,-3.1647,-3.2442,-3.2517,-3.4296,-3.5088,-3.5088,-3.5245,-3.5291,-3.5291,-3.5291,-3.5291,-3.5291,-3.5291,-3.5308,-3.5291,-3.5291,-3.5291,-3.5392,-3.6095,-3.6831,-3.7585,-1.9987,-1.9977,-1.9977,-2.0237,-1.9987,-1.9791,-1.9868,-1.9726,-1.9594,-1.9726,-2.0042,-2.0366,-2.0571,-2.121,-2.1877,-2.2531,-2.2847,-2.3352,-2.4054,-2.4112,-2.4112,-2.4112,-2.4112,-2.4112,-2.4112,-2.4112,-2.4112,-2.4112,-2.4112,-2.4112,-2.4112,-2.4112,-2.4112,-2.4112,-2.4112,-2.4112,-2.4112,-2.4112,-2.4112,-2.4112,-2.4112,-2.4112,-2.4112,-2.4112,-2.4112,-2.4112,-2.4112,-2.4112,-2.4112,-2.4112,-2.4112,-2.4112,-2.4112,-2.4112,-2.4112,-2.4112,-2.4112,-2.4112,-2.4112,-2.4171,-2.4216,-2.4216,-2.4549,-2.4821,-2.4821,-2.5005,-2.5244,-2.5688,-2.5702,-2.5702,-2.5839,-2.5893,-2.5893,-2.5893,-2.5893,-2.5893,-2.5893,-2.5893,-2.5893,-2.5948,-2.5948,-2.6002,-2.6002,-2.6258,-2.6418,-2.6418,-2.6967,-2.755,-2.8079,-2.8128,-2.8288,-2.8591,-2.8591,-2.8889,-2.9409,-3.1463,-3.2471,-3.2517,-3.4187,-3.4947,-3.4947,-3.4994,-3.4787,-3.4448,-3.4513,-3.4545,-3.4545,-3.4642,-3.4913,-3.5291,-3.5291,-3.5291,-3.5328,-3.5661,-3.5894,-3.6206,-1.9407,-1.9594,-1.9781,-1.9846,-1.9726,-1.9605,-1.9605,-1.9407,-1.9341,-1.9407,-1.966,-1.9987,-2.0183,-2.0828,-2.1577,-2.2347,-2.2907,-2.3424,-2.4054,-2.4112,-2.4112,-2.4112,-2.4112,-2.4112,-2.4112,-2.4112,-2.4112,-2.4112,-2.4112,-2.4112,-2.4112,-2.4112,-2.4112,-2.4112,-2.4112,-2.4112,-2.4112,-2.4112,-2.4112,-2.4112,-2.4112,-2.4112,-2.4112,-2.4112,-2.4112,-2.4112,-2.4112,-2.4112,-2.4112,-2.4112,-2.4112,-2.4112,-2.4112,-2.4112,-2.4112,-2.4112,-2.4112,-2.4112,-2.4112,-2.4112,-2.4112,-2.4112,-2.439,-2.462,-2.462,-2.4835,-2.5061,-2.5328,-2.5411,-2.555,-2.5702,-2.5743,-2.5798,-2.5893,-2.5893,-2.5893,-2.5893,-2.5893,-2.5893,-2.5893,-2.5893,-2.5893,-2.5893,-2.5948,-2.6002,-2.6002,-2.6472,-2.6916,-2.7348,-2.7434,-2.765,-2.7947,-2.7997,-2.824,-2.8779,-3.072,-3.1804,-3.2024,-3.3615,-3.4251,-3.402,-3.4086,-3.3951,-3.3646,-3.3767,-3.3802,-3.3818,-3.3903,-3.4136,-3.4448,-3.4448,-3.4626,-3.4789,-3.4657,-3.4931,-3.5407,-1.9075,-1.9075,-1.9208,-1.9473,-1.955,-1.955,-1.955,-1.955,-1.9473,-1.9208,-1.9407,-1.9605,-1.9671,-2.0624,-2.1502,-2.199,-2.3233,-2.3995,-2.4054,-2.4054,-2.4067,-2.4112,-2.4112,-2.4112,-2.4112,-2.4112,-2.4112,-2.4112,-2.4112,-2.4112,-2.4112,-2.4112,-2.4112,-2.4112,-2.4112,-2.4112,-2.4112,-2.4112,-2.4112,-2.4112,-2.4112,-2.4112,-2.4112,-2.4112,-2.4112,-2.4112,-2.4112,-2.4112,-2.4112,-2.4112,-2.4112,-2.4112,-2.4112,-2.4112,-2.4112,-2.4112,-2.4112,-2.4112,-2.4112,-2.4112,-2.4112,-2.4112,-2.4112,-2.4112,-2.4112,-2.4563,-2.4835,-2.458,-2.5005,-2.5439,-2.5494,-2.5494,-2.5605,-2.5839,-2.5893,-2.5893,-2.5893,-2.5893,-2.5893,-2.5893,-2.5893,-2.5893,-2.5893,-2.5893,-2.5893,-2.5893,-2.6002,-2.6111,-2.6286,-2.6418,-2.6759,-2.7414,-2.7414,-2.765,-2.8192,-2.9678,-3.0713,-3.1258,-3.2774,-3.3203,-3.2725,-3.2864,-3.2933,-3.2933,-3.3024,-3.3077,-3.3077,-3.3093,-3.313,-3.3198,-3.3198,-3.3527,-3.3933,-3.3371,-3.3857,-3.4816,-1.9075,-1.9075,-1.9142,-1.9208,-1.9198,-1.9198,-1.9198,-1.9198,-1.9274,-1.9473,-1.9539,-1.9671,-1.9977,-2.0237,-2.0677,-2.1502,-2.2359,-2.3113,-2.3522,-2.3582,-2.37,-2.4054,-2.4112,-2.4112,-2.4112,-2.4112,-2.4112,-2.4112,-2.4112,-2.4112,-2.4112,-2.4112,-2.4112,-2.4112,-2.4112,-2.4112,-2.4112,-2.4112,-2.4112,-2.4112,-2.4112,-2.4112,-2.4112,-2.4112,-2.4112,-2.4112,-2.4112,-2.4112,-2.4112,-2.4112,-2.4112,-2.4112,-2.4112,-2.4112,-2.4112,-2.4112,-2.4112,-2.4112,-2.4112,-2.4112,-2.4112,-2.4112,-2.4112,-2.4171,-2.4363,-2.4376,-2.439,-2.4835,-2.5005,-2.5188,-2.5439,-2.5494,-2.5605,-2.5839,-2.5688,-2.5647,-2.5839,-2.5893,-2.5893,-2.5893,-2.5893,-2.5893,-2.5893,-2.5893,-2.5893,-2.5893,-2.5948,-2.6002,-2.6111,-2.6165,-2.6365,-2.6707,-2.6707,-2.7004,-2.7665,-2.9094,-3.0075,-3.0663,-3.2191,-3.2833,-3.2671,-3.2741,-3.2524,-3.2155,-3.2155,-3.2155,-3.221,-3.2281,-3.261,-3.3039,-3.3145,-3.3303,-3.3319,-3.2803,-3.2749,-3.3006,-1.9075,-1.9075,-1.9075,-1.9075,-1.9075,-1.9075,-1.9075,-1.9075,-1.9131,-1.9341,-1.9341,-1.9396,-1.9584,-1.9791,-2.0237,-2.106,-2.1741,-2.2237,-2.2506,-2.2811,-2.3185,-2.3471,-2.3806,-2.4008,-2.4112,-2.4112,-2.4112,-2.4112,-2.4112,-2.4112,-2.4112,-2.4112,-2.4112,-2.4112,-2.4112,-2.4112,-2.4112,-2.4112,-2.4112,-2.4112,-2.4112,-2.4112,-2.4112,-2.4112,-2.4112,-2.4112,-2.4112,-2.4112,-2.4112,-2.4112,-2.4112,-2.4112,-2.4112,-2.4112,-2.4112,-2.4112,-2.4112,-2.4112,-2.4112,-2.4112,-2.4112,-2.4112,-2.4112,-2.4171,-2.4261,-2.4319,-2.4319,-2.4563,-2.4664,-2.4821,-2.5005,-2.5005,-2.5118,-2.5397,-2.5481,-2.555,-2.5702,-2.5798,-2.5893,-2.5893,-2.5893,-2.5893,-2.5893,-2.5893,-2.5893,-2.5893,-2.5893,-2.5948,-2.6111,-2.6111,-2.6218,-2.6418,-2.6418,-2.6616,-2.7019,-2.838,-2.9248,-2.9651,-3.1363,-3.2003,-3.1705,-3.1777,-3.1622,-3.1349,-3.148,-3.1537,-3.1537,-3.161,-3.1823,-3.2089,-3.2241,-3.2446,-3.261,-3.216,-3.1966,-3.1955,-1.9075,-1.9075,-1.9075,-1.9075,-1.9075,-1.9075,-1.9075,-1.9075,-1.9075,-1.9075,-1.9075,-1.9075,-1.9075,-1.9407,-1.9857,-2.0602,-2.1112,-2.1365,-2.1491,-2.1978,-2.247,-2.2761,-2.3365,-2.3747,-2.3995,-2.4067,-2.4054,-2.4112,-2.4112,-2.4112,-2.4112,-2.4112,-2.4112,-2.4112,-2.4112,-2.4112,-2.4112,-2.4112,-2.4112,-2.4112,-2.4112,-2.4112,-2.4112,-2.4112,-2.4112,-2.4112,-2.4112,-2.4112,-2.4112,-2.4112,-2.4112,-2.4112,-2.4112,-2.4112,-2.4112,-2.4112,-2.4112,-2.4112,-2.4112,-2.4112,-2.4112,-2.4112,-2.4112,-2.4112,-2.4112,-2.4261,-2.4363,-2.4171,-2.4305,-2.4509,-2.4509,-2.4509,-2.4637,-2.4948,-2.5188,-2.5369,-2.5439,-2.5647,-2.5853,-2.5853,-2.5893,-2.5893,-2.5893,-2.5893,-2.5893,-2.5893,-2.5893,-2.5948,-2.6056,-2.6056,-2.6111,-2.6286,-2.6286,-2.6326,-2.6457,-2.7691,-2.8452,-2.8695,-3.0349,-3.0984,-3.0568,-3.0702,-3.0762,-3.0762,-3.0955,-3.1014,-3.1014,-3.1014,-3.1073,-3.1073,-3.1234,-3.1552,-3.1864,-3.1567,-3.1424,-3.1424,-1.9075,-1.9075,-1.9075,-1.9075,-1.9075,-1.9075,-1.9075,-1.9075,-1.9075,-1.9075,-1.9075,-1.9075,-1.9075,-1.9407,-1.9671,-1.9802,-2.0107,-2.0473,-2.0985,-2.1101,-2.1604,-2.2592,-2.2725,-2.3053,-2.3628,-2.3819,-2.4008,-2.4112,-2.4112,-2.4112,-2.4112,-2.4112,-2.4112,-2.4112,-2.4112,-2.4112,-2.4112,-2.4112,-2.4112,-2.4112,-2.4112,-2.4112,-2.4112,-2.4112,-2.4112,-2.4112,-2.4112,-2.4112,-2.4112,-2.4112,-2.4112,-2.4112,-2.4112,-2.4112,-2.4112,-2.4112,-2.4112,-2.4112,-2.4112,-2.4112,-2.4112,-2.4112,-2.4112,-2.4112,-2.4112,-2.4112,-2.4171,-2.4112,-2.4305,-2.4509,-2.4509,-2.4509,-2.4637,-2.4948,-2.4821,-2.4765,-2.5005,-2.5369,-2.555,-2.555,-2.5743,-2.5893,-2.5893,-2.5893,-2.5893,-2.5893,-2.5893,-2.5893,-2.5948,-2.5948,-2.6002,-2.6111,-2.6111,-2.6165,-2.634,-2.7219,-2.7963,-2.8568,-2.9464,-3.0089,-3.0568,-3.0642,-3.0642,-3.0642,-3.0642,-3.0702,-3.0702,-3.0762,-3.0821,-3.0895,-3.1073,-3.119,-3.1249,-3.119,-3.1132,-3.1132,-1.9075,-1.9075,-1.9075,-1.9075,-1.9075,-1.9075,-1.9075,-1.9075,-1.9075,-1.9075,-1.9075,-1.9075,-1.9075,-1.9208,-1.9341,-1.9341,-1.9462,-1.9649,-1.9901,-2.0226,-2.0719,-2.1279,-2.1729,-2.2125,-2.2494,-2.2567,-2.2811,-2.3292,-2.3793,-2.4112,-2.4112,-2.4112,-2.4112,-2.4112,-2.4112,-2.4112,-2.4112,-2.4112,-2.4112,-2.4112,-2.4112,-2.4112,-2.4112,-2.4112,-2.4112,-2.4112,-2.4112,-2.4112,-2.4112,-2.4112,-2.4112,-2.4112,-2.4112,-2.4112,-2.4112,-2.4112,-2.4112,-2.4112,-2.4112,-2.4112,-2.4112,-2.4112,-2.4112,-2.4112,-2.4112,-2.4112,-2.4112,-2.4112,-2.4216,-2.4261,-2.4261,-2.4261,-2.4319,-2.4447,-2.4478,-2.458,-2.4694,-2.5005,-2.5313,-2.5494,-2.5743,-2.5893,-2.5893,-2.5893,-2.5893,-2.5893,-2.5893,-2.5893,-2.5893,-2.5893,-2.5948,-2.6002,-2.6002,-2.6111,-2.6286,-2.7009,-2.7578,-2.8047,-2.9088,-2.9958,-3.0568,-3.0568,-3.0568,-3.0568,-3.0568,-3.0568,-3.0568,-3.0642,-3.0702,-3.0702,-3.0895,-3.1014,-3.1087,-3.1087,-3.1087,-3.1087]}]]